Date StartTime U_cm/s V_cm/s W_cm/s Ustd_cm/s Vstd_cm/s Wstd_cm/s Uvar_(cm/s)^2 Vvar_(cm/s)^2 Wvar_(cm/s)^2 KE_(m/s)^2 TurbulentKE_(m/s)^2 HorizWindSpeed_cm/s FrictionSpeec_cm/s DragCoef SpeedOfSound_m/s SonicTemperature_C Pressure_mb 
04/03/2014  00:00:00     -117.048      -75.133        7.406       71.954       55.465       36.876     5177.448     3076.346     1359.872        1.450        0.481      139.087       41.690        0.090      333.591        3.004      860.858
04/03/2014  00:01:00     -142.266     -119.081      -15.739       48.834       48.420       30.373     2384.793     2344.471      922.547        2.016        0.283      185.526       28.099        0.023      333.627        3.063      860.869
04/03/2014  00:02:00     -100.486      -98.406       -2.702       57.402       49.024       27.225     3295.046     2403.321      741.175        1.311        0.322      140.645       26.750        0.036      333.710        3.201      860.865
04/03/2014  00:03:00     -135.231      -99.437       -6.219       45.063       39.783       32.695     2030.699     1582.707     1068.982        1.645        0.234      167.854       29.972        0.032      333.695        3.178      860.858
04/03/2014  00:04:00      -88.743      -80.960       -1.308       32.128       38.686       22.641     1032.179     1496.626      512.629        0.874        0.152      120.124       15.319        0.016      333.675        3.145      860.868
04/03/2014  00:05:00     -124.638      -35.443       -0.091       50.769       37.871       25.316     2577.453     1434.191      640.901        1.072        0.233      129.579       21.717        0.028      333.597        3.015      860.862
04/03/2014  00:06:00     -110.646      -16.555       -0.582       50.111       37.400       29.904     2511.067     1398.766      894.256        0.866        0.240      111.878       34.050        0.093      333.547        2.933      860.849
04/03/2014  00:07:00     -101.400      -16.872        4.182       57.188       43.460       27.591     3270.501     1888.732      761.263        0.825        0.296      102.794       26.533        0.067      333.433        2.745      860.849
04/03/2014  00:08:00     -137.286      -22.353       -3.562       59.329       37.656       26.270     3519.957     1417.948      690.106        1.249        0.281      139.094       28.703        0.043      333.334        2.581      860.841
04/03/2014  00:09:00     -147.139      -55.739       -9.705       34.431       55.378       24.836     1185.472     3066.742      616.824        1.486        0.243      157.342       17.566        0.012      333.349        2.606      860.837
04/03/2014  00:10:00     -133.971      -31.226       -2.652       50.667       45.716       28.327     2567.161     2089.908      802.443        1.219        0.273      137.562       31.356        0.052      333.367        2.636      860.842
04/03/2014  00:11:00     -141.487      -45.492       -2.806       38.299       38.541       25.276     1466.796     1485.436      638.882        1.284        0.180      148.620       19.125        0.017      333.382        2.660      860.836
04/03/2014  00:12:00     -122.243      -68.850        2.809       41.704       31.709       20.958     1739.262     1005.492      439.253        1.144        0.159      140.298       22.700        0.026      333.423        2.728      860.836
04/03/2014  00:13:00     -141.628      -77.817        3.350       35.470       30.137       23.722     1258.122      908.258      562.743        1.443        0.136      161.598       21.063        0.017      333.434        2.744      860.843
04/03/2014  00:14:00     -174.776      -39.890       -8.669       43.440       31.815       28.039     1887.038     1012.206      786.196        1.795        0.184      179.270       19.368        0.012      333.448        2.767      860.853
04/03/2014  00:15:00     -173.472      -66.908       -0.221       44.726       44.321       33.596     2000.458     1964.311     1128.662        1.983        0.255      185.929       29.417        0.025      333.497        2.849      860.845
04/03/2014  00:16:00     -144.517      -47.946       -3.558       48.381       37.026       25.863     2340.746     1370.940      668.873        1.379        0.219      152.263       23.328        0.023      333.515        2.879      860.837
04/03/2014  00:17:00     -152.491      -46.757       -6.122       34.755       48.585       24.342     1207.891     2360.536      592.512        1.482        0.208      159.498       20.503        0.017      333.499        2.852      860.836
04/03/2014  00:18:00     -168.107      -58.981       -4.735       35.992       35.930       23.539     1295.391     1290.933      554.104        1.745        0.157      178.154       15.566        0.008      333.554        2.945      860.830
04/03/2014  00:19:00     -126.197      -26.676        1.183       47.327       31.831       24.237     2239.852     1013.208      587.412        1.024        0.192      128.986       23.470        0.033      333.520        2.888      860.825
04/03/2014  00:20:00     -117.252      -26.798       -1.742       50.971       39.397       24.577     2598.021     1552.140      604.035        0.961        0.238      120.275       22.961        0.036      333.514        2.877      860.817
04/03/2014  00:21:00      -82.451      -22.058        0.816       42.863       34.387       23.090     1837.238     1182.436      533.146        0.542        0.178       85.351       25.659        0.090      333.516        2.880      860.818
04/03/2014  00:22:00     -169.192       47.049       -8.516       21.392       18.206       13.214      457.638      331.443      174.599        1.594        0.048      175.612        2.975        0.000      333.478        2.818      860.801
04/03/2014  00:23:00     -122.984       53.389       -7.004       31.391       31.693       22.270      985.371     1004.428      495.959        1.025        0.124      134.072       17.829        0.018      333.500        2.856      860.783
04/03/2014  00:24:00     -110.902       64.745      -18.247       29.046       25.886       28.960      843.651      670.087      838.699        0.959        0.118      128.417       18.593        0.021      333.507        2.866      860.792
04/03/2014  00:25:00      -95.916      -12.184       -5.047       42.589       30.368       23.002     1813.790      922.239      529.104        0.632        0.163       96.686       17.428        0.032      333.410        2.706      860.793
04/03/2014  00:26:00      -97.710       36.432      -14.807       42.446       28.164       22.863     1801.700      793.203      522.697        0.711        0.156      104.281       12.117        0.014      333.293        2.513      860.799
04/03/2014  00:27:00     -102.002      -12.323      -14.611       36.280       38.901       20.816     1316.240     1513.320      433.307        0.702        0.163      102.744       19.446        0.036      333.199        2.358      860.807
04/03/2014  00:28:00     -113.483       -6.511       -3.230       44.709       41.141       35.677     1998.905     1692.615     1272.813        0.895        0.248      113.670       28.682        0.064      333.195        2.350      860.830
04/03/2014  00:29:00     -119.210       -6.966      -11.817       31.752       36.917       26.708     1008.196     1362.862      713.329        0.874        0.154      119.413       19.843        0.028      333.186        2.336      860.853
04/03/2014  00:30:00     -115.323      -45.089      -15.372       46.813       37.528       22.859     2191.438     1408.366      522.523        0.984        0.206      123.824       10.955        0.008      333.142        2.263      860.869
04/03/2014  00:31:00      -59.652      -47.561      -15.938       54.352       53.206       31.964     2954.161     2830.860     1021.671        0.644        0.340       76.292       23.311        0.093      333.107        2.205      860.903
04/03/2014  00:32:00      -97.133      -65.269        3.210       54.235       32.591       27.695     2941.461     1062.168      767.018        0.924        0.239      117.025       25.985        0.049      332.976        1.989      860.934
04/03/2014  00:33:00     -106.131      -49.952        4.600       48.126       39.252       28.047     2316.116     1540.725      786.627        0.921        0.232      117.299       28.715        0.060      333.182        2.330      860.945
04/03/2014  00:34:00     -115.129      -49.553       -8.614       36.379       31.028       17.141     1323.403      962.735      293.828        0.918        0.129      125.340       10.054        0.006      333.405        2.700      860.945
04/03/2014  00:35:00     -107.130      -26.997       -8.903       45.090       19.352       17.592     2033.114      374.487      309.466        0.750        0.136      110.479       20.897        0.036      333.439        2.754      860.941
04/03/2014  00:36:00     -109.965      -45.760      -13.325       37.340       28.239       20.856     1394.249      797.417      434.989        0.849        0.131      119.106       12.163        0.010      333.459        2.787      860.943
04/03/2014  00:37:00     -141.355      -31.299       -3.565       46.954       38.769       25.957     2204.660     1503.058      673.780        1.268        0.219      144.779       26.666        0.034      333.279        2.490      860.940
04/03/2014  00:38:00     -129.778      -55.915      -16.398       32.663       15.630       18.128     1066.860      244.291      328.614        1.094        0.082      141.311       10.648        0.006      333.245        2.433      860.933
04/03/2014  00:39:00     -112.470      -53.476      -16.285       34.601       19.665       19.283     1197.211      386.704      371.852        0.886        0.098      124.536       14.075        0.013      333.298        2.521      860.935
04/03/2014  00:40:00      -90.245      -10.915       -7.765       26.332       38.134       20.955      693.376     1454.178      439.096        0.545        0.129       90.902       17.429        0.037      333.212        2.378      860.938
04/03/2014  00:41:00      -70.963       -5.285      -10.340       25.669       21.030       12.418      658.875      442.262      154.205        0.321        0.063       71.159        8.682        0.015      333.265        2.465      860.934
04/03/2014  00:42:00      -80.481      -34.294      -11.415       33.166       20.113       12.689     1099.998      404.521      161.019        0.472        0.083       87.484        7.560        0.007      333.305        2.532      860.924
04/03/2014  00:43:00     -118.129      -14.980      -11.687       22.666       22.286       20.627      513.756      496.680      425.487        0.788        0.072      119.075        6.433        0.003      333.265        2.467      860.938
04/03/2014  00:44:00      -94.215      -14.327       -8.108       26.372       21.081       14.353      695.502      444.421      206.005        0.525        0.067       95.298       13.207        0.019      333.273        2.480      860.943
04/03/2014  00:45:00      -92.613      -57.046       -6.344       29.391       23.296       20.205      863.817      542.686      408.231        0.684        0.091      108.772       18.872        0.030      333.297        2.520      860.939
04/03/2014  00:46:00      -80.736      -59.356       -0.574       56.715       26.464       23.224     3216.586      700.349      539.377        0.725        0.223      100.207       27.515        0.075      333.247        2.437      860.944
04/03/2014  00:47:00      -59.962      -32.990        1.100       48.866       29.440       21.955     2387.891      866.691      482.036        0.421        0.187       68.438       24.146        0.124      333.218        2.389      860.950
04/03/2014  00:48:00     -117.006      -44.362       -8.901       31.392       20.080       13.617      985.459      403.191      185.426        0.866        0.079      125.133        5.929        0.002      333.145        2.269      860.955
04/03/2014  00:49:00     -160.623      -71.911       -9.152       31.859       36.668       20.935     1014.973     1344.553      438.292        1.693        0.140      175.986       15.090        0.007      333.074        2.151      860.962
04/03/2014  00:50:00     -146.038      -66.282      -12.163       36.783       32.438       29.930     1352.969     1052.226      895.816        1.458        0.165      160.376       25.816        0.026      332.973        1.985      860.970
04/03/2014  00:51:00     -122.474      -19.943       -9.926       37.323       23.528       15.660     1392.991      553.585      245.220        0.884        0.110      124.087       12.669        0.010      333.012        2.048      860.974
04/03/2014  00:52:00     -123.398      -54.229      -13.908       26.919       33.991       15.526      724.618     1155.360      241.055        1.024        0.106      134.788       14.788        0.012      332.957        1.958      860.994
04/03/2014  00:53:00     -161.641      -29.646      -19.011       25.399       39.416       19.540      645.110     1553.637      381.801        1.497        0.129      164.337       16.832        0.010      332.852        1.785      860.999
04/03/2014  00:54:00     -136.253      -30.935      -13.500       33.129       29.092       19.587     1097.559      846.326      383.666        1.102        0.116      139.721        9.629        0.005      332.868        1.812      861.004
04/03/2014  00:55:00     -119.512      -38.592       -8.964       20.653       18.590       17.279      426.540      345.585      298.561        0.846        0.054      125.588       11.127        0.008      332.793        1.687      861.023
04/03/2014  00:56:00      -99.646      -43.949       -6.595       30.181       32.603       19.472      910.916     1062.932      379.156        0.713        0.118      108.908       16.597        0.023      332.845        1.774      861.047
04/03/2014  00:57:00      -65.190      -77.932       -8.557       23.138       22.438       17.395      535.361      503.485      302.585        0.587        0.067      101.603       12.575        0.015      333.008        2.044      861.066
04/03/2014  00:58:00      -33.174      -50.008       11.952       23.411       18.608       19.844      548.055      346.261      393.780        0.252        0.064       60.011       16.313        0.074      333.108        2.208      861.075
04/03/2014  00:59:00      -27.844      -48.882       12.464       30.673       34.513       20.113      940.810     1191.121      404.521        0.293        0.127       56.256       15.950        0.080      333.341        2.594      861.071
04/03/2014  01:00:00        8.517      -28.684        3.929       19.775       27.398       16.588      391.050      750.644      275.161        0.116        0.071       29.922        8.051        0.072      333.414        2.714      861.061
04/03/2014  01:01:00      -16.731      -22.440        9.175       34.059       16.930       16.854     1160.012      286.626      284.068        0.130        0.087       27.991        7.495        0.072      333.356        2.618      861.070
04/03/2014  01:02:00      -42.187      -44.898        3.649       35.987       32.217       19.750     1295.063     1037.958      390.055        0.327        0.136       61.608       16.244        0.070      333.309        2.540      861.083
04/03/2014  01:03:00      -58.666      -61.662        0.242       39.566       26.126       20.166     1565.469      682.569      406.659        0.495        0.133       85.111       20.979        0.061      333.340        2.591      861.085
04/03/2014  01:04:00      -68.362      -61.480       -2.308       35.068       24.406       19.767     1229.775      595.651      390.723        0.534        0.111       91.942       16.842        0.034      333.306        2.534      861.079
04/03/2014  01:05:00      -90.895      -49.633       -4.794       32.088       23.912       12.266     1029.623      571.770      150.445        0.625        0.088      103.563        6.489        0.004      333.309        2.539      861.069
04/03/2014  01:06:00     -120.847      -65.913        0.529       28.956       27.039       18.204      838.433      731.086      331.396        1.042        0.095      137.653       12.131        0.008      333.228        2.404      861.062
04/03/2014  01:07:00      -85.977      -36.046        3.375       39.156       30.250       19.766     1533.221      915.090      390.711        0.577        0.142       93.227       20.709        0.049      333.170        2.309      861.054
04/03/2014  01:08:00     -105.474      -53.695       -2.640       37.042       28.364       18.074     1372.141      804.530      326.662        0.826        0.125      118.355       17.238        0.021      333.214        2.382      861.040
04/03/2014  01:09:00      -88.798      -40.380        7.725       45.856       19.989       19.851     2102.785      399.575      394.074        0.624        0.145       97.548       21.338        0.048      333.224        2.398      861.027
04/03/2014  01:10:00      -87.641      -23.738      -11.030       30.496       26.990       16.615      929.986      728.487      276.051        0.515        0.097       90.798       13.276        0.021      333.147        2.272      861.014
04/03/2014  01:11:00      -32.403       -8.532       -0.318       23.882       21.785       12.109      570.350      474.584      146.625        0.116        0.060       33.507       10.475        0.098      333.026        2.072      861.002
04/03/2014  01:12:00      -31.467      -27.843        0.684       23.251       18.935       13.698      540.593      358.528      187.640        0.143        0.054       42.017       11.671        0.077      333.041        2.097      860.993
04/03/2014  01:13:00       -5.809       -4.305        9.315       11.931       16.236       10.400      142.355      263.598      108.156        0.033        0.026        7.231        4.942        0.467      332.978        1.991      860.984
04/03/2014  01:14:00      -19.899        6.161       -0.680       24.508       12.573       18.184      600.640      158.085      330.665        0.076        0.054       20.831       16.090        0.597      332.882        1.835      860.969
04/03/2014  01:15:00      -21.655        2.540        4.406       22.549       12.352        9.846      508.469      152.570       96.946        0.063        0.038       21.803        8.203        0.142      332.922        1.900      860.956
04/03/2014  01:16:00      -86.440       22.388       -4.161       14.773       11.460       10.241      218.232      131.324      104.872        0.422        0.023       89.293        6.840        0.006      332.946        1.937      860.941
04/03/2014  01:17:00      -62.919       18.381       -5.563       26.589       18.697       11.866      706.968      349.580      140.806        0.276        0.060       65.549       11.607        0.031      332.930        1.915      860.936
04/03/2014  01:18:00      -54.777       21.633       -5.989       20.530       14.701       12.933      421.469      216.121      167.267        0.215        0.040       58.894        9.086        0.024      332.895        1.857      860.924
04/03/2014  01:19:00      -49.041       14.789       -3.995       25.386       17.023       11.859      644.435      289.779      140.646        0.186        0.054       51.222       10.371        0.041      332.803        1.704      860.913
04/03/2014  01:20:00      -44.106      -21.755       -9.231       21.793       15.641        8.591      474.940      244.645       73.806        0.165        0.040       49.179        3.739        0.006      332.864        1.806      860.900
04/03/2014  01:21:00      -35.209      -32.532       -7.686       27.195       15.448       12.176      739.563      238.640      148.264        0.174        0.056       47.937        6.954        0.021      332.897        1.861      860.894
04/03/2014  01:22:00       11.087      -34.854       10.032       27.865       17.038       14.286      776.436      290.279      204.099        0.135        0.064       36.575       13.792        0.142      332.801        1.702      860.904
04/03/2014  01:23:00       -1.398      -12.473       -0.568       12.980       11.692        7.393      168.477      136.700       54.660        0.026        0.018       12.551        4.697        0.140      332.784        1.673      860.900
04/03/2014  01:24:00      -17.133       13.152       -3.910        7.718        9.970        4.842       59.571       99.411       23.447        0.033        0.009       21.599        4.094        0.036      332.813        1.721      860.910
04/03/2014  01:25:00      -28.117       -9.089        0.566       10.168       11.010        8.671      103.395      121.210       75.184        0.059        0.015       29.549        5.309        0.032      332.872        1.818      860.913
04/03/2014  01:26:00      -13.513       -3.404        5.141       11.530       14.220        8.087      132.947      202.195       65.395        0.031        0.020       13.935        9.352        0.450      332.953        1.950      860.911
04/03/2014  01:27:00      -26.796       24.419        0.996       10.456       10.679        8.741      109.331      114.042       76.413        0.081        0.015       36.253        4.020        0.012      332.827        1.744      860.911
04/03/2014  01:28:00      -19.941       15.288       -3.220       19.409       13.947       10.732      376.704      194.524      115.185        0.066        0.034       25.127        9.216        0.135      332.775        1.658      860.905
04/03/2014  01:29:00       -7.455       10.955       -1.198       14.013       12.520        5.925      196.359      156.749       35.110        0.028        0.019       13.251        7.791        0.346      332.705        1.541      860.898
04/03/2014  01:30:00      -31.303        4.710       -6.241       15.052       11.450        6.956      226.564      131.109       48.387        0.072        0.020       31.656        6.533        0.043      332.727        1.577      860.890
04/03/2014  01:31:00      -32.499      -11.987       -6.929       13.186        9.755        9.584      173.875       95.160       91.851        0.080        0.018       34.640        4.400        0.016      332.868        1.813      860.890
04/03/2014  01:32:00      -26.157       -4.112        2.265       13.970       12.372        7.487      195.157      153.077       56.053        0.056        0.020       26.478        6.243        0.056      332.916        1.891      860.895
04/03/2014  01:33:00      -90.159       10.558       -8.558       20.090       12.126       12.568      403.594      147.044      157.953        0.451        0.035       90.775       10.602        0.014      332.826        1.742      860.895
04/03/2014  01:34:00      -83.815       -2.176       -9.010       25.779       18.736       15.771      664.555      351.035      248.732        0.419        0.063       83.843        9.994        0.014      332.675        1.491      860.906
04/03/2014  01:35:00      -90.276       -6.933      -12.182       31.914       22.504       16.389     1018.511      506.451      268.606        0.507        0.090       90.542       16.364        0.033      332.678        1.496      860.913
04/03/2014  01:36:00     -125.821      -30.866        0.754       42.631       35.062       23.010     1817.368     1229.377      529.450        1.018        0.179      129.552       19.585        0.023      332.494        1.191      860.919
04/03/2014  01:37:00     -122.825      -13.998       -6.539       37.021       46.175       19.327     1370.583     2132.117      373.543        0.960        0.194      123.620       15.985        0.017      332.456        1.129      860.931
04/03/2014  01:38:00     -121.496      -39.623       -0.954       44.990       41.569       22.466     2024.102     1727.965      504.713        1.029        0.213      127.794       17.559        0.019      332.461        1.138      860.936
04/03/2014  01:39:00     -118.836      -55.692        0.715       40.187       27.206       21.400     1615.009      740.184      457.977        1.002        0.141      131.239       21.280        0.026      332.513        1.224      860.947
04/03/2014  01:40:00     -123.896      -49.497       -3.915       27.605       22.806       15.110      762.015      520.100      228.311        0.966        0.076      133.418       15.968        0.014      332.478        1.166      860.952
04/03/2014  01:41:00     -137.143      -48.274       -5.963       33.024       29.632       22.073     1090.591      878.046      487.196        1.181        0.123      145.391       18.118        0.016      332.571        1.319      860.946
04/03/2014  01:42:00     -104.359      -56.140       -3.389       36.270       32.560       19.066     1315.497     1060.134      363.496        0.840        0.137      118.501       17.858        0.023      332.673        1.488      860.948
04/03/2014  01:43:00     -110.283      -46.426        6.067       45.372       38.369       22.613     2058.578     1472.172      511.356        0.920        0.202      119.656       18.719        0.024      332.636        1.429      860.960
04/03/2014  01:44:00     -122.408      -45.247       -0.768       47.708       31.902       20.953     2276.073     1017.724      439.048        1.038        0.187      130.503       23.247        0.032      332.622        1.404      860.958
04/03/2014  01:45:00     -155.949      -21.908       -9.926       31.768       33.113       19.801     1009.199     1096.469      392.069        1.370        0.125      157.481       16.342        0.011      332.582        1.337      860.961
04/03/2014  01:46:00     -144.940      -32.653       -3.968       41.245       36.344       23.874     1701.155     1320.913      569.967        1.284        0.180      148.573       22.550        0.023      332.497        1.198      860.946
04/03/2014  01:47:00     -151.833      -62.372       -5.421       30.561       28.326       21.302      933.977      802.367      453.766        1.458        0.110      164.145       15.847        0.009      332.481        1.170      860.939
04/03/2014  01:48:00     -123.465      -48.015       -4.608       40.447       28.285       18.892     1635.966      800.069      356.890        1.018        0.140      132.473       14.162        0.011      332.524        1.241      860.914
04/03/2014  01:49:00      -90.900      -15.931       -1.073       52.922       30.193       22.181     2800.790      911.617      491.983        0.636        0.210       92.285       23.724        0.066      332.483        1.175      860.900
04/03/2014  01:50:00     -121.568      -12.458       -8.885       42.097       30.175       21.855     1772.150      910.554      477.620        0.909        0.158      122.205       16.900        0.019      332.412        1.057      860.898
04/03/2014  01:51:00     -110.503       -4.186       -6.546       36.852       33.174       16.104     1358.047     1100.535      259.329        0.749        0.136      110.582       17.663        0.026      332.472        1.157      860.879
04/03/2014  01:52:00     -128.296        2.261      -16.053       32.295       22.960       17.426     1042.996      527.177      303.671        0.930        0.094      128.316        9.651        0.006      332.546        1.279      860.866
04/03/2014  01:53:00     -105.743        9.745      -10.750       48.091       26.899       21.562     2312.720      723.555      464.929        0.745        0.175      106.191       21.859        0.042      332.560        1.301      860.860
04/03/2014  01:54:00     -128.425        8.462      -14.155       41.982       28.074       20.584     1762.517      788.153      423.696        0.987        0.149      128.704       19.806        0.024      332.561        1.303      860.856
04/03/2014  01:55:00     -182.129       56.811      -18.315       62.586       38.640       29.960     3916.990     1493.060      897.599        2.152        0.315      190.784       26.408        0.019      332.463        1.140      860.854
04/03/2014  01:56:00     -200.796       56.301      -23.852       60.175       34.226       23.578     3621.003     1171.438      555.919        2.470        0.267      208.539       18.069        0.008      332.501        1.202      860.857
04/03/2014  01:57:00     -176.009       -5.650      -15.337       48.960       46.575       24.866     2397.081     2169.195      618.312        1.821        0.259      176.099       24.449        0.019      332.489        1.182      860.852
04/03/2014  01:58:00     -167.090       11.549      -23.632       49.463       41.524       33.155     2446.612     1724.240     1099.263        1.694        0.264      167.488       20.504        0.015      332.412        1.056      860.853
04/03/2014  01:59:00     -215.252       83.889      -18.833       62.007       35.272       34.084     3844.863     1244.139     1161.737        2.999        0.313      231.021       29.872        0.017      332.314        0.892      860.872
04/03/2014  02:00:00     -173.830       60.827      -20.406       44.385       38.378       27.867     1970.000     1472.888      776.587        1.928        0.211      184.165       25.353        0.019      332.355        0.962      860.870
04/03/2014  02:01:00     -127.597       28.378      -11.289       45.270       35.926       24.001     2049.406     1290.706      576.071        1.056        0.196      130.714       18.976        0.021      332.317        0.900      860.865
04/03/2014  02:02:00     -111.338      -11.270      -18.677       45.077       46.065       26.817     2031.915     2121.974      719.176        0.887        0.244      111.907       14.377        0.017      332.354        0.961      860.871
04/03/2014  02:03:00     -142.204      -48.386      -22.438       42.207       34.981       24.396     1781.459     1223.655      595.162        1.333        0.180      150.210       18.409        0.015      332.294        0.863      860.870
04/03/2014  02:04:00      -80.272      -41.521       -5.294       61.776       39.647       27.685     3816.244     1571.898      766.465        0.717        0.308       90.375       21.661        0.057      332.231        0.761      860.873
04/03/2014  02:05:00      -85.131      -40.838       -5.846       53.057       52.299       31.553     2815.070     2735.176      995.570        0.775        0.327       94.420       38.919        0.170      332.348        0.952      860.883
04/03/2014  02:06:00      -91.594      -13.231      -16.004       27.358       21.281       15.510      748.473      452.888      240.549        0.513        0.072       92.545       11.973        0.017      332.437        1.098      860.886
04/03/2014  02:07:00      -86.813      -45.140       -6.171       44.697       36.730       24.657     1997.820     1349.098      607.991        0.678        0.198       97.847       18.620        0.036      332.325        0.915      860.899
04/03/2014  02:08:00     -132.290      -55.711      -10.073       46.320       42.149       22.098     2145.579     1776.538      488.304        1.256        0.221      143.542       23.147        0.026      332.209        0.723      860.920
04/03/2014  02:09:00      -95.668      -49.272        3.057       39.809       29.437       18.607     1584.744      866.516      346.225        0.719        0.140      107.610       18.015        0.028      332.310        0.890      860.920
04/03/2014  02:10:00     -108.360      -35.959       -5.164       28.743       29.214       17.035      826.168      853.485      290.180        0.752        0.098      114.171       11.148        0.010      332.449        1.118      860.921
04/03/2014  02:11:00      -80.436      -41.041        1.596       37.016       22.767       18.419     1370.161      518.344      339.244        0.519        0.111       90.302       21.528        0.057      332.565        1.311      860.910
04/03/2014  02:12:00      -24.067      -26.959        1.609       25.698       21.948       17.312      660.399      481.733      299.700        0.137        0.072       36.139       17.190        0.226      332.875        1.823      860.895
04/03/2014  02:13:00      -70.607      -21.053      -11.377       23.282       14.568       10.226      542.057      212.239      104.562        0.321        0.043       73.679       10.909        0.022      332.743        1.603      860.891
04/03/2014  02:14:00      -99.055      -42.693       -3.718       19.871       15.844       11.638      394.860      251.029      135.443        0.621        0.039      107.864        8.755        0.007      332.704        1.539      860.881
04/03/2014  02:15:00      -46.185      -29.406        8.306       36.134       18.711       17.740     1305.687      350.091      314.721        0.252        0.099       54.752       21.833        0.159      332.674        1.490      860.888
04/03/2014  02:16:00      -27.502      -20.519        6.503       30.809       22.147       15.631      949.185      490.499      244.331        0.145        0.084       34.313       17.617        0.264      332.667        1.479      860.887
04/03/2014  02:17:00      -45.616      -43.186        0.769       29.158       27.415       16.668      850.170      751.580      277.827        0.291        0.094       62.816       13.325        0.045      332.650        1.451      860.880
04/03/2014  02:18:00      -43.353      -14.460       -1.154       20.671       22.863       13.424      427.283      522.736      180.200        0.161        0.057       45.701        9.783        0.046      332.614        1.391      860.871
04/03/2014  02:19:00      -20.761      -17.102        7.710       31.464       15.958        9.657      989.954      254.643       93.250        0.106        0.067       26.898        6.511        0.059      332.724        1.573      860.870
04/03/2014  02:20:00      -58.076      -19.013       -1.290       28.573       15.103        9.715      816.395      228.108       94.374        0.244        0.057       61.109        9.841        0.026      332.736        1.593      860.864
04/03/2014  02:21:00      -61.881      -30.788       -2.004       15.824       13.978       12.528      250.405      195.387      156.943        0.269        0.030       69.117        7.230        0.011      332.665        1.476      860.842
04/03/2014  02:22:00      -75.884      -25.976       -5.543       19.956       19.150       12.336      398.233      366.733      152.177        0.369        0.046       80.207       10.256        0.016      332.709        1.548      860.820
04/03/2014  02:23:00      -59.978      -25.745       -4.805        9.531       12.428        7.197       90.842      154.453       51.792        0.229        0.015       65.270        1.220        0.000      332.730        1.585      860.809
04/03/2014  02:24:00      -51.801      -23.994       -1.965       16.651        9.168        8.781      277.243       84.060       77.099        0.185        0.022       57.088        8.837        0.024      332.755        1.624      860.817
04/03/2014  02:25:00      -41.118      -21.737        5.064       22.903       14.227       10.508      524.526      202.411      110.427        0.151        0.042       46.510       12.463        0.072      332.765        1.640      860.809
04/03/2014  02:26:00      -66.664      -24.715       -2.795       14.132       15.881       12.343      199.706      252.210      152.339        0.283        0.030       71.098        6.334        0.008      332.688        1.513      860.812
04/03/2014  02:27:00      -71.207      -21.596       -4.870        9.306       10.032        6.304       86.610      100.638       39.744        0.289        0.011       74.410        3.507        0.002      332.675        1.490      860.814
04/03/2014  02:28:00      -57.007      -13.497       -0.781       13.937       16.210        9.529      194.245      262.754       90.797        0.199        0.027       58.583        6.010        0.011      332.665        1.476      860.815
04/03/2014  02:29:00      -67.361        1.044       -2.965       23.714       12.234       13.036      562.356      149.683      169.931        0.271        0.044       67.369       12.890        0.037      332.569        1.318      860.815
04/03/2014  02:30:00      -71.264       -0.523       -2.739       22.964       16.278       12.625      527.355      264.966      159.395        0.302        0.048       71.266       12.101        0.029      332.496        1.197      860.807
04/03/2014  02:31:00      -58.954       -5.353       -0.305       29.275       16.094       16.222      857.042      259.028      263.162        0.244        0.069       59.196       17.931        0.092      332.467        1.149      860.796
04/03/2014  02:32:00      -50.416      -12.538       -2.254       26.227       19.765       11.535      687.874      390.669      133.060        0.196        0.061       51.951       11.838        0.052      332.515        1.228      860.790
04/03/2014  02:33:00      -36.506      -25.300        7.112       23.137       20.366       14.260      535.321      414.782      203.352        0.159        0.058       44.416       10.393        0.055      332.489        1.185      860.774
04/03/2014  02:34:00      -54.965      -38.872        1.822       28.590       26.188       16.913      817.398      685.837      286.040        0.316        0.089       67.322       14.881        0.049      332.513        1.224      860.769
04/03/2014  02:35:00      -60.236      -44.847        0.699       27.669       30.674       14.508      765.552      940.869      210.473        0.378        0.096       75.097       11.810        0.025      332.463        1.143      860.759
04/03/2014  02:36:00      -57.917      -36.398       -1.980       17.175       20.044       10.368      294.993      401.759      107.493        0.274        0.040       68.404        5.347        0.006      332.396        1.030      860.765
04/03/2014  02:37:00      -80.688      -28.074       -5.530       19.509       21.620       11.947      380.591      467.405      142.730        0.416        0.050       85.433       10.490        0.015      332.321        0.907      860.771
04/03/2014  02:38:00      -69.343      -18.980       -0.963       27.963       21.093       13.866      781.924      444.917      192.264        0.329        0.071       71.894       11.119        0.024      332.303        0.877      860.774
04/03/2014  02:39:00      -80.462      -22.927       -5.457       25.719       24.404       14.599      661.442      595.556      213.136        0.425        0.074       83.665       11.027        0.017      332.342        0.943      860.782
04/03/2014  02:40:00      -85.275      -28.877       -1.695       29.593       21.983       15.810      875.767      483.272      249.960        0.486        0.080       90.032       14.075        0.024      332.279        0.838      860.783
04/03/2014  02:41:00     -107.474      -18.668       -5.623       31.505       24.865       15.885      992.561      618.246      252.318        0.690        0.093      109.083       10.644        0.010      332.225        0.750      860.781
04/03/2014  02:42:00      -99.546      -22.385       -3.023       28.571       26.900       20.323      816.321      723.627      413.012        0.619        0.098      102.032       16.999        0.028      332.176        0.670      860.775
04/03/2014  02:43:00      -74.670      -34.779       -3.423       43.513       31.221       18.400     1893.345      974.737      338.560        0.500        0.160       82.373       18.073        0.048      332.178        0.672      860.776
04/03/2014  02:44:00      -85.978      -19.264        4.997       34.737       26.002       16.769     1206.679      676.104      281.192        0.498        0.108       88.110       12.597        0.020      332.111        0.560      860.780
04/03/2014  02:45:00     -110.319      -46.127        1.281       31.342       19.915       14.052      982.346      396.589      197.450        0.794        0.079      119.574       12.769        0.011      332.188        0.691      860.785
04/03/2014  02:46:00     -138.310      -48.825       -3.864       28.127       33.305       17.934      791.139     1109.192      321.645        1.187        0.111      146.675       14.952        0.010      332.270        0.825      860.789
04/03/2014  02:47:00     -123.736      -42.515       -1.011       48.622       38.775       23.960     2364.092     1503.536      574.104        1.078        0.222      130.837       20.963        0.026      332.291        0.859      860.790
04/03/2014  02:48:00     -106.832      -55.787       -3.029       43.565       41.676       22.113     1897.924     1736.864      488.985        0.933        0.206      120.521       22.775        0.036      332.309        0.889      860.796
04/03/2014  02:49:00      -94.428      -44.741       -0.230       43.147       53.763       23.366     1861.628     2890.465      545.977        0.811        0.265      104.491       22.861        0.048      332.288        0.854      860.802
04/03/2014  02:50:00     -105.638      -56.326        7.130       54.735       44.560       26.826     2995.916     1985.556      719.643        1.004        0.285      119.716       27.872        0.054      332.288        0.853      860.800
04/03/2014  02:51:00     -119.702      -37.102       -3.896       31.057       23.817       17.036      964.520      567.235      290.222        0.877        0.091      125.320       13.496        0.012      332.350        0.955      860.797
04/03/2014  02:52:00     -114.623      -23.500       -8.553       21.860       29.686       15.201      477.867      881.239      231.065        0.768        0.080      117.008       12.580        0.012      332.283        0.844      860.788
04/03/2014  02:53:00      -94.986      -16.487       -4.108       34.077       17.467       17.594     1161.222      305.085      309.556        0.554        0.089       96.406       18.170        0.036      332.231        0.759      860.784
04/03/2014  02:54:00      -94.612      -22.287        0.314       44.842       32.838       24.141     2010.770     1078.327      582.801        0.656        0.184       97.202       25.609        0.069      332.094        0.534      860.780
04/03/2014  02:55:00     -100.437      -24.337       -4.064       35.644       29.901       21.265     1270.509      894.049      452.210        0.666        0.131      103.344       18.946        0.034      332.054        0.466      860.783
04/03/2014  02:56:00     -127.577      -25.293       -9.393       46.061       29.986       22.183     2121.610      899.134      492.084        1.026        0.176      130.060       23.582        0.033      332.012        0.398      860.786
04/03/2014  02:57:00     -102.663      -57.253       -3.758       29.742       24.217       20.935      884.595      586.453      438.294        0.787        0.095      117.548       10.519        0.008      332.071        0.496      860.792
04/03/2014  02:58:00      -31.357      -11.201       12.470       41.195       18.875       22.085     1697.025      356.273      487.739        0.190        0.127       33.298       22.950        0.475      332.128        0.591      860.808
04/03/2014  02:59:00     -111.587      -18.046      -12.426       41.501       28.780       17.044     1722.304      828.290      290.504        0.789        0.142      113.037       16.107        0.020      332.031        0.430      860.814
04/03/2014  03:00:00     -120.342      -17.678       -1.950       55.940       29.667       23.683     3129.256      880.112      560.887        0.968        0.229      121.633       31.115        0.065      331.953        0.301      860.827
04/03/2014  03:01:00     -102.566      -28.213       -8.803       42.944       20.656       16.874     1844.213      426.653      284.724        0.697        0.128      106.376       20.928        0.039      331.946        0.289      860.831
04/03/2014  03:02:00     -123.485      -11.842       -9.314       43.923       30.419       22.299     1929.195      925.294      497.235        0.941        0.168      124.052       22.967        0.034      331.945        0.287      860.833
04/03/2014  03:03:00     -106.666      -13.477       -5.740       43.682       27.756       24.053     1908.074      770.380      578.532        0.742        0.163      107.514       25.853        0.058      331.828        0.095      860.837
04/03/2014  03:04:00     -114.500       10.046       -5.040       39.268       24.652       24.262     1542.002      607.704      588.627        0.799        0.137      114.940       24.466        0.045      331.829        0.097      860.831
04/03/2014  03:05:00     -159.957       30.691      -13.637       47.099       34.664       20.519     2218.318     1201.576      421.033        1.528        0.192      162.874       15.623        0.009      331.850        0.130      860.811
04/03/2014  03:06:00     -132.151       36.556      -15.900       41.116       35.038       24.572     1690.562     1227.665      603.759        1.129        0.176      137.114       14.188        0.011      331.872        0.168      860.789
04/03/2014  03:07:00     -144.380      -18.322      -11.159       49.056       45.869       24.722     2406.477     2103.935      611.187        1.321        0.256      145.538       23.153        0.025      331.906        0.223      860.774
04/03/2014  03:08:00     -124.438        0.271       -8.628       35.500       46.779       26.669     1260.251     2188.310      711.262        0.986        0.208      124.438       18.733        0.023      331.865        0.155      860.760
04/03/2014  03:09:00     -118.686       -8.060      -17.485       33.648       39.730       20.596     1132.197     1578.457      424.183        0.880        0.157      118.960       11.362        0.009      331.852        0.133      860.763
04/03/2014  03:10:00     -118.695       11.933      -18.257       42.582       44.362       23.249     1813.197     1968.012      540.528        0.944        0.216      119.293       14.562        0.015      331.853        0.136      860.766
04/03/2014  03:11:00     -120.054        8.296       -7.354       37.015       36.861       18.271     1370.088     1358.752      333.818        0.880        0.153      120.340       17.317        0.021      331.797        0.043      860.756
04/03/2014  03:12:00      -82.917       20.471       -7.583       35.542       32.886       18.823     1263.218     1081.511      354.298        0.502        0.135       85.406       16.559        0.038      331.836        0.107      860.746
04/03/2014  03:13:00      -66.057       -2.094       -9.674       21.755       32.241       17.864      473.265     1039.459      319.113        0.315        0.092       66.090       10.985        0.028      331.901        0.216      860.743
04/03/2014  03:14:00      -82.269       15.733       -5.237       30.860       25.628       20.231      952.370      656.796      409.273        0.453        0.101       83.760       14.191        0.029      331.896        0.206      860.753
04/03/2014  03:15:00      -67.879      -32.905       -7.498       18.603       19.529       11.321      346.060      381.400      128.164        0.330        0.043       75.434        9.530        0.016      331.902        0.217      860.749
04/03/2014  03:16:00       -4.479      -16.762        3.676       21.935       23.533       10.953      481.162      553.818      119.963        0.073        0.058       17.350        5.915        0.116      331.979        0.344      860.737
04/03/2014  03:17:00      -30.146       -8.907        4.048       27.296       32.352       17.590      745.069     1046.623      309.394        0.155        0.105       31.434       17.141        0.297      331.927        0.258      860.741
04/03/2014  03:18:00      -27.447      -18.141        6.355       36.770       32.116       20.805     1352.000     1031.453      432.852        0.197        0.141       32.900        5.177        0.025      331.825        0.090      860.737
04/03/2014  03:19:00        4.603       -4.150        5.742       15.887        9.737       14.788      252.402       94.810      218.695        0.032        0.028        6.198        6.891        1.236      331.856        0.139      860.735
04/03/2014  03:20:00      -61.005       -8.046       -1.528       38.713       28.955       17.830     1498.702      838.380      317.896        0.322        0.133       61.533       13.344        0.047      331.847        0.126      860.735
04/03/2014  03:21:00      -51.466       -8.612        2.779       48.401       30.272       22.323     2342.666      916.423      498.301        0.324        0.188       52.182       26.102        0.250      331.851        0.133      860.737
04/03/2014  03:22:00     -104.291      -41.485       -3.731       43.487       40.556       19.083     1891.093     1644.822      364.152        0.825        0.195      112.239       19.480        0.030      331.875        0.173      860.748
04/03/2014  03:23:00      -91.349       -9.992        2.336       48.626       33.591       28.871     2364.456     1128.369      833.517        0.639        0.216       91.893       28.260        0.095      331.869        0.162      860.759
04/03/2014  03:24:00     -120.905       10.377       -8.155       38.603       35.771       25.626     1490.174     1279.585      656.677        0.911        0.171      121.350       17.066        0.020      331.906        0.223      860.759
04/03/2014  03:25:00     -103.528       11.053       -4.631       43.692       36.868       21.842     1908.970     1359.272      477.090        0.730        0.187      104.116        9.022        0.008      331.882        0.183      860.753
04/03/2014  03:26:00      -77.866        3.715       -4.337       25.853       28.712       20.584      668.376      824.402      423.708        0.401        0.096       77.954       11.333        0.021      331.826        0.092      860.750
04/03/2014  03:27:00      -69.399       47.016       -4.234       16.929       32.947       19.742      286.603     1085.516      389.739        0.440        0.088       83.825       14.132        0.028      331.898        0.210      860.755
04/03/2014  03:28:00        3.654      -20.197       -5.595       19.873       19.592       15.903      394.918      383.862      252.906        0.074        0.052       20.525       11.580        0.318      331.917        0.242      860.763
04/03/2014  03:29:00        4.032       23.643       -2.098        9.431        9.738        8.173       88.950       94.821       66.804        0.042        0.013       23.984        7.213        0.090      332.019        0.409      860.778
04/03/2014  03:30:00       -0.615       11.360        4.961       10.513       17.223        7.796      110.534      296.629       60.772        0.031        0.023       11.377        6.158        0.293      331.949        0.294      860.788
04/03/2014  03:31:00      -38.191       -2.615       -6.257       21.254       17.766       12.926      451.714      315.621      167.093        0.122        0.047       38.280        9.910        0.067      331.992        0.365      860.797
04/03/2014  03:32:00      -69.207        9.306       -4.082       16.029       19.041       11.821      256.916      362.564      139.741        0.283        0.038       69.830        7.413        0.011      331.999        0.377      860.804
04/03/2014  03:33:00      -68.975        7.843      -12.979       13.628       12.987       11.011      185.726      168.651      121.237        0.273        0.024       69.419        6.036        0.008      331.918        0.242      860.803
04/03/2014  03:34:00      -33.214       -1.682       -4.052       22.689       10.768       11.296      514.808      115.948      127.608        0.094        0.038       33.257       11.687        0.123      331.946        0.288      860.815
04/03/2014  03:35:00       13.676       57.703       -7.953       21.204       19.888       13.212      449.614      395.538      174.556        0.230        0.051       59.302        8.146        0.019      332.114        0.566      860.809
04/03/2014  03:36:00       19.085       42.612       -6.580       14.968       14.249        9.357      224.041      203.024       87.553        0.137        0.026       46.690        6.267        0.018      331.963        0.318      860.796
04/03/2014  03:37:00        5.311       42.633       -4.267       13.785       21.536       13.394      190.026      463.815      179.397        0.135        0.042       42.963       15.287        0.127      331.895        0.203      860.794
04/03/2014  03:38:00      -99.906      -33.927       -9.903       23.260       26.498       11.529      541.045      702.139      132.906        0.630        0.069      105.510        5.688        0.003      331.834        0.106      860.792
04/03/2014  03:39:00      -58.563      -24.404       -2.298       30.030       23.506       13.991      901.815      552.542      195.739        0.284        0.083       63.444       11.626        0.034      331.801        0.051      860.788
04/03/2014  03:40:00      -13.524       41.635       -8.801       29.958       27.061       15.483      897.492      732.284      239.725        0.193        0.093       43.776       13.648        0.097      332.039        0.443      860.782
04/03/2014  03:41:00       37.733       40.170        6.316       21.383       23.087       17.067      457.215      533.018      291.284        0.218        0.064       55.112       12.728        0.053      332.152        0.628      860.767
04/03/2014  03:42:00       18.605       46.053       -2.126       23.248       25.720       17.323      540.467      661.517      300.084        0.199        0.075       49.670       18.694        0.142      332.185        0.683      860.772
04/03/2014  03:43:00        3.783       60.800       -9.090       10.092       14.065        6.882      101.844      197.838       47.360        0.207        0.017       60.918        6.921        0.013      332.283        0.844      860.766
04/03/2014  03:44:00      -50.755        0.867       -9.435       30.761       37.056       12.912      946.230     1373.122      166.731        0.258        0.124       50.762       10.049        0.039      332.136        0.602      860.757
04/03/2014  03:45:00      -57.968      -12.746       -3.370       15.083       15.356       10.752      227.509      235.793      115.612        0.206        0.029       59.353        9.557        0.026      331.928        0.259      860.752
04/03/2014  03:46:00      -38.065      -16.810       -5.853       15.147       15.194       13.192      229.442      230.856      174.023        0.120        0.032       41.611        9.918        0.057      331.937        0.275      860.739
04/03/2014  03:47:00      -30.930       -3.396       -2.492       11.437        8.222        6.561      130.799       67.609       43.045        0.061        0.012       31.116        4.706        0.023      331.865        0.156      860.727
04/03/2014  03:48:00      -19.456       -3.293       -8.329       12.042        6.166        6.472      145.010       38.020       41.882        0.034        0.011       19.733        6.592        0.112      331.967        0.322      860.719
04/03/2014  03:49:00       -0.456        6.901       -3.510        6.567        6.915        3.479       43.129       47.815       12.101        0.008        0.005        6.916        3.826        0.306      332.138        0.605      860.722
04/03/2014  03:50:00       -1.691       16.489        1.214        6.895        7.229        7.096       47.546       52.265       50.352        0.021        0.008       16.576        3.710        0.050      332.218        0.737      860.725
04/03/2014  03:51:00        0.499       18.111       20.194        7.177       11.935        7.570       51.509      142.440       57.304        0.049        0.013       18.118        3.491        0.037      332.243        0.778      860.730
04/03/2014  03:52:00       -5.622       -3.825       10.843        6.176        7.345        8.342       38.146       53.946       69.584        0.016        0.008        6.800        6.115        0.809      332.231        0.760      860.733
04/03/2014  03:53:00      -25.425       -9.413        1.197       15.983       10.167        9.783      255.451      103.365       95.707        0.060        0.023       27.111        9.511        0.123      332.142        0.611      860.741
04/03/2014  03:54:00      -62.170      -24.229       -6.196        9.225        7.299        7.759       85.096       53.281       60.206        0.234        0.010       66.725        3.358        0.003      331.972        0.331      860.753
04/03/2014  03:55:00      -38.103      -30.495       -0.521       17.176       10.372        9.645      295.027      107.582       93.027        0.144        0.025       48.803        3.829        0.006      332.003        0.383      860.755
04/03/2014  03:56:00      -54.409      -17.266       -5.822        7.608       13.032        5.998       57.876      169.837       35.980        0.178        0.013       57.082        5.634        0.010      332.009        0.396      860.762
04/03/2014  03:57:00      -58.372       -6.759       -4.248        7.782       13.259       11.211       60.559      175.789      125.682        0.192        0.018       58.762        7.269        0.015      331.942        0.282      860.754
04/03/2014  03:58:00      -53.970        1.012      -12.284        9.083       13.736        9.757       82.506      188.675       95.202        0.172        0.018       53.980        9.237        0.029      331.929        0.261      860.742
04/03/2014  03:59:00      -49.528        8.360       -3.124       10.444        9.085        7.619      109.082       82.535       58.052        0.139        0.012       50.228        4.721        0.009      331.950        0.296      860.727
04/03/2014  04:00:00      -52.301       -1.197       -7.626       13.320       10.823        8.980      177.421      117.135       80.634        0.159        0.019       52.315        5.434        0.011      331.958        0.309      860.714
04/03/2014  04:01:00      -65.821        5.655       -7.462       13.250        8.549        9.795      175.575       73.082       95.939        0.238        0.017       66.063        7.906        0.014      331.883        0.185      860.702
04/03/2014  04:02:00      -42.619        8.222       -5.517       13.716        8.440        6.786      188.120       71.242       46.054        0.111        0.015       43.405        2.102        0.002      331.921        0.247      860.683
04/03/2014  04:03:00      -22.911       -0.584       -3.858       11.818       19.249        7.258      139.659      370.508       52.672        0.055        0.028       22.919        5.801        0.064      331.968        0.325      860.677
04/03/2014  04:04:00      -24.199        3.503       -6.734        8.836        9.169        6.498       78.081       84.073       42.224        0.042        0.010       24.452        4.403        0.032      332.066        0.487      860.679
04/03/2014  04:05:00      -19.483        3.346       -1.971       13.037        8.162        4.937      169.951       66.619       24.372        0.033        0.013       19.768        3.942        0.040      332.137        0.603      860.680
04/03/2014  04:06:00        5.517        5.556        8.753        9.527        9.060       12.430       90.755       82.081      154.507        0.023        0.016        7.830        6.410        0.670      332.173        0.664      860.684
04/03/2014  04:07:00       12.623       20.509       -1.132       10.422        9.242        6.972      108.615       85.417       48.604        0.041        0.012       24.083        2.969        0.015      332.216        0.734      860.687
04/03/2014  04:08:00       14.220       28.999       -4.768       12.504        9.881       13.645      156.350       97.638      186.177        0.075        0.022       32.298        5.513        0.029      332.231        0.761      860.690
04/03/2014  04:09:00       43.070       31.400       21.269       15.239        8.637       15.172      232.223       74.592      230.197        0.192        0.027       53.301       11.083        0.043      332.179        0.674      860.695
04/03/2014  04:10:00       42.404       33.586       23.087       21.409       14.337       18.920      458.345      205.558      357.973        0.224        0.051       54.094       11.225        0.043      332.140        0.609      860.698
04/03/2014  04:11:00       39.516       39.932       27.269       23.427       14.319       21.240      548.808      205.036      451.151        0.255        0.060       56.179       13.459        0.057      332.189        0.690      860.696
04/03/2014  04:12:00       19.217       23.785       27.848       18.339       16.420       14.785      336.301      269.633      218.596        0.127        0.041       30.578        2.668        0.008      332.164        0.649      860.698
04/03/2014  04:13:00       21.329       22.243       14.205       20.421       14.758       16.218      417.033      217.795      263.033        0.102        0.045       30.817       14.621        0.225      332.151        0.630      860.697
04/03/2014  04:14:00       -4.230        8.497       10.253       19.571       10.627       10.727      383.007      112.942      115.065        0.040        0.031        9.491       12.826        1.826      332.127        0.588      860.698
04/03/2014  04:15:00      -30.819      -11.009        1.593       13.312       11.299        8.073      177.221      127.659       65.171        0.072        0.019       32.726        4.635        0.020      332.016        0.405      860.700
04/03/2014  04:16:00      -25.569       -0.251       -8.770        8.428        6.645        6.995       71.037       44.153       48.927        0.045        0.008       25.570        5.135        0.040      331.985        0.353      860.708
04/03/2014  04:17:00       -8.658        0.829       -9.177        5.582        5.157        4.489       31.164       26.597       20.150        0.012        0.004        8.697        2.301        0.070      332.058        0.475      860.709
04/03/2014  04:18:00       18.736       20.853        5.990       15.065       17.272       10.723      226.967      298.339      114.993        0.073        0.032       28.034        7.698        0.075      332.201        0.709      860.710
04/03/2014  04:19:00       51.038       37.957       22.349       14.550       11.592       12.769      211.703      134.375      163.059        0.253        0.025       63.606        8.106        0.016      332.204        0.715      860.706
04/03/2014  04:20:00       39.567       40.599       32.847       17.788       15.847       14.587      316.411      251.127      212.782        0.254        0.039       56.691        8.290        0.021      332.160        0.642      860.701
04/03/2014  04:21:00       50.118       38.205       28.125       10.533        9.400       13.531      110.946       88.365      183.098        0.257        0.019       63.019        5.806        0.008      332.191        0.694      860.701
04/03/2014  04:22:00       32.539       34.035       13.674       17.949       12.947       10.796      322.176      167.614      116.556        0.151        0.030       47.087       10.289        0.048      332.139        0.607      860.695
04/03/2014  04:23:00       21.306       -3.969        1.213       11.593       23.818        9.712      134.389      567.302       94.328        0.063        0.040       21.673        6.735        0.097      332.157        0.637      860.688
04/03/2014  04:24:00      -13.060       -5.957        7.229       16.143       14.606        8.906      260.594      213.349       79.314        0.041        0.028       14.355       10.922        0.579      332.065        0.485      860.684
04/03/2014  04:25:00      -38.690      -12.502       -5.360       11.591       12.828       10.821      134.357      164.567      117.099        0.105        0.021       40.660        8.171        0.040      331.903        0.218      860.683
04/03/2014  04:26:00      -52.897        2.002       -5.927        9.604       12.078       12.352       92.242      145.885      152.572        0.161        0.020       52.935        6.133        0.013      331.876        0.175      860.686
04/03/2014  04:27:00      -55.995        6.017       -4.567       12.700        9.500        8.020      161.298       90.258       64.328        0.175        0.016       56.317        6.908        0.015      331.929        0.259      860.686
04/03/2014  04:28:00      -60.137        1.125      -10.657       18.321       10.934       10.358      335.662      119.559      107.297        0.215        0.028       60.147        9.111        0.023      331.873        0.167      860.687
04/03/2014  04:29:00      -40.979        3.318       -0.868       16.875       16.303       12.165      284.777      265.794      147.998        0.119        0.035       41.113       11.623        0.080      331.850        0.131      860.696
04/03/2014  04:30:00      -21.762       11.700       -1.468       16.331        8.695       10.262      266.717       75.610      105.313        0.053        0.022       24.708       10.998        0.198      331.888        0.192      860.701
04/03/2014  04:31:00       22.766       33.119       -0.255       17.400       15.490        6.546      302.744      239.930       42.850        0.110        0.029       40.189        2.845        0.005      332.029        0.425      860.706
04/03/2014  04:32:00       28.798       35.265        8.502       12.405        9.158       12.384      153.875       83.875      153.360        0.127        0.020       45.530       10.199        0.050      332.076        0.502      860.712
04/03/2014  04:33:00       13.233       17.287        3.957        9.206        7.357        7.419       84.748       54.124       55.043        0.034        0.010       21.771        4.714        0.047      332.063        0.481      860.720
04/03/2014  04:34:00      -12.570       16.836       -3.492       16.219        6.484        4.293      263.052       42.043       18.430        0.039        0.016       21.011        4.538        0.047      332.090        0.527      860.731
04/03/2014  04:35:00      -73.644      -11.158       -6.313       24.287       11.517       12.447      589.845      132.645      154.917        0.323        0.044       74.484       12.886        0.030      331.889        0.195      860.744
04/03/2014  04:36:00      -91.701      -13.085      -13.558       22.430       16.676       12.576      503.111      278.078      158.148        0.485        0.047       92.630        9.481        0.010      331.722       -0.077      860.750
04/03/2014  04:37:00      -96.156       -1.153       -5.711       38.803       21.559       18.331     1505.663      464.805      336.023        0.579        0.115       96.163       19.712        0.042      331.651       -0.196      860.756
04/03/2014  04:38:00      -67.107       -5.357       -2.137       34.935       28.259       18.070     1220.448      798.572      326.529        0.344        0.117       67.321       18.999        0.080      331.543       -0.375      860.762
04/03/2014  04:39:00      -36.944       -8.651        9.047       24.454       24.628       19.814      597.992      606.540      392.591        0.156        0.080       37.944       11.873        0.098      331.529       -0.398      860.755
04/03/2014  04:40:00      -35.322       -7.269       -4.783       37.276       17.141       12.153     1389.513      293.808      147.691        0.158        0.092       36.062       15.202        0.178      331.533       -0.391      860.755
04/03/2014  04:41:00      -20.209       -1.101       -4.577       18.212       14.739        7.753      331.671      217.249       60.106        0.052        0.030       20.239        8.541        0.178      331.535       -0.388      860.754
04/03/2014  04:42:00      -44.932      -10.212      -14.253       14.263       14.211       10.057      203.421      201.951      101.141        0.142        0.025       46.078        8.464        0.034      331.651       -0.196      860.757
04/03/2014  04:43:00      -32.028      -16.193       -2.488       15.549       17.232       11.648      241.762      296.939      135.673        0.098        0.034       35.889        3.117        0.008      331.692       -0.128      860.764
04/03/2014  04:44:00      -61.127      -27.564       -7.914       14.240       13.531        9.731      202.776      183.077       94.688        0.252        0.024       67.055        2.930        0.002      331.644       -0.207      860.771
04/03/2014  04:45:00      -58.794      -20.467      -11.259       16.909       17.636       11.699      285.901      311.019      136.855        0.237        0.037       62.254        9.558        0.024      331.543       -0.372      860.768
04/03/2014  04:46:00      -63.426       -7.745      -10.064       17.482       11.856        9.414      305.630      140.569       88.621        0.236        0.027       63.897        8.146        0.016      331.507       -0.433      860.773
04/03/2014  04:47:00      -75.555      -13.369      -14.570       10.498        9.745        8.626      110.201       94.966       74.402        0.319        0.014       76.729        4.314        0.003      331.446       -0.534      860.770
04/03/2014  04:48:00      -68.983      -35.974      -12.586       18.364       20.727       13.869      337.245      429.602      192.342        0.359        0.048       77.800        7.993        0.011      331.527       -0.400      860.775
04/03/2014  04:49:00      -83.862       -8.028      -14.695       23.770       16.502       12.653      564.996      272.328      160.107        0.416        0.050       84.245        6.619        0.006      331.439       -0.544      860.760
04/03/2014  04:50:00      -77.344      -24.337      -16.445       21.170       12.014       11.267      448.176      144.340      126.945        0.378        0.036       81.082        5.283        0.004      331.460       -0.513      860.749
04/03/2014  04:51:00      -75.994      -20.367      -13.133       19.086       13.767       14.372      364.258      189.529      206.559        0.356        0.038       78.676        7.880        0.010      331.477       -0.484      860.751
04/03/2014  04:52:00      -62.540      -19.124       -7.966       23.389       17.133       12.176      547.050      293.530      148.246        0.266        0.049       65.398        9.318        0.020      331.501       -0.443      860.757
04/03/2014  04:53:00      -41.756      -17.987       -1.828       33.234       25.904       18.028     1104.529      670.994      325.027        0.209        0.105       45.466       17.111        0.142      331.499       -0.447      860.771
04/03/2014  04:54:00      -60.073      -29.937       -6.135       40.072       36.753       22.231     1605.745     1350.773      494.225        0.400        0.173       67.119       22.093        0.108      331.441       -0.543      860.795
04/03/2014  04:55:00      -80.647      -24.612       -5.766       36.983       42.625       21.849     1367.707     1816.868      477.385        0.540        0.183       84.319       19.387        0.053      331.436       -0.550      860.816
04/03/2014  04:56:00     -113.748      -11.478       -7.372       27.411       23.468       16.305      751.380      550.766      265.846        0.735        0.078      114.325       15.322        0.018      331.372       -0.655      860.839
04/03/2014  04:57:00      -57.078      -36.313       -5.741       39.787       23.907       15.809     1583.021      571.559      249.909        0.351        0.120       67.651       19.095        0.080      331.431       -0.557      860.850
04/03/2014  04:58:00      -56.377       -1.092       -0.941       43.473       26.086       23.087     1889.861      680.475      532.989        0.314        0.155       56.388       26.509        0.221      331.383       -0.638      860.854
04/03/2014  04:59:00      -97.487       -2.683      -10.835       48.336       35.237       27.520     2336.378     1241.621      757.362        0.698        0.217       97.523       24.165        0.061      331.365       -0.666      860.851
04/03/2014  05:00:00      -54.094        0.882       -8.641       30.073       33.009       16.718      904.395     1089.601      279.503        0.264        0.114       54.101       14.664        0.073      331.452       -0.524      860.857
04/03/2014  05:01:00      -58.232      -19.914      -10.077       16.989       17.496       12.620      288.640      306.103      159.271        0.232        0.038       61.543        7.537        0.015      331.526       -0.403      860.865
04/03/2014  05:02:00      -53.512      -12.196       -6.090       22.403       13.534       16.146      501.893      183.164      260.694        0.200        0.047       54.884        4.408        0.006      331.614       -0.257      860.877
04/03/2014  05:03:00      -13.420      -22.043       -1.067       15.855       13.119        6.369      251.395      172.103       40.567        0.057        0.023       25.807        4.501        0.030      331.744       -0.043      860.892
04/03/2014  05:04:00      -67.218      -35.432       -9.349       27.475       18.031       14.325      754.895      325.103      205.206        0.357        0.064       75.985        3.678        0.002      331.733       -0.061      860.908
04/03/2014  05:05:00      -74.539      -40.548       -5.929       24.441       21.753       12.699      597.347      473.201      161.263        0.423        0.062       84.854        6.615        0.006      331.562       -0.344      860.921
04/03/2014  05:06:00      -67.064      -40.843      -12.996       35.165       23.299       20.404     1236.582      542.832      416.313        0.426        0.110       78.522        5.859        0.006      331.568       -0.334      860.933
04/03/2014  05:07:00      -63.601      -27.665       -3.598       34.060       23.742       21.934     1160.063      563.670      481.101        0.351        0.110       69.358       20.170        0.085      331.535       -0.387      860.946
04/03/2014  05:08:00      -96.205      -16.536       -9.020       31.071       19.288       17.890      965.416      372.010      320.044        0.563        0.083       97.615       14.077        0.021      331.634       -0.223      860.951
04/03/2014  05:09:00     -119.281      -15.635      -14.447       22.729       25.222       16.133      516.606      636.148      260.282        0.805        0.071      120.301        8.307        0.005      331.488       -0.464      860.954
04/03/2014  05:10:00      -77.061      -20.251       -9.872       21.887       20.273       11.635      479.056      410.993      135.381        0.374        0.051       79.677       10.078        0.016      331.453       -0.523      860.948
04/03/2014  05:11:00      -51.044      -23.405       -4.652       25.745       19.822       13.093      662.815      392.907      171.431        0.220        0.061       56.154       10.876        0.038      331.519       -0.414      860.933
04/03/2014  05:12:00     -127.466      -29.418       -9.231       25.630       22.909       17.924      656.913      524.845      321.269        0.935        0.075      130.817       17.416        0.018      331.468       -0.500      860.921
04/03/2014  05:13:00     -105.302      -30.869       -6.018       37.663       33.839       22.159     1418.504     1145.086      491.010        0.757        0.153      109.733       20.706        0.036      331.457       -0.516      860.914
04/03/2014  05:14:00     -118.288      -17.871      -11.647       26.292       27.687       18.129      691.266      766.557      328.654        0.812        0.089      119.630       13.947        0.014      331.401       -0.606      860.904
04/03/2014  05:15:00      -75.470       -4.353        2.559       46.892       30.999       25.328     2198.826      960.922      641.512        0.476        0.190       75.595       25.741        0.116      331.303       -0.768      860.894
04/03/2014  05:16:00      -94.904       -9.202       -6.608       40.000       32.274       21.227     1599.980     1041.604      450.581        0.611        0.155       95.349       18.709        0.038      331.351       -0.689      860.883
04/03/2014  05:17:00      -83.480      -27.852      -12.253       25.537       23.000       13.998      652.123      529.012      195.938        0.464        0.069       88.003       13.905        0.025      331.398       -0.613      860.874
04/03/2014  05:18:00      -79.693       -3.907       -0.550       51.676       39.375       22.419     2670.425     1550.382      502.621        0.554        0.236       79.789       21.515        0.073      331.389       -0.626      860.865
04/03/2014  05:19:00      -14.135       -6.994        0.191       24.532       24.152       19.966      601.797      583.339      398.628        0.092        0.079       15.770        6.359        0.163      331.398       -0.611      860.870
04/03/2014  05:20:00      -42.001      -14.684       -3.648       35.445       18.652       20.042     1256.317      347.894      401.690        0.200        0.100       44.494       19.481        0.192      331.421       -0.575      860.877
04/03/2014  05:21:00      -69.917      -17.682       -7.671       37.934       23.796       17.585     1438.976      566.267      309.237        0.379        0.116       72.118       20.922        0.084      331.460       -0.510      860.891
04/03/2014  05:22:00      -71.610      -16.826       -7.749       37.225       28.456       17.795     1385.717      809.724      316.666        0.399        0.126       73.560       17.159        0.054      331.444       -0.539      860.908
04/03/2014  05:23:00      -84.940       -5.857       -8.396       37.839       20.099       17.660     1431.807      403.956      311.860        0.473        0.107       85.141        6.930        0.007      331.435       -0.552      860.914
04/03/2014  05:24:00      -96.374       -4.643      -17.683       16.478       17.663       13.966      271.524      311.976      195.054        0.520        0.039       96.486        9.877        0.010      331.452       -0.523      860.918
04/03/2014  05:25:00      -79.697       -5.035       -6.869       27.201       19.947       14.878      739.897      397.897      221.357        0.389        0.068       79.856       12.455        0.024      331.432       -0.559      860.913
04/03/2014  05:26:00      -69.821        4.403       -0.606       26.669       25.105       17.526      711.226      630.275      307.145        0.327        0.082       69.959       15.004        0.046      331.442       -0.540      860.923
04/03/2014  05:27:00      -78.250      -11.367       -7.330       28.476       23.185       17.692      810.867      537.527      312.998        0.398        0.083       79.072       17.761        0.050      331.480       -0.478      860.927
04/03/2014  05:28:00      -86.382      -26.761       -6.387       15.738       20.142       15.671      247.680      405.709      245.568        0.456        0.045       90.433        8.178        0.008      331.558       -0.349      860.929
04/03/2014  05:29:00      -62.298      -54.813      -16.659       34.156       15.063       13.306     1166.637      226.899      177.062        0.437        0.079       82.979       12.194        0.022      331.547       -0.368      860.936
04/03/2014  05:30:00      -76.285      -46.501      -17.257       16.999       10.886        9.678      288.954      118.503       93.669        0.439        0.025       89.340        5.408        0.004      331.509       -0.429      860.946
04/03/2014  05:31:00      -32.791      -40.965       -2.842       30.566       30.001       23.482      934.276      900.085      551.382        0.257        0.119       52.473       19.871        0.143      331.622       -0.244      860.951
04/03/2014  05:32:00       -4.736      -24.612       14.548       24.435       27.429       25.308      597.083      752.365      640.517        0.141        0.099       25.063       13.646        0.296      331.630       -0.230      860.958
04/03/2014  05:33:00      -31.082      -20.261       -2.500       42.285       16.845       23.446     1788.055      283.766      549.706        0.200        0.131       37.102       28.290        0.581      331.555       -0.354      860.958
04/03/2014  05:34:00      -83.080        0.793      -10.938       31.687       23.638       19.748     1004.077      558.765      389.999        0.449        0.098       83.083        8.695        0.011      331.568       -0.332      860.959
04/03/2014  05:35:00      -95.700      -17.077      -11.590       15.431       20.290       13.888      238.104      411.698      192.867        0.521        0.042       97.211        6.584        0.005      331.523       -0.407      860.961
04/03/2014  05:36:00     -114.790       -9.417      -17.667       23.148       13.711       16.806      535.842      188.004      282.454        0.729        0.050      115.176       13.513        0.014      331.403       -0.605      860.953
04/03/2014  05:37:00     -105.193       -9.781      -16.177       23.801       19.966       17.072      566.489      398.645      291.461        0.634        0.063      105.647       10.982        0.011      331.413       -0.588      860.954
04/03/2014  05:38:00     -105.968      -15.115      -12.041       33.746       22.068       15.917     1138.796      486.977      253.361        0.674        0.094      107.041       13.780        0.017      331.419       -0.579      860.953
04/03/2014  05:39:00      -93.641      -14.304       -1.891       36.602       26.434       20.409     1339.679      698.773      416.542        0.572        0.123       94.727       19.823        0.044      331.402       -0.607      860.958
04/03/2014  05:40:00      -95.318      -12.924      -10.287       26.453       16.908       14.403      699.736      285.889      207.439        0.528        0.060       96.190       12.413        0.017      331.457       -0.517      860.968
04/03/2014  05:41:00      -83.469      -28.882      -13.669       15.916       17.217       11.237      253.320      296.419      126.268        0.433        0.034       88.325        8.091        0.008      331.556       -0.352      860.984
04/03/2014  05:42:00      -88.747       -7.925      -14.481       22.164       12.761       12.634      491.237      162.852      159.624        0.448        0.041       89.100       10.388        0.014      331.524       -0.406      861.001
04/03/2014  05:43:00      -63.547        3.131       -6.033       22.463       15.317       12.657      504.604      234.625      160.198        0.249        0.045       63.624        7.569        0.014      331.550       -0.363      861.016
04/03/2014  05:44:00      -31.175      -16.829      -11.051       11.847       11.099       10.108      140.352      123.188      102.171        0.087        0.018       35.427        4.571        0.017      331.603       -0.275      861.029
04/03/2014  05:45:00      -33.912      -26.915       -2.527       16.356       10.812       10.933      267.509      116.903      119.536        0.119        0.025       43.295        9.031        0.044      331.686       -0.139      861.041
04/03/2014  05:46:00      -33.303       -6.451       -3.075       17.644        9.718        8.191      311.307       94.433       67.086        0.082        0.024       33.922        6.665        0.039      331.611       -0.264      861.043
04/03/2014  05:47:00      -45.511      -12.522      -13.147        8.204        9.862        7.393       67.300       97.253       54.654        0.131        0.011       47.202        4.456        0.009      331.639       -0.217      861.051
04/03/2014  05:48:00      -55.351      -11.877      -10.628       18.460       13.996       11.472      340.775      195.897      131.617        0.199        0.033       56.611        4.746        0.007      331.661       -0.180      861.059
04/03/2014  05:49:00      -47.283      -10.716       -2.749       13.122        6.249        8.102      172.184       39.054       65.648        0.132        0.014       48.482        5.636        0.014      331.689       -0.134      861.066
04/03/2014  05:50:00      -22.519       -3.173       -3.634        8.605        7.585        5.875       74.038       57.528       34.520        0.035        0.008       22.741        2.320        0.010      331.722       -0.080      861.065
04/03/2014  05:51:00        3.582        3.890        2.722        8.924       10.890        9.368       79.646      118.593       87.762        0.016        0.014        5.288        5.202        0.968      331.843        0.121      861.067
04/03/2014  05:52:00        0.559        8.940       -1.044       12.251        7.504       10.016      150.084       56.314      100.317        0.019        0.015        8.957        6.007        0.450      331.874        0.171      861.054
04/03/2014  05:53:00        0.389        5.972       -0.756        5.625        6.055        5.184       31.641       36.667       26.878        0.007        0.005        5.984        3.396        0.322      331.923        0.251      861.034
04/03/2014  05:54:00        1.138       22.707        2.309        6.582       12.376        4.740       43.318      153.177       22.469        0.037        0.011       22.735        4.485        0.039      331.992        0.365      861.016
04/03/2014  05:55:00        8.465       15.337        0.187        6.354       14.289        8.708       40.378      204.175       75.828        0.031        0.016       17.518        4.948        0.080      331.962        0.316      861.006
04/03/2014  05:56:00       19.246        8.457        0.539       15.783        8.462        7.764      249.104       71.608       60.285        0.041        0.019       21.022        6.166        0.086      331.920        0.245      861.010
04/03/2014  05:57:00       39.776       15.298        1.673       12.645       12.697       10.330      159.901      161.219      106.715        0.112        0.021       42.617        3.528        0.007      331.864        0.154      861.028
04/03/2014  05:58:00       12.129       10.242       12.740       15.813       21.753       13.387      250.040      473.175      179.201        0.066        0.045       15.874        9.532        0.361      331.869        0.162      861.049
04/03/2014  05:59:00        9.268      -49.955        5.042       12.269       16.371       16.011      150.535      268.015      256.338        0.164        0.034       50.808       12.150        0.057      332.009        0.392      861.076
04/03/2014  06:00:00       -2.653      -12.416       22.102        8.699       18.240       12.559       75.680      332.699      157.730        0.061        0.028       12.696        9.232        0.529      331.937        0.274      861.098
04/03/2014  06:01:00        4.631      -13.506       17.182       14.815       16.829       10.703      219.471      283.218      114.564        0.056        0.031       14.278        3.924        0.076      331.925        0.254      861.111
04/03/2014  06:02:00      -14.991        5.971        7.750        9.880        7.717        9.969       97.608       59.548       99.373        0.029        0.013       16.137        6.195        0.147      331.777        0.010      861.113
04/03/2014  06:03:00      -28.725        6.162        1.159       15.266        7.298        4.325      233.054       53.265       18.710        0.058        0.015       29.378        4.343        0.022      331.706       -0.107      861.117
04/03/2014  06:04:00      -51.996        1.179       -4.184       15.853        8.723        5.828      251.318       76.089       33.968        0.154        0.018       52.010        4.771        0.008      331.663       -0.176      861.109
04/03/2014  06:05:00      -68.071        8.079      -10.683       12.344        8.247        8.481      152.366       68.006       71.931        0.255        0.015       68.549        6.731        0.010      331.638       -0.219      861.101
04/03/2014  06:06:00      -62.367        0.085       -6.754       15.572       11.496        9.997      242.503      132.160       99.950        0.220        0.024       62.367        7.075        0.013      331.606       -0.271      861.092
04/03/2014  06:07:00      -36.556       -3.546       -5.460       11.970       10.342        7.811      143.284      106.961       61.006        0.084        0.016       36.728        4.648        0.016      331.615       -0.256      861.084
04/03/2014  06:08:00      -42.453       -4.115       -5.653        9.420        9.482        7.004       88.743       89.901       49.052        0.104        0.011       42.652        4.149        0.009      331.716       -0.088      861.087
04/03/2014  06:09:00      -35.639       -2.634       -8.906        7.062        5.984        5.549       49.873       35.810       30.788        0.074        0.006       35.736        2.527        0.005      331.732       -0.063      861.090
04/03/2014  06:10:00      -29.614       -1.082       -2.749        7.413        6.650        4.271       54.948       44.228       18.239        0.050        0.006       29.634        2.188        0.005      331.764       -0.012      861.100
04/03/2014  06:11:00      -27.452       -3.124       -6.472       10.100       10.615        4.859      102.018      112.674       23.613        0.052        0.012       27.630        1.656        0.004      331.693       -0.126      861.104
04/03/2014  06:12:00      -13.601        2.963        0.888        3.751        3.402        5.575       14.068       11.573       31.084        0.013        0.003       13.920        1.065        0.006      331.682       -0.145      861.097
04/03/2014  06:13:00       -1.250        6.941        6.220        7.567        5.836        5.100       57.266       34.063       26.013        0.010        0.006        7.053        4.536        0.414      331.695       -0.121      861.097
04/03/2014  06:14:00       -0.643        2.789        2.668        5.419        4.345        4.437       29.364       18.880       19.689        0.004        0.003        2.862        2.705        0.893      331.757       -0.022      861.090
04/03/2014  06:15:00      -25.865       -0.552       -4.489        8.515       10.579        6.525       72.498      111.923       42.580        0.046        0.011       25.871        3.930        0.023      331.745       -0.043      861.096
04/03/2014  06:16:00      -53.625      -10.823      -11.143       10.733       10.710       10.134      115.193      114.713      102.695        0.172        0.017       54.707        6.758        0.015      331.563       -0.341      861.097
04/03/2014  06:17:00      -65.932       -7.269       -9.292       20.955       15.001       12.243      439.101      225.039      149.889        0.265        0.041       66.331        7.310        0.012      331.381       -0.640      861.098
04/03/2014  06:18:00      -68.671        4.096       -5.508       20.525       11.345       12.440      421.292      128.720      154.756        0.273        0.035       68.793        9.210        0.018      331.350       -0.691      861.098
04/03/2014  06:19:00      -65.041       -1.673       -8.235       14.267       10.224        9.333      203.542      104.526       87.099        0.235        0.020       65.062        6.010        0.009      331.396       -0.615      861.101
04/03/2014  06:20:00      -63.431       -5.611       -8.328       13.945       11.664        8.142      194.464      136.049       66.296        0.226        0.020       63.678        5.834        0.008      331.448       -0.531      861.103
04/03/2014  06:21:00      -61.387       -3.530       -9.867       15.888       12.793        8.233      252.422      163.662       67.776        0.218        0.024       61.488        5.476        0.008      331.409       -0.593      861.110
04/03/2014  06:22:00      -45.641       -5.183       -2.861       15.842        9.741        9.584      250.974       94.879       91.849        0.128        0.022       45.934        7.777        0.029      331.352       -0.689      861.118
04/03/2014  06:23:00      -45.340       -1.423       -9.550       11.970        5.630        7.077      143.275       31.693       50.077        0.119        0.011       45.362        6.036        0.018      331.387       -0.630      861.121
04/03/2014  06:24:00      -58.444      -13.725       -7.297       10.902        9.824        8.990      118.848       96.518       80.817        0.198        0.015       60.034        7.218        0.014      331.473       -0.489      861.129
04/03/2014  06:25:00      -72.286       -0.615       -8.095       19.388       11.958       11.891      375.888      142.989      141.401        0.298        0.033       72.289       10.638        0.022      331.370       -0.660      861.135
04/03/2014  06:26:00      -52.201      -10.138       -6.539       19.195       17.684        9.754      368.446      312.707       95.146        0.182        0.039       53.177        7.153        0.018      331.304       -0.767      861.140
04/03/2014  06:27:00      -28.664       -3.333       -2.443       13.861       10.314        9.038      192.135      106.375       81.686        0.061        0.019       28.857        6.080        0.044      331.300       -0.772      861.142
04/03/2014  06:28:00      -28.182        4.692       -8.380       10.009        7.649        7.195      100.189       58.508       51.762        0.055        0.011       28.570        7.671        0.072      331.420       -0.577      861.140
04/03/2014  06:29:00      -28.225       -0.079       -7.969        3.582        2.890        3.276       12.828        8.353       10.731        0.045        0.002       28.225        2.143        0.006      331.642       -0.217      861.136
04/03/2014  06:30:00      -29.499      -15.483       -5.228       12.140        9.537        5.913      147.384       90.954       34.965        0.071        0.014       33.315        5.912        0.031      331.651       -0.196      861.141
04/03/2014  06:31:00      -29.408       -3.789       -0.597       17.206       10.152        7.722      296.054      103.073       59.622        0.067        0.023       29.651        6.258        0.045      331.573       -0.325      861.146
04/03/2014  06:32:00      -45.210        2.237       -8.540        4.737        8.073        6.757       22.444       65.176       45.651        0.113        0.007       45.266        5.787        0.016      331.489       -0.462      861.154
04/03/2014  06:33:00      -59.956       -3.100       -5.831       10.616       12.271        6.648      112.701      150.574       44.202        0.197        0.015       60.037        5.129        0.007      331.488       -0.467      861.162
04/03/2014  06:34:00      -65.717      -19.604      -10.682       14.749       14.225        9.124      217.531      202.337       83.252        0.266        0.025       68.578        9.404        0.019      331.390       -0.625      861.176
04/03/2014  06:35:00      -87.976       -5.880      -10.528       16.543       13.947       13.370      273.660      194.531      178.768        0.427        0.032       88.172        9.640        0.012      331.246       -0.862      861.190
04/03/2014  06:36:00      -73.720       -6.068       -3.481       25.343       22.966       15.668      642.251      527.441      245.487        0.345        0.071       73.969        2.477        0.001      331.199       -0.940      861.206
04/03/2014  06:37:00      -76.122        5.261       -4.893       40.316       31.731       16.972     1625.361     1006.828      288.057        0.438        0.146       76.304       14.605        0.037      331.210       -0.921      861.214
04/03/2014  06:38:00      -44.680       -8.064       -1.984       33.698       28.688       13.188     1135.526      823.016      173.914        0.210        0.107       45.402       12.589        0.077      331.203       -0.933      861.220
04/03/2014  06:39:00      -82.207      -15.569       -5.966       29.823       30.443       18.920      889.423      926.765      357.957        0.460        0.109       83.668       16.452        0.039      331.141       -1.036      861.232
04/03/2014  06:40:00      -73.514      -52.236       -3.693       27.474       27.367       19.645      754.848      748.936      385.942        0.502        0.094       90.182       12.533        0.019      331.249       -0.858      861.237
04/03/2014  06:41:00      -66.306      -27.991       -1.749       28.805       21.345       14.555      829.755      455.596      211.850        0.334        0.075       71.972        9.906        0.019      331.221       -0.904      861.237
04/03/2014  06:42:00      -25.951      -34.307        4.867       37.537       22.132       17.564     1409.023      489.829      308.504        0.204        0.110       43.017       17.811        0.171      331.387       -0.631      861.244
04/03/2014  06:43:00      -21.251      -19.824       -1.306       15.595       12.296       11.444      243.212      151.196      130.956        0.069        0.026       29.062        6.800        0.055      331.420       -0.575      861.250
04/03/2014  06:44:00        2.862       12.909        2.626        6.789       11.749       12.792       46.087      138.049      163.629        0.026        0.017       13.222        7.205        0.297      331.339       -0.709      861.253
04/03/2014  06:45:00        7.681       17.231       -6.899        5.547       13.657        5.110       30.770      186.510       26.112        0.032        0.012       18.865        3.325        0.031      331.379       -0.642      861.264
04/03/2014  06:46:00       -9.197        6.491        5.861       10.429       11.466        6.599      108.767      131.463       43.545        0.022        0.014       11.256        3.625        0.104      331.459       -0.513      861.276
04/03/2014  06:47:00      -29.731        4.507       -4.539       10.873       11.668        8.060      118.214      136.148       64.971        0.062        0.016       30.071        6.319        0.044      331.453       -0.523      861.286
04/03/2014  06:48:00      -49.078        6.850       -4.759       13.219       11.010        9.066      174.742      121.218       82.187        0.143        0.019       49.554        5.993        0.015      331.467       -0.500      861.293
04/03/2014  06:49:00      -57.117      -12.439       -7.995       10.005       10.117        6.705      100.100      102.359       44.963        0.186        0.012       58.456        4.277        0.005      331.461       -0.508      861.297
04/03/2014  06:50:00      -78.412      -23.943      -11.625       14.488        8.582        8.225      209.889       73.653       67.659        0.360        0.018       81.986        4.876        0.004      331.351       -0.691      861.305
04/03/2014  06:51:00      -55.265       -9.922       -4.249       35.080       18.462       12.630     1230.619      340.857      159.519        0.245        0.087       56.149       15.435        0.076      331.254       -0.848      861.311
04/03/2014  06:52:00      -62.467       -5.833       -4.776       27.129       16.448       11.522      736.000      270.540      132.766        0.255        0.057       62.739       11.390        0.033      331.224       -0.898      861.312
04/03/2014  06:53:00      -67.606      -21.106      -10.420       11.684       14.129       11.485      136.512      199.620      131.894        0.280        0.023       70.824        8.437        0.014      331.295       -0.783      861.310
04/03/2014  06:54:00      -64.841      -16.253       -8.253       13.661       13.792       11.104      186.623      190.212      123.290        0.252        0.025       66.847        8.841        0.017      331.238       -0.874      861.310
04/03/2014  06:55:00      -83.187      -11.908      -13.615       16.879       11.542       12.155      284.892      133.220      147.745        0.391        0.028       84.035        8.858        0.011      331.128       -1.057      861.306
04/03/2014  06:56:00      -72.774       -6.739      -14.170       21.637       15.216       11.630      468.180      231.514      135.253        0.319        0.042       73.085        5.493        0.006      331.151       -1.019      861.304
04/03/2014  06:57:00      -50.818      -18.581      -10.955       22.086       21.190       11.642      487.802      449.016      135.538        0.206        0.054       54.108        9.427        0.030      331.238       -0.874      861.308
04/03/2014  06:58:00      -51.842       -7.619       -6.199       21.225       21.861       16.369      450.485      477.916      267.954        0.199        0.060       52.398       14.352        0.075      331.232       -0.887      861.316
04/03/2014  06:59:00      -65.909      -17.980       -4.993       21.532       21.604       20.061      463.624      466.748      402.457        0.301        0.067       68.317       15.025        0.048      331.221       -0.903      861.324
04/03/2014  07:00:00      -68.042      -33.902       -0.755       29.211       24.403       16.499      853.272      595.496      272.216        0.375        0.086       76.021       12.200        0.026      331.178       -0.974      861.333
04/03/2014  07:01:00      -63.455      -27.564       -7.863       17.060       19.047       13.574      291.049      362.783      184.244        0.284        0.042       69.183        7.660        0.012      331.261       -0.838      861.347
04/03/2014  07:02:00      -57.523      -21.800       -5.527       15.752       18.229       11.422      248.134      332.291      130.453        0.226        0.036       61.515       11.049        0.032      331.231       -0.887      861.354
04/03/2014  07:03:00      -72.041      -27.156       -6.501       15.404       16.477       13.794      237.290      271.486      190.281        0.333        0.035       76.990        8.850        0.013      331.170       -0.987      861.359
04/03/2014  07:04:00      -39.165      -24.102        0.568       19.009       20.378       15.652      361.355      415.260      244.974        0.157        0.051       45.987       12.316        0.072      331.167       -0.992      861.359
04/03/2014  07:05:00      -14.020       -3.945        8.749       21.185       12.719       10.705      448.798      161.764      114.600        0.051        0.036       14.564       11.883        0.666      331.253       -0.850      861.363
04/03/2014  07:06:00      -51.739      -25.557       -5.777       20.245       13.532       11.436      409.853      183.116      130.773        0.204        0.036       57.707        8.400        0.021      331.235       -0.881      861.375
04/03/2014  07:07:00      -66.274      -26.887      -10.403       17.385       14.228        8.966      302.225      202.432       80.383        0.290        0.029       71.520        5.287        0.005      331.207       -0.926      861.389
04/03/2014  07:08:00      -58.825      -33.996      -11.431       24.226       23.632       13.761      586.877      558.459      189.372        0.304        0.067       67.942       10.610        0.024      331.283       -0.800      861.406
04/03/2014  07:09:00      -40.598      -33.202       -9.269       14.064       15.309       13.885      197.805      234.357      192.784        0.173        0.031       52.446       10.037        0.037      331.265       -0.830      861.419
04/03/2014  07:10:00      -38.204      -14.125       -5.875       10.215       10.617       11.424      104.337      112.720      130.499        0.102        0.017       40.731        6.305        0.024      331.336       -0.713      861.430
04/03/2014  07:11:00      -38.014      -23.078       -6.251       17.804        9.554       11.194      316.985       91.277      125.316        0.128        0.027       44.470        8.096        0.033      331.413       -0.588      861.436
04/03/2014  07:12:00      -50.692      -15.289       -5.691       12.223       12.052        7.551      149.398      145.262       57.020        0.159        0.018       52.948        3.732        0.005      331.400       -0.609      861.443
04/03/2014  07:13:00      -49.692      -20.063      -10.093       11.385       11.223        8.397      129.626      125.965       70.515        0.165        0.016       53.589        4.623        0.007      331.452       -0.524      861.443
04/03/2014  07:14:00      -60.191      -17.538      -12.627       11.094        8.684        6.771      123.087       75.420       45.846        0.217        0.012       62.694        2.734        0.002      331.313       -0.751      861.457
04/03/2014  07:15:00      -60.413       -2.315       -2.664       18.777       19.858       13.558      352.566      394.335      183.820        0.230        0.047       60.458        8.435        0.019      331.289       -0.790      861.464
04/03/2014  07:16:00      -79.200       -3.655       -8.568       22.320       19.348       14.327      498.169      374.341      205.271        0.372        0.054       79.284       10.565        0.018      331.312       -0.754      861.470
04/03/2014  07:17:00      -60.010       -6.824       -0.322       21.466       15.184       10.586      460.780      230.561      112.057        0.223        0.040       60.397        8.121        0.018      331.333       -0.720      861.484
04/03/2014  07:18:00      -57.416       -6.841       -0.468       14.397       10.326        9.260      207.268      106.626       85.745        0.187        0.020       57.822        5.422        0.009      331.422       -0.574      861.494
04/03/2014  07:19:00      -41.091       -3.956       -3.935       12.082       10.109        9.500      145.970      102.190       90.243        0.103        0.017       41.281        8.479        0.042      331.459       -0.514      861.501
04/03/2014  07:20:00      -40.376       -7.643       -8.755        8.940        6.174        6.488       79.930       38.114       42.096        0.096        0.008       41.093        5.179        0.016      331.549       -0.363      861.495
04/03/2014  07:21:00      -28.346       -3.949       -8.140       11.849        7.096        7.817      140.404       50.352       61.104        0.057        0.013       28.620        8.458        0.087      331.790        0.034      861.484
04/03/2014  07:22:00      -10.067       10.944        6.225        8.069        6.485        5.279       65.116       42.059       27.867        0.020        0.007       14.869        2.925        0.039      331.926        0.256      861.480
04/03/2014  07:23:00       -1.336        5.440        2.267        3.133        5.048        4.696        9.818       25.479       22.054        0.005        0.003        5.602        2.732        0.238      331.923        0.251      861.481
04/03/2014  07:24:00        6.809       12.468       -1.693        6.596        9.433        5.582       43.511       88.972       31.163        0.018        0.008       14.206        5.275        0.138      331.906        0.223      861.488
04/03/2014  07:25:00      -22.850       -7.536       -0.573       19.694       10.968        6.663      387.854      120.293       44.402        0.057        0.028       24.061        7.004        0.085      331.887        0.190      861.495
04/03/2014  07:26:00      -61.643      -14.820      -10.194       10.114        9.842        6.796      102.286       96.870       46.189        0.218        0.012       63.399        5.381        0.007      331.633       -0.227      861.503
04/03/2014  07:27:00      -53.040       -9.741      -11.295       10.695       10.146        6.781      114.382      102.932       45.982        0.165        0.013       53.927        4.945        0.008      331.703       -0.109      861.514
04/03/2014  07:28:00      -52.229       -3.559       -5.687       12.904       10.369        8.437      166.508      107.513       71.175        0.156        0.017       52.351        6.162        0.014      331.774        0.005      861.513
04/03/2014  07:29:00      -70.084        8.524       -1.653       10.137       10.039        8.350      102.751      100.781       69.716        0.263        0.014       70.601        5.564        0.006      331.830        0.098      861.506
04/03/2014  07:30:00      -46.638        2.241       -1.363       11.450        9.664        7.258      131.096       93.394       52.684        0.123        0.014       46.692        6.524        0.020      331.826        0.091      861.525
04/03/2014  07:31:00      -44.820        0.251       -2.074       11.027       10.434        8.681      121.604      108.864       75.363        0.116        0.015       44.820        6.791        0.023      331.856        0.142      861.534
04/03/2014  07:32:00      -29.281       -0.205       -2.975       12.129        8.121        6.355      147.114       65.943       40.385        0.056        0.013       29.282        4.040        0.019      331.897        0.209      861.529
04/03/2014  07:33:00      -18.579       14.374       -1.073        9.910        7.987        4.966       98.213       63.791       24.657        0.037        0.009       23.490        1.670        0.005      331.944        0.288      861.540
04/03/2014  07:34:00      -35.882       19.465        1.136        7.520        7.965        6.546       56.550       63.435       42.852        0.092        0.008       40.822        4.108        0.010      331.955        0.307      861.542
04/03/2014  07:35:00      -36.341       15.084        2.590        8.404       10.152        6.741       70.623      103.058       45.445        0.089        0.011       39.348        5.418        0.019      331.959        0.314      861.545
04/03/2014  07:36:00      -63.162      -22.235       -6.992       19.917       11.471        8.128      396.688      131.576       66.063        0.256        0.030       66.961        6.612        0.010      331.982        0.347      861.558
04/03/2014  07:37:00      -53.926      -25.137       -6.977       13.268       11.491        6.571      176.029      132.046       43.177        0.197        0.018       59.496        5.522        0.009      331.948        0.294      861.559
04/03/2014  07:38:00      -62.536      -17.979       -4.232       17.764       11.792        9.775      315.564      139.044       95.560        0.240        0.028       65.070        6.233        0.009      331.995        0.371      861.569
04/03/2014  07:39:00      -55.854       -3.872       -3.290       18.417       14.750       11.675      339.195      217.562      136.316        0.192        0.035       55.988       11.950        0.046      332.003        0.383      861.574
04/03/2014  07:40:00      -37.541        0.902        3.548       20.128       16.072       14.251      405.134      258.323      203.081        0.114        0.043       37.552        9.730        0.067      331.954        0.302      861.591
04/03/2014  07:41:00      -54.488        2.638       -2.901       32.375       17.144       13.590     1048.168      293.914      184.690        0.226        0.076       54.552       17.056        0.098      331.991        0.364      861.599
04/03/2014  07:42:00      -48.971        6.077       -0.181       27.577       13.962       13.827      760.468      194.932      191.179        0.179        0.057       49.347       14.450        0.086      331.924        0.253      861.600
04/03/2014  07:43:00      -39.215       -3.211       -0.889       29.601       23.140       16.379      876.229      535.442      268.281        0.161        0.084       39.347       13.250        0.113      331.942        0.284      861.606
04/03/2014  07:44:00      -72.796      -16.972       -9.497       21.497       16.353       11.358      462.106      267.420      129.003        0.327        0.043       74.748        8.540        0.013      331.914        0.235      861.605
04/03/2014  07:45:00      -50.645       -3.429       -3.272       29.460       18.319       11.839      867.868      335.577      140.151        0.197        0.067       50.761       10.827        0.045      331.925        0.256      861.614
04/03/2014  07:46:00      -47.047       -1.516       -0.569       23.354       21.378       14.493      545.412      457.005      210.058        0.171        0.061       47.072       11.070        0.055      331.950        0.296      861.614
04/03/2014  07:47:00      -81.608        9.834       -3.608       19.611       16.122       13.967      384.597      259.922      195.065        0.380        0.042       82.198       11.415        0.019      331.956        0.304      861.623
04/03/2014  07:48:00      -32.796        1.903        6.785       27.358       15.148       13.872      748.463      229.467      192.428        0.115        0.059       32.851       17.042        0.269      332.141        0.611      861.622
04/03/2014  07:49:00      -58.274       12.133       -1.805       22.121       13.687       11.897      489.326      187.325      141.536        0.218        0.041       59.523       12.786        0.046      332.019        0.411      861.620
04/03/2014  07:50:00      -50.812        8.380       -1.688       16.060       17.231       10.734      257.909      296.894      115.228        0.166        0.034       51.498        7.584        0.022      332.096        0.537      861.619
04/03/2014  07:51:00      -60.009       18.227        1.418       10.575       12.603        8.276      111.836      158.837       68.492        0.214        0.017       62.716        5.238        0.007      332.071        0.495      861.614
04/03/2014  07:52:00      -52.936       14.823       -0.427       15.957        9.756       10.519      254.629       95.172      110.657        0.174        0.023       54.972        4.533        0.007      332.132        0.595      861.614
04/03/2014  07:53:00      -40.648        1.900        0.981       18.445       11.926        9.228      340.234      142.223       85.149        0.111        0.028       40.693       10.652        0.069      332.230        0.759      861.607
04/03/2014  07:54:00      -26.159        0.269        0.068       17.766        7.825       10.938      315.643       61.231      119.646        0.059        0.025       26.160        9.463        0.131      332.288        0.853      861.612
04/03/2014  07:55:00      -13.579        6.449        5.229       10.814       10.673        8.815      116.938      113.913       77.703        0.028        0.015       15.033        3.752        0.062      332.437        1.099      861.612
04/03/2014  07:56:00       -2.460       11.010        3.665       13.694       12.496       10.322      187.526      156.159      106.544        0.030        0.023       11.281        9.702        0.740      332.519        1.235      861.609
04/03/2014  07:57:00        0.720       12.162       -0.471       11.703        9.348        8.053      136.964       87.387       64.852        0.022        0.014       12.184        5.638        0.214      332.431        1.089      861.609
04/03/2014  07:58:00       23.029       13.012        8.208       20.730       13.223       13.946      429.748      174.852      194.480        0.078        0.040       26.450       11.875        0.202      332.541        1.272      861.604
04/03/2014  07:59:00       12.427       24.716       -5.697       19.393       12.248       14.556      376.079      150.014      211.875        0.077        0.037       27.664        9.505        0.118      332.459        1.135      861.611
04/03/2014  08:00:00       39.354       28.355        3.745       19.855       15.406       12.456      394.223      237.345      155.156        0.158        0.039       48.505        9.467        0.038      332.547        1.281      861.613
04/03/2014  08:01:00       46.434       36.610       22.820       15.618       19.873       20.686      243.910      394.926      427.930        0.254        0.053       59.131        8.654        0.021      332.531        1.256      861.610
04/03/2014  08:02:00       10.750       33.711        5.548       20.757       17.245       11.498      430.847      297.381      132.207        0.107        0.043       35.384       10.193        0.083      332.562        1.305      861.613
04/03/2014  08:03:00       17.153       25.373        6.478       27.619       22.859       12.568      762.815      522.547      157.944        0.121        0.072       30.627       10.596        0.120      332.690        1.517      861.613
04/03/2014  08:04:00       16.587       30.805       16.913       24.673       21.023       16.298      608.778      441.954      265.614        0.141        0.066       34.987        4.791        0.019      332.817        1.728      861.615
04/03/2014  08:05:00       -8.356       10.674       28.868       19.266       38.981       32.220      371.170     1519.504     1038.134        0.197        0.146       13.555       30.157        4.949      332.816        1.726      861.619
04/03/2014  08:06:00       17.237       19.598       26.992       27.573       19.403       28.179      760.296      376.471      794.061        0.167        0.097       26.100       17.297        0.439      332.869        1.814      861.610
04/03/2014  08:07:00       32.308       51.706       45.483       28.460       24.843       23.952      809.966      617.185      573.712        0.389        0.100       60.970       15.291        0.063      332.703        1.539      861.604
04/03/2014  08:08:00       32.813       31.021       23.482       30.528       26.897       25.588      931.947      723.474      654.733        0.245        0.116       45.155       17.284        0.147      332.731        1.586      861.604
04/03/2014  08:09:00       32.155       20.595       15.350       22.668       20.866       21.616      513.848      435.411      467.240        0.155        0.071       38.186       12.004        0.099      332.792        1.686      861.594
04/03/2014  08:10:00       30.516       32.197       25.745       33.041       24.306       26.902     1091.722      590.788      723.742        0.252        0.120       44.361       20.733        0.218      332.891        1.849      861.579
04/03/2014  08:11:00       56.217       41.187       -0.815       23.459       21.500       24.833      550.312      462.237      616.670        0.324        0.081       69.690        8.594        0.015      332.701        1.534      861.568
04/03/2014  08:12:00       72.929       58.939       16.980       19.851       18.999       20.810      394.050      360.959      433.049        0.513        0.059       93.768        8.264        0.008      332.605        1.376      861.567
04/03/2014  08:13:00       67.886       36.089        7.895       23.078       16.731       20.900      532.612      279.921      436.797        0.361        0.062       76.883       12.611        0.027      332.618        1.397      861.560
04/03/2014  08:14:00       37.503       34.388        5.879       46.017       18.458       21.293     2117.527      340.710      453.380        0.277        0.146       50.882        9.015        0.031      332.852        1.784      861.553
04/03/2014  08:15:00      -12.036        8.107       25.507       10.086       21.242       16.740      101.724      451.218      280.242        0.085        0.042       14.512       16.555        1.301      333.180        2.326      861.557
04/03/2014  08:16:00        2.327       17.114       26.330       30.950       27.049       23.394      957.915      731.643      547.277        0.161        0.112       17.272       18.724        1.175      333.409        2.706      861.550
04/03/2014  08:17:00       55.194       38.609       13.732       30.481       20.618       19.952      929.070      425.097      398.068        0.324        0.088       67.357       14.207        0.044      332.764        1.639      861.549
04/03/2014  08:18:00       56.212       52.502       22.367       25.380       24.543       20.589      644.137      602.352      423.914        0.404        0.084       76.917       14.633        0.036      332.864        1.804      861.551
04/03/2014  08:19:00       81.055       59.318       11.046       36.046       33.339       30.897     1299.331     1111.521      954.628        0.679        0.168      100.442       20.022        0.040      332.867        1.809      861.554
04/03/2014  08:20:00       61.153       40.811       15.514       29.756       28.980       21.522      885.449      839.866      463.185        0.392        0.109       73.520        9.535        0.017      332.902        1.867      861.553
04/03/2014  08:21:00       71.676       67.949        5.958       25.074       23.046       27.997      628.685      531.121      783.825        0.587        0.097       98.765       11.186        0.013      332.744        1.606      861.550
04/03/2014  08:22:00       42.044       41.494       12.738       26.110       21.927       17.049      681.726      480.778      290.661        0.255        0.073       59.071       11.868        0.040      332.865        1.806      861.539
04/03/2014  08:23:00       54.857       38.782       10.165       20.043       19.111       19.743      401.733      365.224      389.796        0.289        0.058       67.181        9.457        0.020      332.838        1.762      861.544
04/03/2014  08:24:00       36.320       41.100        4.404       30.242       23.431       25.421      914.557      549.008      646.232        0.257        0.105       54.849       18.974        0.120      332.947        1.941      861.549
04/03/2014  08:25:00       74.769       63.577       13.654       45.981       27.086       24.740     2114.236      733.675      612.089        0.664        0.173       98.145       15.802        0.026      332.824        1.740      861.545
04/03/2014  08:26:00       80.122       49.723       15.411       37.530       30.044       32.463     1408.469      902.667     1053.824        0.625        0.168       94.297       22.567        0.057      332.948        1.942      861.542
04/03/2014  08:27:00       75.074       37.176       28.418       58.588       29.975       37.923     3432.538      898.507     1438.137        0.680        0.288       83.774       33.449        0.159      333.125        2.234      861.535
04/03/2014  08:28:00       54.333       57.729        4.641       35.163       32.935       29.291     1236.430     1084.723      857.973        0.474        0.159       79.276       22.367        0.080      333.174        2.315      861.527
04/03/2014  08:29:00       56.464       38.867        0.050       34.298       23.817       22.352     1176.375      567.250      499.615        0.347        0.112       68.548       19.302        0.079      333.036        2.088      861.527
04/03/2014  08:30:00       56.097       54.706       -0.677       42.428       37.530       31.458     1800.134     1408.490      989.613        0.517        0.210       78.356       24.610        0.099      333.131        2.244      861.518
04/03/2014  08:31:00       70.944       54.312       19.678       35.626       33.351       32.506     1269.231     1112.261     1056.618        0.590        0.172       89.346       19.389        0.047      333.150        2.277      861.524
04/03/2014  08:32:00       54.660       50.667       -3.978       32.993       26.231       21.052     1088.536      688.087      443.167        0.389        0.111       74.531       14.458        0.038      333.057        2.121      861.532
04/03/2014  08:33:00      101.850       70.256       -6.006       35.344       29.350       28.213     1249.219      861.417      795.983        0.913        0.145      123.731       17.033        0.019      333.119        2.225      861.545
04/03/2014  08:34:00       88.843       55.151        6.642       24.511       26.756       30.364      600.791      715.871      921.959        0.661        0.112      104.570       12.955        0.015      332.995        2.021      861.558
04/03/2014  08:35:00       77.141       40.656       -1.434       25.985       25.760       20.205      675.227      663.552      408.226        0.468        0.087       87.199       14.065        0.026      333.077        2.156      861.571
04/03/2014  08:36:00       67.829       60.361        2.971       27.945       26.386       24.419      780.944      696.215      596.282        0.516        0.104       90.797       16.893        0.035      333.232        2.413      861.570
04/03/2014  08:37:00       58.290       89.236       48.371       39.873       36.366       37.094     1589.883     1322.508     1375.967        0.899        0.214      106.587       28.391        0.071      333.260        2.459      861.573
04/03/2014  08:38:00       43.414       66.915       65.029       45.813       45.178       27.825     2098.804     2041.058      774.206        0.775        0.246       79.764       21.353        0.072      333.308        2.538      861.578
04/03/2014  08:39:00       75.403       47.917       46.400       54.714       25.187       30.777     2993.578      634.370      947.251        0.735        0.229       89.340       23.221        0.068      333.352        2.611      861.591
04/03/2014  08:40:00       74.119       51.201       43.963       40.357       36.532       37.208     1628.668     1334.563     1384.400        0.720        0.217       90.085       29.485        0.107      333.317        2.552      861.591
04/03/2014  08:41:00       83.687       71.244       46.835       36.582       23.300       24.617     1338.227      542.868      605.978        0.838        0.124      109.906       18.387        0.028      333.160        2.293      861.594
04/03/2014  08:42:00       93.552       87.822       54.808       63.515       33.165       31.578     4034.163     1099.930      997.148        1.280        0.307      128.314       31.940        0.062      333.264        2.465      861.603
04/03/2014  08:43:00       73.348       40.162       35.783       46.419       52.034       43.515     2154.692     2707.509     1893.559        0.751        0.338       83.624       33.689        0.162      333.429        2.739      861.614
04/03/2014  08:44:00      -12.201        4.671       51.713       32.259       42.266       28.930     1040.655     1786.411      836.920        0.325        0.183       13.064       23.065        3.117      333.868        3.465      861.611
04/03/2014  08:45:00       36.383       21.425       68.429       50.859       52.186       32.207     2586.679     2723.341     1037.300        0.641        0.317       42.223       32.227        0.583      333.799        3.350      861.611
04/03/2014  08:46:00       71.174       41.920       29.890       45.592       47.910       36.017     2078.599     2295.376     1297.205        0.669        0.284       82.602       16.721        0.041      333.433        2.744      861.616
04/03/2014  08:47:00       28.265        3.946       -0.281       36.203       42.383       28.830     1310.665     1796.310      831.147        0.238        0.197       28.539       12.454        0.190      333.754        3.276      861.615
04/03/2014  08:48:00       89.199       57.657       20.555       42.564       32.291       37.671     1811.716     1042.720     1419.082        0.799        0.214      106.211       18.382        0.030      333.656        3.114      861.611
04/03/2014  08:49:00       32.515       36.691       52.330       35.564       32.291       23.146     1264.809     1042.719      535.723        0.399        0.142       49.025       14.551        0.088      333.943        3.591      861.605
04/03/2014  08:50:00       69.429       42.107       46.761       76.606       62.579       36.516     5868.491     3916.078     1333.417        0.995        0.556       81.199       32.939        0.165      333.795        3.344      861.605
04/03/2014  08:51:00       94.334       69.274       38.707       56.163       28.817       34.170     3154.287      830.425     1167.576        1.017        0.258      117.037       30.197        0.067      333.574        2.978      861.601
04/03/2014  08:52:00       38.690       86.390       71.735       48.999       38.045       38.631     2400.856     1447.442     1492.351        0.972        0.267       94.658       28.525        0.091      333.811        3.371      861.604
04/03/2014  08:53:00      135.816       82.797       23.671       33.505       31.431       26.225     1122.586      987.897      687.754        1.433        0.140      159.064       16.357        0.011      333.385        2.665      861.595
04/03/2014  08:54:00      101.473       91.825       53.012       43.207       24.083       26.830     1866.863      579.997      719.826        1.235        0.158      136.852       23.278        0.029      333.509        2.870      861.579
04/03/2014  08:55:00       29.082       70.688       63.466       47.137       36.584       35.615     2221.868     1338.403     1268.448        0.735        0.241       76.436       27.984        0.134      334.045        3.760      861.566
04/03/2014  08:56:00       31.479       91.712       80.833       61.299       39.753       50.093     3757.538     1580.297     2509.301        1.189        0.392       96.964       47.464        0.240      334.032        3.736      861.554
04/03/2014  08:57:00       64.971       56.004       42.845       45.767       55.859       58.768     2094.579     3120.233     3453.660        0.893        0.433       85.777       39.689        0.214      334.052        3.770      861.548
04/03/2014  08:58:00       60.007       44.832       47.142       60.181       35.521       35.220     3621.766     1261.723     1240.443        0.698        0.306       74.904       15.497        0.043      333.953        3.605      861.544
04/03/2014  08:59:00       76.924       70.527       13.281       38.710       45.750       34.954     1498.463     2093.059     1221.812        0.794        0.241      104.362       24.046        0.053      333.898        3.515      861.544
04/03/2014  09:00:00       78.147       40.231        0.131       22.777       32.520       21.411      518.796     1057.579      458.426        0.488        0.102       87.895       11.081        0.016      333.616        3.048      861.539
04/03/2014  09:01:00       50.588       37.511        7.172       39.670       22.723       23.445     1573.726      516.332      549.685        0.333        0.132       62.978       20.098        0.102      333.984        3.659      861.546
04/03/2014  09:02:00        8.728       45.329       76.116       35.687       46.988       25.600     1273.543     2207.905      655.341        0.603        0.207       46.161       23.876        0.268      334.419        4.381      861.545
04/03/2014  09:03:00       10.298       53.832       85.200       35.160       46.458       25.360     1236.246     2158.377      643.132        0.715        0.202       54.808       26.162        0.228      334.380        4.315      861.536
04/03/2014  09:04:00       94.727       56.641       57.199       64.862       63.575       43.929     4207.127     4041.766     1929.761        1.281        0.509      110.369       39.520        0.128      333.940        3.585      861.534
04/03/2014  09:05:00       25.670        8.569       26.831       30.620       24.433       19.656      937.579      596.963      386.371        0.169        0.096       27.063       17.940        0.439      334.411        4.366      861.533
04/03/2014  09:06:00        9.510       40.737       44.146       25.244       31.179       25.856      637.276      972.154      668.520        0.299        0.114       41.832       16.952        0.164      334.684        4.819      861.532
04/03/2014  09:07:00      107.274       59.499       10.205       51.466       41.735       38.374     2648.760     1741.794     1472.593        1.051        0.293      122.669       20.245        0.027      333.985        3.659      861.531
04/03/2014  09:08:00       51.779       43.653       29.264       49.795       40.522       29.000     2479.549     1642.066      840.983        0.520        0.248       67.725       19.433        0.082      334.514        4.537      861.521
04/03/2014  09:09:00       30.013       34.179       23.772       56.833       32.863       40.970     3229.975     1079.965     1678.561        0.431        0.299       45.486       35.837        0.621      334.735        4.904      861.514
04/03/2014  09:10:00       24.638       38.365        4.583       36.721       29.506       25.179     1348.410      870.633      633.993        0.248        0.143       45.595       19.125        0.176      334.557        4.607      861.522
04/03/2014  09:11:00       12.384       55.984       74.785       36.293       48.626       34.848     1317.147     2364.503     1214.394        0.689        0.245       57.337       26.281        0.210      334.710        4.863      861.522
04/03/2014  09:12:00       82.973       82.956       69.132       46.174       36.403       36.089     2132.048     1325.154     1302.393        1.165        0.238      117.330       28.297        0.058      334.185        3.990      861.516
04/03/2014  09:13:00       38.193       68.212       64.327       56.509       46.360       35.245     3193.291     2149.260     1242.241        0.842        0.329       78.177       28.619        0.134      334.658        4.776      861.502
04/03/2014  09:14:00       77.510       83.708       87.097       56.984       41.698       42.403     3247.132     1738.707     1798.016        1.369        0.339      114.083       34.437        0.091      334.191        4.002      861.504
04/03/2014  09:15:00       26.626       43.927       39.898       51.092       34.898       28.276     2610.405     1217.857      799.533        0.443        0.231       51.366       18.188        0.125      334.462        4.452      861.504
04/03/2014  09:16:00       40.767       34.630       10.714       34.810       33.107       29.491     1211.716     1096.086      869.745        0.308        0.159       53.490       22.397        0.175      334.536        4.572      861.502
04/03/2014  09:17:00       45.285        9.942       10.013       34.222       48.797       38.457     1171.112     2381.165     1478.971        0.364        0.252       46.364       24.465        0.278      334.750        4.929      861.494
04/03/2014  09:18:00       44.541       80.237        6.523       46.193       46.373       37.055     2133.794     2150.416     1373.047        0.706        0.283       91.771       31.524        0.118      334.513        4.535      861.488
04/03/2014  09:19:00       86.301       83.567       -2.526       51.393       36.970       33.687     2641.215     1366.764     1134.786        0.979        0.257      120.131       21.159        0.031      334.294        4.171      861.493
04/03/2014  09:20:00       71.716       82.813        7.187       55.455       38.125       41.757     3075.280     1453.512     1743.634        0.916        0.314      109.550       29.927        0.075      334.438        4.410      861.501
04/03/2014  09:21:00       55.628       76.948        4.154       34.255       49.653       40.527     1173.395     2465.434     1642.427        0.716        0.264       94.950       33.042        0.121      334.417        4.377      861.495
04/03/2014  09:22:00       65.692       76.297        6.991       40.745       34.197       27.441     1660.150     1169.432      752.993        0.688        0.179      100.681       18.077        0.032      334.251        4.099      861.495
04/03/2014  09:23:00      105.509       67.042        7.499       33.974       24.312       28.550     1154.203      591.074      815.095        0.912        0.128      125.007       13.152        0.011      334.375        4.306      861.488
04/03/2014  09:24:00      100.538       82.152       -2.420       52.636       39.827       32.055     2770.521     1586.196     1027.532        1.112        0.269      129.834       24.473        0.036      334.066        3.793      861.491
04/03/2014  09:25:00       83.146       73.870       -4.906       39.997       32.662       36.472     1599.771     1066.806     1330.204        0.819        0.200      111.220       24.197        0.047      334.315        4.208      861.492
04/03/2014  09:26:00      126.850       91.630       11.292       65.765       56.004       28.827     4325.019     3136.442      830.985        1.645        0.415      156.483       24.357        0.024      334.298        4.176      861.490
04/03/2014  09:27:00       34.295      124.833      125.482       49.449       58.530       42.199     2445.207     3425.716     1780.766        2.008        0.383      129.458       34.781        0.072      334.456        4.438      861.484
04/03/2014  09:28:00       80.781      104.153       85.442       51.561       53.563       44.050     2658.540     2868.951     1940.376        1.607        0.373      131.808       36.960        0.079      334.221        4.050      861.491
04/03/2014  09:29:00       21.002       60.384       69.958       49.146       49.145       49.232     2415.357     2415.203     2423.760        0.812        0.363       63.932       33.511        0.275      334.698        4.842      861.490
04/03/2014  09:30:00        7.278       68.225       92.988       37.924       49.981       32.011     1438.233     2498.129     1024.718        0.916        0.248       68.612       27.652        0.162      334.891        5.163      861.489
04/03/2014  09:31:00       68.838       72.955       71.548       60.517       39.363       50.153     3662.292     1549.446     2515.323        1.145        0.386      100.305       33.114        0.109      334.513        4.535      861.485
04/03/2014  09:32:00      105.974       51.963       17.322       38.097       23.776       26.146     1451.411      565.285      683.609        0.846        0.135      118.028       17.267        0.021      334.237        4.077      861.477
04/03/2014  09:33:00       76.147       70.286       61.088       50.885       36.776       38.787     2589.304     1352.500     1504.397        0.996        0.272      103.627       33.499        0.104      334.510        4.529      861.459
04/03/2014  09:34:00       84.660       63.190       28.504       42.078       38.533       33.585     1770.567     1484.794     1127.975        0.818        0.219      105.642       23.965        0.051      334.432        4.401      861.448
04/03/2014  09:35:00       64.562       -7.608       36.416       46.198       64.252       36.505     2134.214     4128.344     1332.611        0.657        0.380       65.008       37.182        0.327      334.635        4.737      861.446
04/03/2014  09:36:00      110.124       62.587       38.296       73.070       37.703       50.158     5339.224     1421.496     2515.852        1.339        0.464      126.667       37.242        0.086      334.805        5.019      861.435
04/03/2014  09:37:00       82.489       67.773       12.313       46.981       37.292       36.272     2207.255     1390.707     1315.659        0.823        0.246      106.759       33.761        0.100      334.650        4.763      861.422
04/03/2014  09:38:00      100.613       88.459       58.191       52.886       38.872       47.527     2796.943     1511.064     2258.804        1.395        0.328      133.970       20.218        0.023      334.769        4.960      861.421
04/03/2014  09:39:00       46.156       50.312       17.825       31.961       34.187       41.063     1021.488     1168.766     1686.211        0.443        0.194       68.276       23.372        0.117      334.477        4.475      861.433
04/03/2014  09:40:00       28.874        6.938       -1.086       33.632       26.475       22.434     1131.135      700.908      503.277        0.161        0.117       29.696       20.848        0.493      334.629        4.729      861.425
04/03/2014  09:41:00       50.588        8.312       10.967       28.086       27.712       30.031      788.799      767.962      901.878        0.260        0.123       51.267       17.642        0.118      334.697        4.842      861.417
04/03/2014  09:42:00      108.034       72.935       15.181       48.769       32.849       35.041     2378.453     1079.088     1227.855        1.095        0.234      130.349       16.342        0.016      334.659        4.776      861.405
04/03/2014  09:43:00       90.113       72.216       20.936       53.851       42.292       38.679     2899.891     1788.582     1496.045        0.998        0.309      115.480       30.184        0.068      334.963        5.283      861.400
04/03/2014  09:44:00       41.065       72.631        0.799       46.495       49.357       36.485     2161.809     2436.132     1331.124        0.644        0.296       83.436       32.336        0.150      335.076        5.471      861.399
04/03/2014  09:45:00       18.171       41.605       17.046       24.358       31.095       20.375      593.320      966.930      415.156        0.216        0.099       45.400       17.914        0.156      335.399        6.007      861.394
04/03/2014  09:46:00        9.913       34.675       35.111       29.392       36.457       35.560      863.902     1329.109     1264.537        0.299        0.173       36.064       17.652        0.240      335.749        6.590      861.392
04/03/2014  09:47:00       64.901      107.825       87.643       82.748       60.073       65.538     6847.164     3608.740     4295.295        1.913        0.738      125.850       65.369        0.270      335.066        5.452      861.392
04/03/2014  09:48:00       42.193       26.345       45.289       62.718       41.916       32.844     3933.573     1756.914     1078.709        0.565        0.338       49.742       23.437        0.222      335.231        5.729      861.405
04/03/2014  09:49:00       47.262       55.222       40.239       61.592       32.917       22.944     3793.616     1083.501      526.412        0.615        0.270       72.686       10.699        0.022      335.145        5.585      861.402
04/03/2014  09:50:00       35.836       34.915       -7.601       28.778       28.982       26.454      828.165      839.962      699.791        0.246        0.118       50.033       16.011        0.102      334.926        5.220      861.416
04/03/2014  09:51:00       24.596       44.582       10.289       32.339       33.254       31.145     1045.797     1105.858      969.997        0.291        0.156       50.917       23.602        0.215      335.279        5.808      861.414
04/03/2014  09:52:00       91.574       63.767       27.510       50.880       42.355       39.163     2588.815     1793.986     1533.724        0.956        0.296      111.589       19.930        0.032      335.256        5.769      861.410
04/03/2014  09:53:00      104.887       89.921       12.700       49.269       37.367       38.998     2427.440     1396.291     1520.816        1.230        0.267      138.156       16.354        0.014      334.829        5.058      861.413
04/03/2014  09:54:00       65.003       61.688        9.344       25.179       21.639       23.580      633.992      468.227      556.024        0.489        0.083       89.614       13.381        0.022      335.090        5.493      861.410
04/03/2014  09:55:00       66.296       77.253       -9.614       31.526       39.076       35.673      993.914     1526.972     1272.540        0.712        0.190      101.800       20.242        0.040      335.012        5.364      861.404
04/03/2014  09:56:00       18.767       85.178       -1.621       27.173       50.245       27.001      738.389     2524.560      729.045        0.580        0.200       87.221       25.916        0.088      334.865        5.119      861.409
04/03/2014  09:57:00       35.843       78.759       -5.126       27.474       45.745       28.877      754.802     2092.616      833.891        0.560        0.184       86.532       20.888        0.058      334.923        5.215      861.403
04/03/2014  09:58:00        3.321       29.133      -14.579       16.693       17.118       14.832      278.641      293.017      219.995        0.093        0.040       29.321       13.015        0.197      334.984        5.316      861.401
04/03/2014  09:59:00       23.068       14.320       13.639       28.623       18.337       24.883      819.293      336.249      619.179        0.135        0.089       27.152       15.246        0.315      335.378        5.972      861.397
04/03/2014  10:00:00        5.949       39.984       19.600       29.854       42.752       24.830      891.236     1827.718      616.522        0.268        0.167       40.425       18.576        0.211      335.827        6.721      861.393
04/03/2014  10:01:00       32.069       52.030       28.627       55.201       41.763       34.349     3047.113     1744.138     1179.834        0.526        0.299       61.120       33.978        0.309      335.691        6.495      861.387
04/03/2014  10:02:00       72.738       50.904       20.702       48.102       42.341       37.148     2313.813     1792.750     1379.980        0.690        0.274       88.781       16.834        0.036      335.414        6.033      861.380
04/03/2014  10:03:00       59.792       74.183       82.740       62.042       76.393       54.422     3849.246     5835.957     2961.724        1.428        0.632       95.279       41.391        0.189      335.388        5.988      861.376
04/03/2014  10:04:00       61.297       64.538       17.122       24.978       27.328       23.671      623.878      746.837      560.315        0.507        0.097       89.009       18.102        0.041      335.012        5.363      861.385
04/03/2014  10:05:00      175.413      111.470       37.031       60.409       46.019       49.901     3649.210     2117.792     2490.116        2.641        0.413      207.835       25.101        0.015      335.135        5.565      861.377
04/03/2014  10:06:00      122.453       79.708       19.554       69.511       47.093       50.995     4831.785     2217.725     2600.480        1.569        0.482      146.110       27.530        0.036      335.073        5.465      861.375
04/03/2014  10:07:00       79.338       51.622        2.871       44.001       36.293       38.014     1936.125     1317.158     1445.079        0.683        0.235       94.654       26.517        0.078      335.232        5.731      861.381
04/03/2014  10:08:00       93.248       63.623       17.766       78.679       38.551       33.582     6190.378     1486.181     1127.740        1.093        0.440      112.885       28.251        0.063      335.343        5.915      861.366
04/03/2014  10:09:00      196.598      103.521        8.363       66.646       57.767       43.265     4441.730     3337.070     1871.852        2.954        0.483      222.187       20.689        0.009      335.291        5.824      861.354
04/03/2014  10:10:00      180.691      118.708       11.277       41.734       39.166       30.696     1741.723     1533.989      942.241        2.554        0.211      216.196       13.680        0.004      334.972        5.294      861.366
04/03/2014  10:11:00       92.465       44.880       38.497       57.231       36.461       38.790     3275.387     1329.382     1504.656        0.908        0.305      102.781       36.013        0.123      335.326        5.886      861.355
04/03/2014  10:12:00       69.639      111.828       69.032       91.990       56.838       62.141     8462.229     3230.533     3861.444        1.883        0.778      131.739       48.254        0.134      335.726        6.550      861.343
04/03/2014  10:13:00      169.954       86.530        4.847       42.263       43.018       37.535     1786.158     1850.534     1408.885        2.072        0.252      190.714       10.963        0.003      335.323        5.879      861.346
04/03/2014  10:14:00      208.350       82.203       13.435       57.887       57.584       46.863     3350.880     3315.911     2196.109        2.960        0.443      223.980       31.839        0.020      335.306        5.849      861.348
04/03/2014  10:15:00       75.472       67.225       13.040       63.867       49.550       26.968     4078.974     2455.165      727.295        0.882        0.363      101.071       17.879        0.031      335.357        5.938      861.347
04/03/2014  10:16:00        0.476        0.488       38.192       21.320       35.017       40.452      454.541     1226.223     1636.364        0.239        0.166        0.682       34.970     2630.350      336.156        7.268      861.343
04/03/2014  10:17:00      121.014       67.405       48.288      100.732       67.746       49.675    10147.027     4589.553     2467.570        1.936        0.860      138.520       42.779        0.095      335.601        6.340      861.339
04/03/2014  10:18:00      132.711      116.367       58.470       79.128       52.991       67.910     6261.192     2808.072     4611.760        2.412        0.684      176.503       59.518        0.114      335.547        6.252      861.328
04/03/2014  10:19:00      109.104       76.940       -3.082       42.487       35.628       34.533     1805.179     1269.368     1192.547        1.105        0.213      133.505       19.212        0.021      335.185        5.650      861.361
04/03/2014  10:20:00       33.277       28.777       -5.215       41.595       23.148       28.197     1730.184      535.825      795.056        0.251        0.153       43.995       20.344        0.214      335.584        6.315      861.360
04/03/2014  10:21:00      111.430       74.478        7.420       45.258       53.695       42.027     2048.247     2883.130     1766.254        1.236        0.335      134.028       17.794        0.018      335.703        6.513      861.352
04/03/2014  10:22:00       40.495       12.983      -20.681       37.613       67.824       39.310     1414.767     4600.036     1545.285        0.490        0.378       42.525       33.121        0.607      335.611        6.361      861.356
04/03/2014  10:23:00       93.897       80.863       15.927       37.237       32.562       35.565     1386.581     1060.262     1264.860        0.966        0.186      123.917       21.146        0.029      335.492        6.162      861.350
04/03/2014  10:24:00       62.612       46.128       13.036       42.159       28.387       27.265     1777.378      805.849      743.390        0.477        0.166       77.769       13.500        0.030      335.711        6.527      861.331
04/03/2014  10:25:00       98.572       71.063       25.680       55.547       45.300       43.210     3085.433     2052.085     1867.125        1.121        0.350      121.516       39.710        0.107      335.875        6.800      861.322
04/03/2014  10:26:00       78.615      103.346       52.743       72.501       54.827       72.653     5256.371     3005.953     5278.443        1.659        0.677      129.849       38.691        0.089      336.282        7.478      861.311
04/03/2014  10:27:00       36.699       66.500       86.516       83.596       78.903       52.720     6988.308     6225.758     2779.366        1.462        0.800       75.954       46.677        0.378      336.420        7.708      861.303
04/03/2014  10:28:00       69.000       70.049       -2.942       49.955       33.647       37.978     2495.453     1132.108     1442.298        0.737        0.253       98.326       16.696        0.029      335.751        6.593      861.318
04/03/2014  10:29:00       79.895       47.190       -0.997       52.080       53.335       43.714     2712.284     2844.615     1910.935        0.804        0.373       92.791       36.682        0.156      335.652        6.428      861.321
04/03/2014  10:30:00      118.166      104.396       -4.329       63.585       42.696       50.416     4043.053     1822.955     2541.766        1.664        0.420      157.676       29.362        0.035      335.781        6.643      861.308
04/03/2014  10:31:00       64.306       84.649        5.090       43.269       30.956       36.762     1872.209      958.296     1351.438        0.775        0.209      106.305       10.074        0.009      336.018        7.040      861.306
04/03/2014  10:32:00       53.877      113.432      129.898       51.616       57.474       30.398     2664.184     3303.270      924.010        1.977        0.345      125.577       34.995        0.078      336.268        7.454      861.292
04/03/2014  10:33:00       52.812       86.061      108.015       61.018       75.522       51.369     3723.158     5703.505     2638.782        1.696        0.603      100.974       54.631        0.293      336.274        7.465      861.298
04/03/2014  10:34:00       66.267       29.173       56.464       71.943       73.587       65.906     5175.814     5414.982     4343.547        1.168        0.747       72.404       61.227        0.715      336.028        7.055      861.302
04/03/2014  10:35:00       20.705       15.953       62.585       56.437       57.405       37.308     3185.153     3295.351     1391.867        0.623        0.394       26.138       26.401        1.020      336.421        7.711      861.292
04/03/2014  10:36:00       30.339       17.160       33.506       61.359       45.365       33.366     3764.932     2058.024     1113.267        0.464        0.347       34.856       23.415        0.451      336.605        8.020      861.305
04/03/2014  10:37:00      116.501       69.480       35.422       76.065       54.020       43.565     5785.872     2918.118     1897.924        1.513        0.530      135.647       28.194        0.043      336.301        7.509      861.311
04/03/2014  10:38:00      112.583      127.964       94.852       72.729       69.510       59.785     5289.454     4831.647     3574.223        2.587        0.685      170.440       45.847        0.072      335.976        6.966      861.307
04/03/2014  10:39:00       41.020       91.045       86.389       50.588       45.455       36.540     2559.165     2066.167     1335.156        1.170        0.298       99.859       33.325        0.111      336.009        7.023      861.308
04/03/2014  10:40:00      118.069      109.026       85.031      113.992       70.303       62.016    12994.087     4942.526     3845.998        2.742        1.089      160.708       42.855        0.071      336.485        7.816      861.298
04/03/2014  10:41:00       59.567       76.821       84.508       65.685       52.366       55.323     4314.580     2742.200     3060.630        1.335        0.506       97.210       39.659        0.166      336.568        7.958      861.301
04/03/2014  10:42:00      117.677       84.437       22.006       34.182       32.386       43.415     1168.403     1048.877     1884.820        1.278        0.205      144.836       16.447        0.013      335.919        6.872      861.316
04/03/2014  10:43:00       98.137      110.665       13.017       29.094       23.358       32.557      846.446      545.614     1059.977        1.225        0.123      147.910       15.285        0.011      335.835        6.733      861.292
04/03/2014  10:44:00       23.713      -14.913       39.408       36.016       56.906       30.468     1297.188     3238.246      928.281        0.390        0.273       28.012       27.031        0.931      336.770        8.295      861.275
04/03/2014  10:45:00      148.544       88.414       35.023       65.499       38.426       45.249     4290.058     1476.532     2047.466        1.946        0.391      172.865       30.173        0.030      336.132        7.228      861.268
04/03/2014  10:46:00      154.560       70.649       18.670       64.757       47.131       44.048     4193.420     2221.318     1940.218        1.879        0.418      169.941       37.461        0.049      336.334        7.565      861.249
04/03/2014  10:47:00       36.399       66.693      105.084       60.525       57.015       32.421     3663.254     3250.714     1051.119        1.239        0.398       75.980       22.504        0.088      336.956        8.606      861.225
04/03/2014  10:48:00       77.910      -95.992       10.124       58.436       73.785       46.751     3414.736     5444.281     2185.690        1.321        0.552      123.630       38.983        0.099      336.595        8.001      861.211
04/03/2014  10:49:00       71.381      -73.254       16.231       53.742       53.108       40.005     2888.163     2820.418     1600.422        0.902        0.365      102.281       38.471        0.141      336.672        8.131      861.208
04/03/2014  10:50:00       53.984       71.739       90.012       60.023       59.178       38.853     3602.790     3502.059     1509.584        1.239        0.431       89.781       45.276        0.254      336.727        8.223      861.200
04/03/2014  10:51:00       27.834      -22.603       52.780       49.995       77.719       44.444     2499.468     6040.274     1975.281        0.729        0.526       35.856       51.111        2.032      337.046        8.758      861.194
04/03/2014  10:52:00       60.811      -23.631       35.054       45.634       59.125       34.893     2082.492     3495.764     1217.525        0.614        0.340       65.241       32.219        0.244      336.684        8.152      861.187
04/03/2014  10:53:00       28.769        7.154       13.948       51.414       29.520       30.689     2643.428      871.417      941.837        0.276        0.223       29.645       19.249        0.422      337.206        9.025      861.180
04/03/2014  10:54:00       69.890       36.381       52.782       77.349       68.847       52.898     5982.919     4739.880     2798.241        1.125        0.676       78.792       39.336        0.249      336.902        8.515      861.155
04/03/2014  10:55:00       68.097      -65.038       33.299       72.481       87.224       61.856     5253.561     7607.975     3826.150        1.333        0.834       94.166       67.506        0.514      337.038        8.742      861.138
04/03/2014  10:56:00       80.996      121.575      129.275       82.187       99.267       54.065     6754.762     9853.934     2923.064        2.879        0.977      146.085       51.544        0.124      336.792        8.329      861.116
04/03/2014  10:57:00       37.332      -63.214       32.674      106.689      104.583       56.074    11382.466    10937.502     3144.258        1.596        1.273       73.414       50.701        0.477      336.982        8.648      861.129
04/03/2014  10:58:00        9.346      -27.833       54.299       27.519       68.478       34.356      757.318     4689.190     1180.314        0.522        0.331       29.360       34.596        1.389      337.184        8.988      861.131
04/03/2014  10:59:00       20.463        1.223       33.815       25.632       69.796       33.643      657.017     4871.531     1131.846        0.411        0.333       20.499       41.339        4.067      336.518        7.874      861.137
04/03/2014  11:00:00       31.331       23.704       65.158       39.606       67.541       37.011     1568.669     4561.762     1369.808        0.664        0.375       39.288       41.127        1.096      336.962        8.616      861.126
04/03/2014  11:01:00       46.505     -130.792        2.970       55.975       97.051       45.201     3133.214     9418.918     2043.157        1.693        0.730      138.814       49.563        0.127      336.879        8.476      861.114
04/03/2014  11:02:00       42.257     -162.698       -6.742       57.924       77.990       44.250     3355.138     6082.393     1958.025        1.985        0.570      168.096       45.656        0.074      336.693        8.165      861.103
04/03/2014  11:03:00      -18.557       16.698        9.528       61.406       68.248       41.431     3770.663     4657.744     1716.521        0.543        0.507       24.964       32.504        1.695      336.939        8.577      861.087
04/03/2014  11:04:00      -80.449        1.669       -5.945       41.333       50.625       22.507     1708.436     2562.922      506.551        0.564        0.239       80.466        9.239        0.013      336.837        8.407      861.071
04/03/2014  11:05:00      -32.402       31.629       34.481       34.899       30.195       54.519     1217.964      911.760     2972.375        0.417        0.255       45.280       34.193        0.570      337.267        9.128      861.072
04/03/2014  11:06:00       27.936      -97.430        7.432       65.299      114.857       61.546     4263.906    13192.113     3787.910        1.578        1.062      101.356       66.308        0.428      337.210        9.030      861.063
04/03/2014  11:07:00       49.192       12.389       49.504       62.778       67.963       48.423     3941.033     4618.919     2344.739        0.796        0.545       50.728       54.564        1.157      337.208        9.027      861.065
04/03/2014  11:08:00        3.250      -42.994       15.061       33.258       56.506       28.452     1106.112     3192.898      809.493        0.360        0.255       43.117       33.796        0.614      337.500        9.516      861.059
04/03/2014  11:09:00      -22.214        1.111       61.313       36.472       58.209       28.704     1330.177     3388.259      823.918        0.490        0.277       22.242       31.525        2.009      337.662        9.788      861.040
04/03/2014  11:10:00        8.399      -11.816       56.824       39.777       94.808       39.735     1582.222     8988.520     1578.877        0.779        0.607       14.497       47.466       10.720      337.505        9.525      861.041
04/03/2014  11:11:00       91.217      110.230      112.888       90.275      105.746       68.351     8149.520    11182.116     4671.833        2.860        1.200      143.077       60.633        0.180      337.011        8.696      861.018
04/03/2014  11:12:00      105.668      132.620      152.434       76.094       75.621       56.841     5790.303     5718.558     3230.930        3.336        0.737      169.570       39.824        0.055      337.029        8.724      861.007
04/03/2014  11:13:00      189.925      100.769       84.845       67.240       67.498       66.044     4521.211     4556.010     4361.824        3.343        0.672      215.002       52.679        0.060      336.767        8.286      861.005
04/03/2014  11:14:00      126.144       85.087       70.046       88.681       74.424       51.377     7864.310     5538.938     2639.610        2.205        0.802      152.158       39.096        0.066      337.333        9.236      860.992
04/03/2014  11:15:00      222.363      144.524       66.071       82.664       78.412       85.029     6833.316     6148.468     7229.912        4.745        1.011      265.203       64.430        0.059      336.978        8.638      860.974
04/03/2014  11:16:00       38.991       95.674      133.163       87.258       83.928       77.959     7613.993     7043.890     6077.619        2.457        1.037      103.314       71.446        0.478      337.251        9.096      860.977
04/03/2014  11:17:00       77.679      146.588      157.087       99.378       89.747       65.401     9876.083     8054.564     4277.342        3.720        1.110      165.897       60.591        0.133      336.951        8.594      860.963
04/03/2014  11:18:00       91.369      103.231       88.792       84.276       56.070       54.583     7102.381     3143.883     2979.336        2.005        0.661      137.858       48.309        0.123      336.948        8.590      860.976
04/03/2014  11:19:00       59.759      -37.783       40.697       74.292      110.558       66.885     5519.234    12223.027     4473.581        1.443        1.111       70.701       77.757        1.210      337.328        9.227      860.984
04/03/2014  11:20:00       53.485      -37.742       27.891       47.231      100.557       56.514     2230.806    10111.682     3193.871        1.030        0.777       65.460       70.021        1.144      337.243        9.087      860.982
04/03/2014  11:21:00       43.516      -66.732        9.686       55.542       79.047       36.351     3084.870     6248.463     1321.397        0.855        0.533       79.667       40.793        0.262      337.446        9.426      860.961
04/03/2014  11:22:00       74.380      -43.222       11.929       48.174       67.511       51.213     2320.747     4557.792     2622.811        0.852        0.475       86.026       53.047        0.380      337.334        9.238      860.953
04/03/2014  11:23:00      -16.338       17.544       87.002       33.857       67.418       58.406     1146.286     4545.119     3411.255        0.862        0.455       23.974       52.070        4.718      338.006       10.364      860.945
04/03/2014  11:24:00       89.990       29.169       84.562       88.918      102.766       64.636     7906.333    10560.790     4177.763        1.937        1.132       94.599       69.701        0.543      337.417        9.376      860.940
04/03/2014  11:25:00       69.027       36.422       76.622       74.600      107.858       49.452     5565.216    11633.394     2445.464        1.580        0.982       78.046       62.057        0.632      337.419        9.380      860.923
04/03/2014  11:26:00      140.544      112.421       62.057       57.829       44.438       49.075     3344.187     1974.745     2408.397        2.198        0.386      179.975       30.766        0.029      337.183        8.985      860.919
04/03/2014  11:27:00      111.698       70.701       43.127       69.599       46.776       45.573     4843.993     2187.965     2076.876        1.422        0.455      132.193       37.896        0.082      336.825        8.387      860.913
04/03/2014  11:28:00       14.042       74.755      102.417       39.445       72.127       31.673     1555.880     5202.272     1003.193        1.202        0.388       76.062       38.783        0.260      337.233        9.069      860.885
04/03/2014  11:29:00       74.617       73.145       27.398       50.441       51.768       53.814     2544.255     2679.939     2895.933        0.989        0.406      104.489       34.519        0.109      336.925        8.555      860.882
04/03/2014  11:30:00      112.324       84.472       46.550       67.694       96.249       45.775     4582.498     9263.868     2095.306        1.893        0.797      140.543       39.955        0.081      337.164        8.953      860.862
04/03/2014  11:31:00       80.525       90.767       54.650       73.401       51.963       45.802     5387.764     2700.132     2097.827        1.395        0.509      121.338       24.534        0.041      337.622        9.720      860.844
04/03/2014  11:32:00       16.690      -15.225       26.126       51.072       64.336       31.764     2608.354     4139.092     1008.949        0.447        0.388       22.591       22.562        0.997      337.675        9.811      860.819
04/03/2014  11:33:00       13.240        7.142       15.791       53.839       55.549       35.884     2898.591     3085.644     1287.643        0.387        0.364       15.043       26.217        3.037      338.145       10.597      860.802
04/03/2014  11:34:00       42.172       96.520      -10.049       50.834       61.913       29.739     2584.120     3833.280      884.393        0.925        0.365      105.331       32.512        0.095      337.612        9.703      860.813
04/03/2014  11:35:00       96.539       77.723        0.368       98.100       81.110       43.655     9623.682     6578.896     1905.743        1.673        0.905      123.938       41.880        0.114      337.685        9.825      860.796
04/03/2014  11:36:00      141.551      137.527       17.255       79.623       57.925       51.166     6339.814     3355.251     2617.992        2.578        0.616      197.359       32.393        0.027      337.146        8.921      860.795
04/03/2014  11:37:00       23.532      105.051      -10.847       34.735       49.753       33.566     1206.518     2475.333     1126.644        0.826        0.240      107.655       29.421        0.075      337.159        8.946      860.791
04/03/2014  11:38:00      117.594       85.105       22.822       69.342       51.414       45.068     4808.328     2643.388     2031.093        1.554        0.474      145.159       29.801        0.042      337.404        9.354      860.784
04/03/2014  11:39:00      108.293       62.308       29.202       63.896       61.039       39.679     4082.752     3725.721     1574.386        1.292        0.469      124.938       29.799        0.057      337.653        9.771      860.771
04/03/2014  11:40:00      134.153       94.613       21.974       58.414       47.690       45.189     3412.146     2274.311     2042.074        1.758        0.386      164.161       28.734        0.031      337.406        9.358      860.754
04/03/2014  11:41:00      100.702       91.451       77.015       67.337       61.988       69.794     4534.224     3842.499     4871.164        1.884        0.662      136.030       53.159        0.153      337.528        9.563      860.732
04/03/2014  11:42:00       96.918      110.807       98.552       93.099       81.501       80.012     8667.422     6642.476     6402.000        2.654        1.086      147.211       53.664        0.133      337.507        9.525      860.714
04/03/2014  11:43:00      155.449       60.581       87.334       82.595       69.869       65.251     6821.916     4881.645     4257.751        2.571        0.798      166.836       57.044        0.117      337.344        9.253      860.706
04/03/2014  11:44:00      164.389      114.447       52.142       72.429       63.252       54.550     5245.999     4000.865     2975.655        2.753        0.611      200.305       37.109        0.034      336.951        8.594      860.698
04/03/2014  11:45:00       60.118       93.215      108.528       59.352       65.701       47.244     3522.715     4316.597     2231.978        1.707        0.504      110.920       40.901        0.136      337.293        9.169      860.697
04/03/2014  11:46:00       49.872       64.026       78.870       55.491       55.832       40.272     3079.268     3117.160     1621.809        1.031        0.391       81.158       40.757        0.252      337.586        9.661      860.681
04/03/2014  11:47:00      125.261      108.767       59.837       79.968       51.514       53.237     6394.911     2653.664     2834.178        2.149        0.594      165.893       47.134        0.081      337.234        9.068      860.678
04/03/2014  11:48:00        9.317        6.309       -0.253       45.731       51.892       40.753     2091.326     2692.729     1660.784        0.328        0.322       11.252       28.252        6.305      337.234        9.071      860.667
04/03/2014  11:49:00       73.924       93.193        0.790       90.572       48.315       46.961     8203.247     2334.366     2205.324        1.344        0.637      118.953       40.489        0.116      337.183        8.985      860.667
04/03/2014  11:50:00       24.800      113.487       -6.106       40.819       42.956       25.212     1666.150     1845.228      635.635        0.884        0.207      116.165       22.360        0.037      337.177        8.975      860.648
04/03/2014  11:51:00       88.814       45.149        5.009       45.656       34.771       37.320     2084.505     1209.026     1392.749        0.732        0.234       99.631       26.437        0.070      337.203        9.019      860.648
04/03/2014  11:52:00       41.119       29.172       26.829       60.010       33.669       31.380     3601.194     1133.610      984.711        0.449        0.286       50.416       20.598        0.167      338.013       10.378      860.653
04/03/2014  11:53:00      124.068      124.823       34.656       71.797       61.790       48.612     5154.827     3818.053     2363.167        2.175        0.567      175.993       27.816        0.025      337.207        9.024      860.657
04/03/2014  11:54:00        5.354       23.056       22.284       46.872       58.957       41.290     2197.028     3475.902     1704.834        0.422        0.369       23.669       32.834        1.924      337.450        9.433      860.653
04/03/2014  11:55:00      -64.374      -44.091      -14.337       99.446       60.116       31.663     9889.595     3613.992     1002.544        1.040        0.725       78.026       35.824        0.211      337.420        9.381      860.625
04/03/2014  11:56:00       36.073       27.336       64.153       46.709       73.461       40.594     2181.701     5396.453     1647.896        0.769        0.461       45.260       38.655        0.729      337.898       10.184      860.639
04/03/2014  11:57:00       70.339      111.376      118.811      102.456       82.496       69.314    10497.288     6805.518     4804.496        2.678        1.105      131.728       65.171        0.245      337.659        9.779      860.610
04/03/2014  11:58:00      119.074      136.364      106.288       65.100       75.483       57.439     4238.032     5697.641     3299.229        2.865        0.662      181.035       55.910        0.095      337.379        9.310      860.615
04/03/2014  11:59:00       47.458      117.296      103.275       58.669       54.507       39.672     3441.998     2971.007     1573.863        1.733        0.399      126.533       36.910        0.085      337.344        9.255      860.604
04/03/2014  12:00:00       47.487       -2.127       -1.035       64.709       49.944       37.157     4187.201     2494.360     1380.651        0.516        0.403       47.535       28.183        0.352      337.288        9.161      860.598
04/03/2014  12:01:00      -52.406      102.665      -19.298       41.851       80.889       30.551     1751.546     6543.073      933.358        1.144        0.461      115.268       23.528        0.042      337.182        8.983      860.579
04/03/2014  12:02:00     -112.003      171.548      -24.348       44.980       67.191       53.288     2023.170     4514.592     2839.616        2.597        0.469      204.874       30.402        0.022      337.325        9.222      860.558
04/03/2014  12:03:00     -124.444       55.983       -2.335       66.862       42.458       34.356     4470.479     1802.671     1180.301        1.304        0.373      136.457       37.029        0.074      337.366        9.290      860.551
04/03/2014  12:04:00      -38.539       45.791       13.870       42.672       41.170       34.754     1820.866     1694.975     1207.837        0.425        0.236       59.850       25.147        0.177      338.208       10.705      860.543
04/03/2014  12:05:00      -36.937       78.387        1.228       73.913       45.634       34.137     5463.201     2082.451     1165.308        0.811        0.436       86.654       28.168        0.106      337.819       10.051      860.544
04/03/2014  12:06:00      -56.653      -12.989      -20.720       56.396       85.096       43.090     3180.507     7241.297     1856.777        0.804        0.614       58.123       39.319        0.458      337.317        9.210      860.532
04/03/2014  12:07:00     -145.858       -6.834      -12.768       42.938       30.007       16.813     1843.650      900.409      282.661        1.225        0.151      146.018       18.483        0.016      337.156        8.940      860.520
04/03/2014  12:08:00        1.694       41.554       38.064       53.129       37.054       35.003     2822.688     1372.975     1225.200        0.430        0.271       41.589       31.485        0.573      338.282       10.828      860.489
04/03/2014  12:09:00      133.621      111.741        8.272       78.660       32.877       42.193     6187.408     1080.910     1780.259        1.973        0.452      174.186       32.916        0.036      338.199       10.687      860.496
04/03/2014  12:10:00      -28.032       63.559       24.234       45.019       42.063       55.523     2026.695     1769.263     3082.803        0.614        0.344       69.466       40.896        0.347      338.561       11.297      860.508
04/03/2014  12:11:00       44.727       18.919       66.332       32.463       61.230       41.734     1053.839     3749.093     1741.743        0.665        0.327       48.564       39.545        0.663      338.550       11.278      860.509
04/03/2014  12:12:00        3.517       -5.148       15.044       53.565       32.672       24.679     2869.240     1067.437      609.054        0.240        0.227        6.235       26.067       17.479      338.373       10.980      860.507
04/03/2014  12:13:00      105.441      -99.685        2.894       76.528       88.546       61.951     5856.587     7840.462     3837.885        1.930        0.877      145.103       45.324        0.098      337.919       10.215      860.497
04/03/2014  12:14:00       44.557       40.021       53.050       51.501       82.059       44.136     2652.396     6733.643     1947.985        0.887        0.567       59.891       48.028        0.643      338.555       11.287      860.488
04/03/2014  12:15:00      117.489      117.471       71.342       51.967       45.691       50.242     2700.582     2087.632     2524.223        2.000        0.366      166.142       25.840        0.024      337.709        9.865      860.483
04/03/2014  12:16:00       50.603      -37.668       55.592       72.887      101.186       61.274     5312.550    10238.697     3754.511        1.318        0.965       63.083       52.460        0.692      338.164       10.630      860.478
04/03/2014  12:17:00       65.141       39.113       99.809       69.069       85.300       60.180     4770.502     7276.078     3621.636        1.570        0.783       75.982       51.581        0.461      338.218       10.720      860.470
04/03/2014  12:18:00       64.097      -39.824       38.780       56.186       65.256       44.403     3156.830     4258.336     1971.607        0.829        0.469       75.461       41.922        0.309      338.106       10.532      860.474
04/03/2014  12:19:00       18.905      -64.415       40.291       65.802      100.600       55.404     4329.952    10120.429     3069.622        1.182        0.876       67.132       54.233        0.653      338.263       10.795      860.443
04/03/2014  12:20:00       69.211      -40.204       24.909       60.429       91.514       56.354     3651.715     8374.780     3175.817        1.111        0.760       80.041       63.431        0.628      337.914       10.210      860.445
04/03/2014  12:21:00       47.441       14.908       58.096       59.068       92.578       60.588     3489.037     8570.611     3670.901        1.079        0.787       49.728       65.779        1.750      338.428       11.072      860.422
04/03/2014  12:22:00       30.927      -33.573       26.726       56.962       82.968       44.833     3244.679     6883.770     2010.008        0.747        0.607       45.647       47.398        1.078      338.347       10.938      860.407
04/03/2014  12:23:00       30.605       35.134       68.300       41.291       34.502       28.324     1704.917     1190.415      802.275        0.527        0.185       46.595       19.012        0.166      338.744       11.605      860.411
04/03/2014  12:24:00       18.961      -19.449       10.284       25.566       38.630       29.571      653.612     1492.276      874.426        0.193        0.151       27.162       17.707        0.425      338.647       11.440      860.406
04/03/2014  12:25:00       31.701      -69.300       -1.226       75.961       88.724       55.418     5770.052     7871.963     3071.120        1.126        0.836       76.207       63.216        0.688      338.581       11.329      860.401
04/03/2014  12:26:00       36.690       28.259       79.643       68.305      100.334       67.739     4665.624    10066.902     4588.627        1.390        0.966       46.311       77.842        2.825      338.451       11.110      860.383
04/03/2014  12:27:00       63.258        1.999       33.452       40.431       60.314       47.621     1634.686     3637.747     2267.739        0.633        0.377       63.290       36.702        0.336      338.335       10.919      860.387
04/03/2014  12:28:00       26.697       89.440        2.411       38.634       53.835       37.608     1492.618     2898.256     1414.399        0.726        0.290       93.340       32.311        0.120      338.043       10.427      860.355
04/03/2014  12:29:00     -118.489       64.642       -3.596       62.939       44.539       39.632     3961.370     1983.719     1570.715        1.287        0.376      134.975       27.681        0.042      338.201       10.692      860.333
04/03/2014  12:30:00       -0.524     -118.835       -9.904       48.715       56.443       31.812     2373.175     3185.804     1012.002        1.039        0.329      118.837       18.559        0.024      338.221       10.726      860.323
04/03/2014  12:31:00       46.088      -37.145       56.477       80.010      117.225       76.221     6401.607    13741.585     5809.644        1.632        1.298       59.193       78.524        1.760      338.647       11.440      860.305
04/03/2014  12:32:00      -18.917      -61.778       16.288       38.876       54.121       33.669     1511.370     2929.061     1133.601        0.501        0.279       64.609       31.047        0.231      337.897       10.183      860.344
04/03/2014  12:33:00       63.402      100.115       44.181       72.868       50.758       59.493     5309.686     2576.376     3539.463        1.371        0.571      118.503       39.341        0.110      338.461       11.127      860.335
04/03/2014  12:34:00       90.600       59.484       32.282       96.437       67.030       53.176     9300.058     4492.982     2827.655        1.470        0.831      108.382       51.858        0.229      338.078       10.485      860.320
04/03/2014  12:35:00      127.455      109.177       21.549       49.290       37.265       42.340     2429.519     1388.712     1792.690        1.712        0.281      167.823       23.628        0.020      337.960       10.287      860.313
04/03/2014  12:36:00      144.853       70.076       26.936       59.420       54.800       46.541     3530.712     3003.000     2166.085        1.766        0.435      160.913       22.216        0.019      337.961       10.286      860.294
04/03/2014  12:37:00      196.533      124.623       34.100       99.403       68.102       40.249     9881.004     4637.866     1620.019        3.573        0.807      232.714       19.060        0.007      337.669        9.797      860.274
04/03/2014  12:38:00      218.402      161.334       30.205       56.795       47.917       50.055     3225.653     2296.053     2505.464        4.133        0.401      271.529       20.893        0.006      337.704        9.854      860.264
04/03/2014  12:39:00      134.429      147.088      120.263      142.691      104.159       86.380    20360.640    10849.013     7461.583        4.641        1.934      199.263       72.046        0.131      338.480       11.157      860.217
04/03/2014  12:40:00      122.137      141.284      145.982      118.415      103.749       74.682    14022.002    10763.900     5577.475        4.327        1.518      186.759       67.479        0.131      338.431       11.074      860.198
04/03/2014  12:41:00      160.139      100.017       97.454       90.419       91.888       69.396     8175.660     8443.361     4815.742        3.329        1.072      188.807       59.194        0.098      338.544       11.266      860.199
04/03/2014  12:42:00      120.904      167.207      139.354      104.538       70.230       80.068    10928.292     4932.205     6410.946        4.213        1.114      206.340       56.698        0.076      338.429       11.071      860.194
04/03/2014  12:43:00       54.835       42.746       85.051       91.712      108.945       81.181     8411.096    11869.081     6590.390        1.946        1.344       69.528       74.972        1.163      338.460       11.126      860.228
04/03/2014  12:44:00       23.182      -18.437       26.473       55.639       93.207       52.409     3095.692     8687.583     2746.692        0.805        0.726       29.620       31.134        1.105      338.433       11.081      860.243
04/03/2014  12:45:00      -13.383       25.784       67.195       23.158       51.506       38.004      536.303     2652.818     1444.342        0.500        0.232       29.050       33.706        1.346      338.884       11.838      860.249
04/03/2014  12:46:00      -13.006     -109.587       -2.188       60.587       70.495       34.104     3670.820     4969.569     1163.060        1.099        0.490      110.356       20.834        0.036      338.321       10.892      860.269
04/03/2014  12:47:00      -55.792      -93.229       17.067       59.820       87.952       41.562     3578.413     7735.599     1727.440        1.257        0.652      108.648       42.640        0.154      337.976       10.314      860.258
04/03/2014  12:48:00      -53.823      -69.059       -9.206       45.431       66.490       30.559     2063.938     4420.920      933.840        0.758        0.371       87.556       27.540        0.099      337.764        9.959      860.233
04/03/2014  12:49:00      -82.778       -7.772       -4.465       57.815       56.609       28.020     3342.543     3204.626      785.119        0.713        0.367       83.143       27.313        0.108      338.379       10.990      860.216
04/03/2014  12:50:00     -116.942       -1.608        6.852       81.316       67.573       36.640     6612.292     4566.047     1342.490        1.312        0.626      116.953       41.355        0.125      338.388       11.004      860.210
04/03/2014  12:51:00     -192.844      -43.026        2.182       83.924       73.744       37.422     7043.179     5438.195     1400.407        2.646        0.694      197.585       30.215        0.023      337.901       10.186      860.206
04/03/2014  12:52:00      -75.304      -24.072       -1.550       59.837       40.571       15.680     3580.421     1646.007      245.847        0.586        0.274       79.058       11.489        0.021      337.827       10.064      860.222
04/03/2014  12:53:00       24.375       36.576       53.265       48.134       39.664       38.198     2316.893     1573.272     1459.052        0.506        0.267       43.953       27.923        0.404      338.673       11.484      860.201
04/03/2014  12:54:00       75.485       40.775       56.658       54.309       42.322       56.515     2949.431     1791.155     3193.961        0.925        0.397       85.794       25.531        0.089      338.095       10.513      860.189
04/03/2014  12:55:00       39.214      -16.238       23.462       65.224       76.829       48.010     4254.189     5902.627     2304.916        0.740        0.623       42.443       45.915        1.170      338.302       10.860      860.155
04/03/2014  12:56:00       61.082       41.346       28.028       42.839       31.196       21.050     1835.207      973.218      443.108        0.474        0.163       73.760       12.481        0.029      338.397       11.021      860.136
04/03/2014  12:57:00       63.993       30.683       35.080       42.187       31.465       45.056     1779.717      990.049     2030.019        0.553        0.240       70.969       19.106        0.072      338.589       11.344      860.128
04/03/2014  12:58:00      -13.450       60.240       13.633       38.541       83.748       38.574     1485.403     7013.649     1487.954        0.699        0.499       61.724       42.975        0.485      338.713       11.551      860.115
04/03/2014  12:59:00       39.685       27.847        3.474       54.993       32.874       31.855     3024.238     1080.728     1014.749        0.374        0.256       48.480       22.588        0.217      338.625       11.404      860.098
04/03/2014  13:00:00       -7.728       78.206        8.562       63.869       50.628       33.278     4079.186     2563.223     1107.447        0.700        0.387       78.587       32.772        0.174      338.794       11.688      860.081
04/03/2014  13:01:00      -24.043      164.486      -22.129       39.796       85.165       31.082     1583.703     7252.997      966.111        1.896        0.490      166.234       31.828        0.037      338.371       10.976      860.061
04/03/2014  13:02:00      -27.908      212.633      -25.414       31.543       48.197       23.265      994.979     2322.918      541.246        2.525        0.193      214.457       14.732        0.005      338.112       10.541      860.054
04/03/2014  13:03:00        7.563      265.736      -34.053       43.186       45.390       34.676     1865.001     2060.291     1202.419        3.848        0.256      265.844       30.081        0.013      338.271       10.805      860.040
04/03/2014  13:04:00      -47.114      164.433        6.171       55.911       88.000       49.799     3126.023     7744.055     2479.930        2.132        0.668      171.050       50.070        0.086      338.798       11.693      860.026
04/03/2014  13:05:00      -14.618      166.886       -7.034       53.882       83.049       48.154     2903.298     6897.161     2318.813        2.011        0.606      167.525       54.138        0.104      338.362       10.960      860.000
04/03/2014  13:06:00      -39.315      142.322       -7.816       40.571       93.496       34.581     1646.000     8741.568     1195.847        1.672        0.579      147.653       41.913        0.081      338.332       10.912      859.981
04/03/2014  13:07:00      -28.985      125.677       13.752       42.598       90.576       42.945     1814.615     8204.022     1844.292        1.434        0.593      128.976       42.126        0.107      338.837       11.759      859.968
04/03/2014  13:08:00      -68.547      172.525       -8.542       56.417       79.550       39.180     3182.831     6328.179     1535.064        2.279        0.552      185.643       38.854        0.044      338.636       11.421      859.956
04/03/2014  13:09:00      -46.871      172.626      -12.905       44.181       64.103       41.576     1951.939     4109.234     1728.540        1.997        0.389      178.876       34.598        0.037      338.474       11.149      859.965
04/03/2014  13:10:00       29.433       92.921        0.554       41.523       61.457       44.473     1724.185     3777.021     1977.839        0.849        0.374       97.471       34.788        0.127      338.570       11.311      859.950
04/03/2014  13:11:00        2.226       12.393       14.180       82.835       62.099       35.015     6861.676     3856.285     1226.082        0.615        0.597       12.591       22.029        3.061      338.763       11.636      859.941
04/03/2014  13:12:00      -32.310      -39.904       25.202       60.727       55.742       45.413     3687.790     3107.160     2062.352        0.606        0.443       51.345       42.326        0.680      338.694       11.521      859.941
04/03/2014  13:13:00      -36.424      -95.426       -2.987       33.387       41.810       29.426     1114.663     1748.062      865.910        0.708        0.186      102.141       19.767        0.037      338.229       10.738      859.949
04/03/2014  13:14:00      -85.336     -144.062       -0.092       60.494       89.313       33.249     3659.491     7976.759     1105.505        2.039        0.637      167.440       28.209        0.028      338.226       10.733      859.933
04/03/2014  13:15:00      -87.823      -84.521       16.910       88.667       62.593       44.460     7861.879     3917.884     1976.674        1.445        0.688      121.888       53.247        0.191      338.583       11.333      859.912
04/03/2014  13:16:00     -213.659     -164.074        8.117      113.820      106.568       51.652    12955.083    11356.731     2667.896        4.980        1.349      269.389       43.217        0.026      338.216       10.714      859.889
04/03/2014  13:17:00     -202.734     -179.517      -10.886      100.519       74.824       55.071    10104.056     5598.668     3032.861        4.609        0.937      270.791       53.654        0.039      338.058       10.448      859.893
04/03/2014  13:18:00     -142.122      -54.265      -10.802       75.471       54.549       32.094     5695.905     2975.610     1030.015        1.648        0.485      152.130       37.641        0.061      338.209       10.704      859.894
04/03/2014  13:19:00     -172.289      -94.223       -1.538       87.405       67.980       42.433     7639.622     4621.275     1800.531        2.631        0.703      196.371       46.894        0.057      338.315       10.881      859.871
04/03/2014  13:20:00      -81.409      -59.826        9.660      132.256       73.574       58.037    17491.574     5413.186     3368.347        1.828        1.314      101.028       65.535        0.421      338.681       11.496      859.849
04/03/2014  13:21:00     -193.739     -105.509        0.686       97.156       94.702       56.926     9439.280     8968.406     3240.591        3.515        1.082      220.606       61.425        0.078      338.404       11.029      859.862
04/03/2014  13:22:00      -97.199      -68.118       -8.314       85.255       74.868       38.620     7268.457     5605.261     1491.499        1.426        0.718      118.691       30.765        0.067      338.359       10.955      859.858
04/03/2014  13:23:00     -170.973      -71.104       -3.863       69.447       60.112       40.498     4822.933     3613.445     1640.113        2.219        0.504      185.169       31.611        0.029      338.385       10.998      859.862
04/03/2014  13:24:00      -72.436      -17.125       14.602       47.275       48.345       29.402     2234.939     2337.220      864.464        0.559        0.272       74.433       24.127        0.105      338.722       11.565      859.838
04/03/2014  13:25:00     -153.566       28.759      -17.744       52.554       34.357       27.098     2761.973     1180.431      734.320        1.470        0.234      156.236       18.813        0.015      338.052       10.441      859.833
04/03/2014  13:26:00     -115.446        9.829      -21.520       42.247       34.659       19.195     1784.844     1201.278      368.464        0.862        0.168      115.864       17.686        0.023      338.150       10.605      859.820
04/03/2014  13:27:00     -219.502      -23.495        0.824      132.184       88.724       53.975    17472.494     7871.995     2913.281        3.849        1.413      220.756       45.965        0.043      338.526       11.235      859.810
04/03/2014  13:28:00     -162.766     -100.279       11.504      111.566       97.868       67.692    12447.021     9578.208     4582.213        3.164        1.330      191.177       65.748        0.118      338.577       11.322      859.801
04/03/2014  13:29:00     -162.196     -126.726        1.814       68.012       79.921       50.554     4625.686     6387.335     2555.741        2.797        0.678      205.833       37.160        0.033      338.738       11.590      859.802
04/03/2014  13:30:00     -128.947     -173.528      -10.806       58.749       70.035       34.138     3451.395     4904.968     1165.371        2.819        0.476      216.192       24.484        0.013      338.167       10.634      859.806
04/03/2014  13:31:00       -5.015      -38.528       -2.151       39.993       23.563       26.832     1599.441      555.233      719.957        0.219        0.144       38.853       21.814        0.315      338.548       11.275      859.811
04/03/2014  13:32:00     -138.164      -31.581       -3.675       45.903       60.133       31.119     2107.093     3616.013      968.384        1.339        0.335      141.727       25.126        0.031      338.304       10.864      859.817
04/03/2014  13:33:00     -165.148      -99.756        1.327      144.023       83.257       43.220    20742.501     6931.671     1867.991        3.338        1.477      192.939       46.688        0.059      338.504       11.199      859.826
04/03/2014  13:34:00     -249.981      -92.674       -6.117       93.072       85.661       48.901     8662.481     7337.819     2391.337        4.475        0.920      266.607       44.516        0.028      338.366       10.967      859.828
04/03/2014  13:35:00     -133.678     -113.283       -4.538      132.814       74.080       43.652    17639.478     5487.873     1905.491        2.787        1.252      175.222       57.504        0.108      338.419       11.055      859.824
04/03/2014  13:36:00     -238.598     -116.846      -10.248      101.339       80.253       55.400    10269.589     6440.550     3069.140        4.523        0.989      265.673       57.690        0.047      338.201       10.689      859.824
04/03/2014  13:37:00     -163.194     -141.082        3.884       95.360       65.289       48.592     9093.606     4262.628     2361.161        3.113        0.786      215.723       46.166        0.046      338.379       10.989      859.828
04/03/2014  13:38:00     -146.298     -137.000       -3.487       64.712       60.877       44.634     4187.675     3705.994     1992.151        2.503        0.494      200.430       43.134        0.046      338.221       10.724      859.835
04/03/2014  13:39:00      -21.440      -77.341       -6.356       52.039       55.668       27.324     2708.094     3098.926      746.599        0.652        0.328       80.258       16.814        0.044      338.338       10.923      859.821
04/03/2014  13:40:00      -42.579      -57.119       -0.974       44.737       35.776       27.957     2001.359     1279.906      781.569        0.457        0.203       71.243       28.149        0.156      338.609       11.377      859.789
04/03/2014  13:41:00      -55.679     -149.776       -5.971       33.765       53.754       30.099     1140.073     2889.483      905.979        1.525        0.247      159.791       26.930        0.028      338.301       10.860      859.783
04/03/2014  13:42:00      -46.528      -93.423       -2.755       46.597       56.401       26.549     2171.295     3181.115      704.863        0.848        0.303      104.368       30.982        0.088      338.310       10.876      859.780
04/03/2014  13:43:00     -100.381     -115.761       -0.067       71.721       83.738       36.544     5143.847     7012.089     1335.483        1.848        0.675      153.221       34.862        0.052      338.520       11.227      859.759
04/03/2014  13:44:00      -71.871      -36.166      -15.293       62.395       34.426       25.445     3893.105     1185.173      647.454        0.622        0.286       80.457       21.457        0.071      338.507       11.205      859.747
04/03/2014  13:45:00      -64.094      -31.770        7.855       40.234       48.903       26.949     1618.808     2391.530      726.233        0.496        0.237       71.536       19.974        0.078      338.591       11.347      859.733
04/03/2014  13:46:00      -65.416     -108.674       -8.923       41.406       49.783       33.646     1714.447     2478.307     1132.046        1.075        0.266      126.844       25.384        0.040      338.877       11.828      859.712
04/03/2014  13:47:00      -71.436     -122.153       -3.689       58.075       83.282       44.311     3372.679     6935.914     1963.474        1.615        0.614      141.508       42.247        0.089      338.660       11.460      859.688
04/03/2014  13:48:00       42.249     -106.350      -10.834       75.336       49.972       41.967     5675.586     2497.225     1761.225        1.157        0.497      114.435       24.655        0.046      338.773       11.653      859.679
04/03/2014  13:49:00       69.904     -120.247      -18.266       70.857      105.900       62.971     5020.693    11214.831     3965.286        1.994        1.010      139.090       61.267        0.194      338.670       11.478      859.667
04/03/2014  13:50:00      138.236     -183.412      -45.751       75.046       92.163       60.299     5631.975     8493.970     3636.008        3.630        0.888      229.672       57.157        0.062      338.506       11.202      859.656
04/03/2014  13:51:00       56.511      -13.565       36.238       73.555       92.224       68.530     5410.375     8505.252     4696.398        1.165        0.931       58.116       79.594        1.876      338.618       11.392      859.665
04/03/2014  13:52:00       -6.426       93.675      104.402       23.797       53.029       31.300      566.303     2812.122      979.693        1.204        0.218       93.895       30.510        0.106      338.526       11.237      859.645
04/03/2014  13:53:00        3.991       42.999       62.465       19.624       29.548       22.630      385.099      873.104      512.121        0.377        0.089       43.184       21.274        0.243      338.604       11.369      859.624
04/03/2014  13:54:00      -54.772      -15.646        5.763       42.071       26.616       23.787     1769.961      708.418      565.838        0.316        0.152       56.963       16.828        0.087      338.852       11.786      859.589
04/03/2014  13:55:00       15.094       -9.641       31.088       30.550       21.960       22.376      933.327      482.223      500.699        0.160        0.096       17.911       13.509        0.569      339.430       12.758      859.569
04/03/2014  13:56:00       -8.833      -82.822        0.097       77.917       81.735       36.231     6071.132     6680.669     1312.651        1.050        0.703       83.292       40.040        0.231      339.058       12.131      859.559
04/03/2014  13:57:00       26.988      -87.602       28.557       52.802      100.066       57.107     2788.007    10013.286     3261.220        1.264        0.803       91.665       64.578        0.496      339.077       12.163      859.554
04/03/2014  13:58:00       13.426       63.538       95.574       45.599       46.555       23.507     2079.274     2167.372      552.565        0.907        0.240       64.941       22.544        0.121      338.904       11.872      859.547
04/03/2014  13:59:00       38.413      -96.132        1.835       59.043      102.371       55.509     3486.070    10479.867     3081.208        1.388        0.852      103.523       49.477        0.228      338.655       11.453      859.548
04/03/2014  14:00:00       28.301      -67.086       -4.331       71.373       92.803       37.489     5094.117     8612.370     1405.445        1.021        0.756       72.811       37.614        0.267      338.656       11.456      859.531
04/03/2014  14:01:00      141.645      -51.036       -7.782       63.041       81.046       40.388     3974.118     6568.522     1631.204        1.745        0.609      150.559       17.623        0.014      338.265       10.798      859.523
04/03/2014  14:02:00       -8.570       34.041       15.755       75.813       35.708       35.507     5747.546     1275.068     1260.751        0.488        0.414       35.103       38.563        1.207      338.764       11.637      859.496
04/03/2014  14:03:00      -69.774        2.959       13.459       68.313       31.463       28.459     4666.646      989.905      809.913        0.576        0.323       69.837       29.343        0.177      339.123       12.241      859.471
04/03/2014  14:04:00        6.592       14.678       15.646       56.530       75.349       39.162     3195.688     5677.404     1533.673        0.545        0.520       16.091       38.913        5.848      339.121       12.238      859.449
04/03/2014  14:05:00      -13.214      -56.844        8.968       49.079       48.826       33.506     2408.741     2384.016     1122.645        0.470        0.296       58.360       26.547        0.207      339.023       12.072      859.442
04/03/2014  14:06:00       28.319       43.690       41.622       82.546      101.257       58.351     6813.779    10253.005     3404.786        1.245        1.024       52.066       56.143        1.163      338.834       11.755      859.429
04/03/2014  14:07:00      186.329      125.844       40.213       90.423       52.825       58.853     8176.243     2790.502     3463.620        3.330        0.722      224.845       40.384        0.032      338.444       11.096      859.409
04/03/2014  14:08:00       37.361       27.625        2.849       81.147       66.105       34.872     6584.808     4369.869     1216.063        0.717        0.609       46.465       19.361        0.174      338.815       11.723      859.402
04/03/2014  14:09:00       53.361      -53.431       27.009       77.187      123.478       80.617     5957.820    15246.908     6499.101        1.706        1.385       75.513       85.665        1.287      338.866       11.807      859.395
04/03/2014  14:10:00       62.453       26.361       66.219       71.099       50.333       40.161     5055.078     2533.439     1612.910        0.909        0.460       67.789       32.111        0.224      338.852       11.786      859.385
04/03/2014  14:11:00       44.824       54.978       64.528       46.125       43.878       27.380     2127.523     1925.283      749.661        0.700        0.240       70.935       16.142        0.052      338.832       11.752      859.367
04/03/2014  14:12:00       22.064      -62.021      -11.965       33.775       48.612       45.477     1140.745     2363.140     2068.144        0.502        0.279       65.829       18.593        0.080      338.709       11.544      859.352
04/03/2014  14:13:00       52.582      -88.866       -4.744      100.693       64.156       46.720    10139.131     4115.956     2182.773        1.356        0.822      103.257       47.412        0.211      339.123       12.240      859.332
04/03/2014  14:14:00       61.278      -63.652        5.011       48.408       61.362       39.278     2343.373     3765.299     1542.775        0.774        0.383       88.355       37.140        0.177      338.945       11.941      859.344
04/03/2014  14:15:00      -52.917      -31.177       22.274       60.993       56.880       31.144     3720.119     3235.345      969.953        0.610        0.396       61.418       24.036        0.153      339.081       12.171      859.343
04/03/2014  14:16:00     -191.417      -81.625       -2.817       84.951       67.220       36.690     7216.678     4518.509     1346.121        2.819        0.654      208.094       28.585        0.019      338.742       11.599      859.336
04/03/2014  14:17:00     -227.109     -100.263      -12.846       43.059       43.598       20.242     1854.045     1900.801      409.756        3.298        0.208      248.256       17.789        0.005      338.299       10.852      859.327
04/03/2014  14:18:00     -231.312      -74.206      -16.007       53.776       72.744       34.708     2891.811     5291.733     1204.680        3.433        0.469      242.923       24.542        0.010      338.535       11.247      859.326
04/03/2014  14:19:00     -198.701      -57.207      -17.665       32.973       50.090       22.342     1087.227     2509.002      499.149        2.358        0.205      206.772       13.930        0.005      338.284       10.829      859.318
04/03/2014  14:20:00      -42.226     -102.976       -4.045       91.190       36.960       41.633     8315.632     1366.019     1733.269        1.191        0.571      111.298       45.852        0.170      338.445       11.100      859.301
04/03/2014  14:21:00       -2.095      -23.850       27.099       34.741       34.406       26.740     1206.909     1183.770      715.045        0.221        0.155       23.942       23.356        0.952      338.941       11.935      859.281
04/03/2014  14:22:00     -179.720      -58.336      -12.971       71.541       46.517       25.383     5118.077     2163.785      644.273        2.190        0.396      188.950       27.587        0.021      338.472       11.144      859.269
04/03/2014  14:23:00     -141.915       -1.706      -17.405       41.638       23.890       25.834     1733.692      570.739      667.410        1.171        0.149      141.925       25.921        0.033      338.188       10.669      859.257
04/03/2014  14:24:00      -19.470      -21.566      -11.813       35.304       20.893       18.367     1246.370      436.517      337.329        0.150        0.101       29.055       11.582        0.159      338.336       10.919      859.236
04/03/2014  14:25:00      -37.033       66.814        0.622       27.255       60.766       33.873      742.846     3692.514     1147.368        0.571        0.279       76.391       19.555        0.066      338.431       11.078      859.216
04/03/2014  14:26:00       27.964       57.017      -10.402       36.825       45.792       32.339     1356.048     2096.901     1045.788        0.432        0.225       63.506       23.880        0.141      338.666       11.474      859.190
04/03/2014  14:27:00       45.124      -79.319        2.016       47.638       45.506       29.814     2269.362     2070.811      888.863        0.678        0.261       91.256       28.475        0.097      338.535       11.253      859.182
04/03/2014  14:28:00       20.877      -77.997       -7.189       33.154       43.934       39.280     1099.212     1930.159     1542.907        0.557        0.229       80.743       24.630        0.093      338.757       11.624      859.145
04/03/2014  14:29:00       37.217      -19.325       39.396       52.921       84.680       50.736     2800.618     7170.696     2574.136        0.793        0.627       41.935       57.904        1.907      338.950       11.950      859.131
04/03/2014  14:30:00      101.051     -105.607      -15.361       71.196       84.987       56.642     5068.909     7222.759     3208.302        1.855        0.775      146.164       51.641        0.125      338.729       11.579      859.104
04/03/2014  14:31:00       27.660      -17.297       76.200       53.029       82.351       57.046     2812.027     6781.605     3254.295        0.986        0.642       32.623       50.544        2.400      339.108       12.215      859.066
04/03/2014  14:32:00       53.160      -49.866       46.413       61.814      120.288       60.953     3820.977    14469.144     3715.225        1.473        1.100       72.888       70.409        0.933      339.250       12.454      859.028
04/03/2014  14:33:00      156.741     -204.482      -31.095       98.031      102.696       66.526     9610.059    10546.567     4425.651        4.596        1.229      257.644       55.594        0.047      338.932       11.916      859.008
04/03/2014  14:34:00      172.866     -175.970      -13.742       50.750       86.706       40.515     2575.606     7517.886     1641.437        3.638        0.587      246.674       45.768        0.034      338.435       11.080      859.047
04/03/2014  14:35:00      -10.424     -103.821       -8.692       75.711       27.691       37.822     5732.219      766.815     1430.527        0.944        0.396      104.343       30.425        0.085      338.589       11.344      859.050
04/03/2014  14:36:00       43.783       -5.283       31.138       40.329       73.172       49.123     1626.465     5354.185     2413.026        0.615        0.470       44.101       46.373        1.106      339.100       12.203      859.044
04/03/2014  14:37:00       34.818        1.997       23.320       40.606       36.991       26.250     1648.868     1368.327      689.038        0.273        0.185       34.875       20.763        0.354      339.052       12.120      859.046
04/03/2014  14:38:00       53.737       60.263       11.377       54.732       44.613       46.820     2995.617     1990.336     2192.138        0.691        0.359       80.743       15.832        0.038      338.748       11.609      859.043
04/03/2014  14:39:00       -6.153      116.038      -14.735       38.472       40.023       39.404     1480.089     1601.822     1552.647        0.918        0.232      116.201       31.667        0.074      338.903       11.872      859.017
04/03/2014  14:40:00     -118.441        7.346       -6.067       80.657       82.434       41.536     6505.597     6795.392     1725.262        1.457        0.751      118.668       41.701        0.123      339.241       12.438      858.998
04/03/2014  14:41:00      -15.550       38.669        3.658       37.833       77.897       42.958     1431.338     6067.990     1845.399        0.555        0.467       41.678       20.192        0.235      339.456       12.801      858.961
04/03/2014  14:42:00     -138.822      -47.084       -0.671       99.470       77.523       41.705     9894.270     6009.781     1739.315        1.956        0.882      146.590       49.390        0.114      339.016       12.058      858.937
04/03/2014  14:43:00      -13.730      -59.772       16.850       74.831       52.644       66.057     5599.672     2771.366     4363.464        0.839        0.637       61.329       37.697        0.378      338.960       11.968      858.919
04/03/2014  14:44:00      -47.934      -29.443       -6.056       50.515       52.796       24.969     2551.776     2787.436      623.466        0.458        0.298       56.254        7.227        0.017      338.608       11.375      858.901
04/03/2014  14:45:00     -109.139        2.236      -25.963       73.724       67.408       34.619     5435.173     4543.878     1198.458        1.188        0.559      109.162       36.368        0.111      338.588       11.342      858.885
04/03/2014  14:46:00      -73.689      -81.410       14.454      101.889       42.484       34.956    10381.331     1804.890     1221.911        1.283        0.670      109.807       47.212        0.185      338.822       11.734      858.909
04/03/2014  14:47:00      -49.624      -47.490       21.504       92.184       49.981       36.410     8497.971     2498.113     1325.680        0.875        0.616       68.686       34.478        0.252      339.180       12.336      858.920
04/03/2014  14:48:00      -59.171     -160.434      -10.449       59.324       94.477       34.069     3519.289     8925.836     1160.675        2.147        0.680      170.998       36.639        0.046      338.912       11.886      858.938
04/03/2014  14:49:00     -114.689     -128.497      -17.481      139.939       80.546       54.044    19582.886     6487.634     2920.804        2.948        1.450      172.236       24.716        0.021      339.085       12.175      858.925
04/03/2014  14:50:00     -154.239     -221.464       -5.363       94.698       83.197       52.899     8967.770     6921.702     2798.263        4.577        0.934      269.882       42.901        0.025      338.826       11.737      858.915
04/03/2014  14:51:00     -111.678     -173.549        0.572      115.314      103.233       48.817    13297.295    10657.108     2383.107        3.446        1.317      206.376       47.499        0.053      339.041       12.101      858.885
04/03/2014  14:52:00      -75.327     -110.774       10.668       89.092       69.306       43.472     7937.441     4803.299     1889.792        1.634        0.732      133.959       30.292        0.051      339.087       12.179      858.875
04/03/2014  14:53:00      -68.083     -158.172       -1.232       82.958       73.487       44.554     6881.959     5400.331     1985.089        2.196        0.713      172.203       43.014        0.062      338.917       11.892      858.858
04/03/2014  14:54:00      -90.289     -112.036       17.633      155.436       94.937       48.413    24160.464     9013.105     2343.783        2.826        1.776      143.890       53.288        0.137      339.212       12.389      858.834
04/03/2014  14:55:00     -249.606     -113.214      -14.998      125.023      100.882       63.584    15630.805    10177.135     4042.945        5.259        1.493      274.081       55.709        0.041      338.867       11.807      858.823
04/03/2014  14:56:00     -201.313      -48.942       -8.679      111.104       79.215       60.453    12344.034     6274.983     3654.536        3.263        1.114      207.177       46.411        0.050      339.089       12.181      858.824
04/03/2014  14:57:00     -258.913     -184.136       -5.535      167.857       96.791       57.020    28176.110     9368.473     3251.245        7.088        2.040      317.713       69.184        0.047      338.806       11.705      858.808
04/03/2014  14:58:00     -163.686     -103.595       -7.753       91.075       84.835       36.857     8294.597     7196.923     1358.453        2.721        0.842      193.714       41.532        0.046      338.709       11.542      858.827
04/03/2014  14:59:00     -219.466     -165.407       -5.688       93.960       60.572       45.395     8828.480     3668.993     2060.716        4.505        0.728      274.818       48.190        0.031      338.675       11.484      858.814
04/03/2014  15:00:00     -164.984     -126.973       -0.296       58.993       48.251       34.708     3480.132     2328.162     1204.653        2.518        0.351      208.187       32.590        0.025      338.625       11.402      858.831
04/03/2014  15:01:00     -113.036      -99.963       -8.794       50.298       44.060       23.187     2529.906     1941.247      537.619        1.393        0.250      150.896       13.186        0.008      338.676       11.487      858.823
04/03/2014  15:02:00     -104.817      -23.410       -4.963       42.648       39.368       21.689     1818.827     1549.874      470.408        0.770        0.192      107.399       10.298        0.009      338.884       11.841      858.809
04/03/2014  15:03:00     -112.438      -67.582      -11.215       68.469       52.173       28.567     4688.047     2722.018      816.056        1.278        0.411      131.185       30.401        0.054      338.935       11.924      858.813
04/03/2014  15:04:00     -169.058      -52.207       -9.402       76.816       82.012       41.871     5900.650     6725.991     1753.161        2.288        0.719      176.936       32.764        0.034      338.871       11.814      858.806
04/03/2014  15:05:00     -125.881      -85.835       -0.005       92.193       89.758       53.357     8499.554     8056.510     2846.941        2.130        0.970      152.360       52.750        0.120      339.020       12.067      858.806
04/03/2014  15:06:00     -198.837     -102.762       -5.432       96.125       74.700       48.875     9240.083     5580.052     2388.737        3.366        0.860      223.822       53.989        0.058      338.814       11.717      858.793
04/03/2014  15:07:00     -181.982      -74.876      -12.706       88.453       80.775       49.590     7823.944     6524.555     2459.176        2.784        0.840      196.783       50.620        0.066      338.933       11.918      858.780
04/03/2014  15:08:00     -197.304      -97.867       -4.524      111.494       73.747       44.039    12430.988     5438.675     1939.464        3.416        0.990      220.242       46.990        0.046      338.856       11.788      858.768
04/03/2014  15:09:00     -174.981     -123.988       -4.759      111.554       67.600       43.869    12444.264     4569.760     1924.483        3.247        0.947      214.456       44.289        0.043      338.936       11.923      858.765
04/03/2014  15:10:00     -181.071      -87.764       -8.582      120.202       54.669       36.818    14448.502     2988.660     1355.567        2.967        0.940      201.220       38.397        0.036      338.931       11.916      858.762
04/03/2014  15:11:00      -92.229      -87.621       11.561       85.446       51.752       42.620     7301.060     2678.235     1816.471        1.405        0.590      127.215       45.734        0.129      338.907       11.877      858.756
04/03/2014  15:12:00     -227.828      -72.012       -1.864      112.921       72.586       54.346    12751.262     5268.665     2953.496        3.903        1.049      238.938       62.200        0.068      338.764       11.635      858.750
04/03/2014  15:13:00     -254.669      -59.860      -20.898       57.270       47.029       29.215     3279.899     2211.685      853.507        3.761        0.317      261.610       22.476        0.007      338.595       11.346      858.750
04/03/2014  15:14:00     -211.816      -30.457       -6.248       70.751       41.888       30.369     5005.725     1754.579      922.280        2.676        0.384      213.994       35.087        0.027      338.696       11.519      858.735
04/03/2014  15:15:00     -164.150      -92.216        0.665       70.996       44.708       34.749     5040.421     1998.836     1207.466        2.185        0.412      188.279       37.880        0.040      338.699       11.524      858.711
04/03/2014  15:16:00      -44.290      -33.421       27.098       64.229       48.993       38.833     4125.374     2400.312     1508.036        0.592        0.402       55.485       39.347        0.503      339.032       12.088      858.699
04/03/2014  15:17:00     -158.595      -90.463      -12.985       74.898       35.609       30.684     5609.747     1268.000      941.513        2.066        0.391      182.582       25.501        0.020      338.731       11.581      858.690
04/03/2014  15:18:00     -202.338      -72.868       -3.350      113.568       66.346       40.721    12897.715     4401.757     1658.197        3.261        0.948      215.059       41.774        0.038      338.829       11.745      858.675
04/03/2014  15:19:00     -163.588     -113.175        8.298      137.331      112.274       52.130    18859.756    12605.495     2717.579        3.690        1.709      198.921       56.430        0.080      338.846       11.772      858.675
04/03/2014  15:20:00      -70.225     -284.681       -7.102       44.896       57.674       29.419     2015.609     3326.242      865.469        4.611        0.310      293.214       26.700        0.008      338.659       11.457      858.680
04/03/2014  15:21:00      -46.856      -58.995      -15.385       61.383       94.028       32.200     3767.827     8841.280     1036.850        0.978        0.682       75.338       39.230        0.271      338.749       11.612      858.647
04/03/2014  15:22:00     -129.054      -78.392        7.616       66.173       83.646       43.394     4378.914     6996.573     1883.033        1.806        0.663      150.997       24.944        0.027      339.030       12.083      858.657
04/03/2014  15:23:00     -182.240     -103.735        4.840      144.189      100.366       57.616    20790.446    10073.416     3319.610        3.908        1.709      209.696       56.034        0.071      338.952       11.953      858.641
04/03/2014  15:24:00     -161.923     -160.122        9.977      110.211      108.446       55.946    12146.445    11760.455     3130.002        3.949        1.352      227.724       46.273        0.041      338.917       11.890      858.645
04/03/2014  15:25:00     -162.891     -174.782        3.945      102.243       90.266       55.728    10453.577     8147.861     3105.654        3.940        1.085      238.919       52.469        0.048      338.838       11.759      858.623
04/03/2014  15:26:00      -85.978     -162.740       -7.526       69.257       58.525       41.887     4796.587     3425.172     1754.511        2.195        0.499      184.056       26.460        0.021      338.916       11.891      858.599
04/03/2014  15:27:00     -124.486     -107.791       -3.839       86.711       85.749       47.733     7518.852     7352.909     2278.474        2.214        0.858      164.668       39.447        0.057      338.914       11.888      858.576
04/03/2014  15:28:00     -148.000      -50.287        6.296      129.472       82.455       42.701    16762.888     6798.893     1823.393        2.492        1.269      156.310       44.677        0.082      339.095       12.191      858.582
04/03/2014  15:29:00     -289.456      -76.788      -10.686      134.739       81.451       54.640    18154.520     6634.190     2985.574        5.878        1.389      299.468       49.627        0.027      339.016       12.057      858.577
04/03/2014  15:30:00     -253.800      -91.279        8.458      172.625      114.490       80.293    29799.481    13107.995     6447.028        6.108        2.468      269.715       87.595        0.105      338.945       11.939      858.545
04/03/2014  15:31:00     -366.070     -153.519      -10.998      154.754      126.641       71.260    23948.753    16037.907     5078.043       10.137        2.253      396.958       71.165        0.032      338.818       11.724      858.533
04/03/2014  15:32:00     -268.201     -217.771       12.065      182.644      145.804       85.928    33358.833    21258.722     7383.582        9.074        3.100      345.479       99.333        0.083      338.915       11.888      858.513
04/03/2014  15:33:00     -340.486     -135.593       -3.495      111.311      104.386       57.480    12390.089    10896.399     3303.935        8.045        1.330      366.492       63.196        0.030      338.891       11.848      858.514
04/03/2014  15:34:00     -326.096      -73.004       -8.717      153.822      117.446       70.812    23661.337    13793.605     5014.375        7.710        2.123      334.168       53.898        0.026      338.989       12.012      858.512
04/03/2014  15:35:00     -351.031     -145.921       14.580      203.041      146.094       84.360    41225.507    21343.572     7116.687       10.719        3.484      380.152      106.976        0.079      339.052       12.119      858.512
04/03/2014  15:36:00     -377.970     -176.446       -3.942      184.547      136.604       72.657    34057.652    18660.670     5278.993       11.599        2.900      417.126       75.821        0.033      338.875       11.820      858.537
04/03/2014  15:37:00     -192.774      -66.788        0.504      115.959      105.553       37.099    13446.434    11141.377     1376.354        3.379        1.298      204.016       41.584        0.042      338.854       11.788      858.554
04/03/2014  15:38:00     -166.417       54.765      -12.185       73.506       85.553       47.087     5403.119     7319.332     2217.141        2.289        0.747      175.196       35.676        0.041      338.943       11.936      858.529
04/03/2014  15:39:00     -190.977      -99.142        0.540      111.524      121.520       55.491    12437.612    14767.130     3079.217        3.829        1.514      215.178       55.051        0.065      338.955       11.955      858.501
04/03/2014  15:40:00     -244.058     -128.801       -9.595      176.144       93.426       57.937    31026.859     8728.509     3356.650        5.967        2.156      275.960       73.624        0.071      339.166       12.311      858.539
04/03/2014  15:41:00     -218.114      -80.600        2.081      145.296      122.751       59.917    21111.025    15067.884     3590.087        4.691        1.988      232.529       68.005        0.086      339.148       12.279      858.541
04/03/2014  15:42:00     -241.786     -135.233       24.709      205.801      128.291       81.476    42353.903    16458.571     6638.292        7.139        3.273      277.036       98.473        0.126      338.962       11.966      858.528
04/03/2014  15:43:00     -199.253     -133.863       17.046      150.535      132.356       80.266    22660.766    17518.069     6442.593        5.226        2.331      240.044       90.200        0.141      338.933       11.918      858.525
04/03/2014  15:44:00     -292.694     -150.682       -9.094      141.362      113.220       68.066    19983.197    12818.841     4632.998        7.294        1.872      329.203       60.222        0.033      338.979       11.996      858.519
04/03/2014  15:45:00     -336.281     -117.353       -3.862      181.989      153.428       77.608    33120.161    23540.025     6023.068        9.476        3.134      356.170       74.952        0.044      339.036       12.090      858.508
04/03/2014  15:46:00     -364.381     -178.112      -17.841      216.388      215.609       93.762    46823.816    46487.079     8791.302       13.344        5.105      405.582      108.364        0.071      338.897       11.857      858.533
04/03/2014  15:47:00     -397.891     -277.239      -17.554      172.469      151.221       85.921    29745.472    22867.857     7382.462       14.773        3.000      484.952       82.656        0.029      338.714       11.550      858.540
04/03/2014  15:48:00     -188.933     -142.985       -3.071      150.289      142.665       81.643    22586.675    20353.278     6665.541        5.287        2.480      236.940       62.893        0.070      338.733       11.582      858.509
04/03/2014  15:49:00     -309.407     -135.229       -1.837      133.455      129.575       67.502    17810.283    16789.798     4556.535        7.658        1.958      337.668       73.476        0.047      338.810       11.711      858.541
04/03/2014  15:50:00     -151.903      -57.193        3.794       93.943       98.858       48.004     8825.239     9772.932     2304.394        2.363        1.045      162.313       43.477        0.072      339.018       12.063      858.547
04/03/2014  15:51:00     -110.095      -56.726       18.475      129.428      111.097       65.892    16751.490    12342.570     4341.693        2.455        1.672      123.850       74.406        0.361      339.112       12.220      858.548
04/03/2014  15:52:00      -97.456     -100.980       32.756      126.959      103.572       68.981    16118.626    10727.178     4758.368        2.618        1.580      140.338       77.403        0.304      339.090       12.183      858.551
04/03/2014  15:53:00     -137.234     -116.385       27.687      164.908      127.534       69.029    27194.522    16264.944     4764.967        4.068        2.411      179.941       79.596        0.196      339.076       12.159      858.538
04/03/2014  15:54:00     -305.148     -179.008      -10.443      184.635      138.189       76.325    34089.911    19096.267     5825.519        9.213        2.951      353.778       75.114        0.045      338.880       11.829      858.558
04/03/2014  15:55:00     -235.619     -288.563        8.825      209.826      166.603      104.731    44026.803    27756.463    10968.611       11.079        4.138      372.539      118.281        0.101      338.779       11.660      858.516
04/03/2014  15:56:00     -471.743     -138.986      -23.868      161.698      130.069       73.686    26146.190    16918.043     5429.626       14.545        2.425      491.791       79.133        0.026      338.802       11.698      858.563
04/03/2014  15:57:00     -425.420     -198.489      -11.458      253.205      205.500      105.025    64112.640    42230.164    11030.248       16.892        5.869      469.446      130.498        0.077      338.613       11.381      858.563
04/03/2014  15:58:00     -367.241      -86.968       -1.992      155.909      139.046       75.845    24307.478    19333.795     5752.418        9.590        2.470      377.398       81.509        0.047      338.638       11.422      858.566
04/03/2014  15:59:00     -374.944     -117.182      -11.619      171.425      119.788       72.812    29386.666    14349.235     5301.520       10.173        2.452      392.829       78.838        0.040      338.639       11.424      858.577
04/03/2014  16:00:00     -443.422     -114.136      -27.385      205.013      142.179       82.796    42030.401    20214.968     6855.175       13.974        3.455      457.875       88.541        0.037      338.629       11.408      858.569
04/03/2014  16:01:00     -433.762     -106.832      -17.924      202.937      152.215       89.442    41183.458    23169.513     7999.942       13.610        3.618      446.724      102.517        0.053      338.619       11.390      858.548
04/03/2014  16:02:00     -449.486      -38.448      -30.515      180.050      149.455       75.010    32417.959    22336.938     5626.544       13.240        3.019      451.127       75.112        0.028      338.675       11.483      858.573
04/03/2014  16:03:00     -317.268      -75.158        0.521      170.519      170.825       82.528    29076.831    29181.348     6810.916        8.568        3.253      326.049       87.977        0.073      338.653       11.449      858.556
04/03/2014  16:04:00     -311.439      -42.414      -15.645      119.804      111.136       59.851    14353.101    12351.238     3582.116        6.466        1.514      314.314       67.148        0.046      338.741       11.596      858.562
04/03/2014  16:05:00     -468.171      -60.535      -13.180      190.450      136.617       75.849    36271.259    18664.109     5752.995       14.184        3.034      472.069       83.639        0.031      338.622       11.397      858.554
04/03/2014  16:06:00     -243.190      -77.850      -11.944      229.935      107.070       73.108    52870.220    11463.952     5344.843        6.750        3.484      255.347       79.509        0.097      338.805       11.703      858.564
04/03/2014  16:07:00     -376.831        9.431      -21.434      203.533      158.516       99.493    41425.748    25127.430     9898.941       10.949        3.823      376.949       96.148        0.065      338.720       11.561      858.535
04/03/2014  16:08:00     -231.530      -44.295       14.951      181.401      126.719       84.260    32906.153    16057.602     7099.695        5.592        2.803      235.729       93.671        0.158      338.844       11.769      858.571
04/03/2014  16:09:00     -315.278     -110.152       -5.955      134.901      153.404       63.685    18198.183    23532.898     4055.728        7.867        2.289      333.967       67.379        0.041      338.721       11.562      858.583
04/03/2014  16:10:00     -385.692        8.703      -28.301      158.816      122.568       64.649    25222.408    15022.911     4179.490        9.702        2.221      385.790       45.851        0.014      338.690       11.508      858.579
04/03/2014  16:11:00     -336.097     -122.270        1.251      233.223      202.040       82.784    54393.015    40820.050     6853.264       11.497        5.103      357.647      109.023        0.093      338.748       11.607      858.570
04/03/2014  16:12:00     -476.066      -73.591      -22.074      187.815      142.489       79.205    35274.514    20303.082     6273.475       14.718        3.093      481.721       72.084        0.022      338.633       11.414      858.579
04/03/2014  16:13:00     -442.564      -95.780      -14.877      201.166      151.469       80.610    40467.890    22942.843     6498.002       13.757        3.495      452.810       75.983        0.028      338.610       11.375      858.579
04/03/2014  16:14:00     -372.927     -117.829       18.218      226.281      223.612       96.095    51203.005    50002.117     9234.268       13.184        5.522      391.099      115.271        0.087      338.604       11.365      858.567
04/03/2014  16:15:00     -293.147     -131.343        1.077      194.460      165.775       83.883    37814.636    27481.330     7036.339        8.775        3.617      321.226       91.835        0.082      338.646       11.437      858.575
04/03/2014  16:16:00     -310.219     -144.169      -23.499      168.187      122.069       83.296    28286.720    14900.764     6938.275        8.384        2.506      342.082       93.672        0.075      338.670       11.476      858.575
04/03/2014  16:17:00     -168.527      -51.458       -8.967      134.743       89.930       51.307    18155.766     8087.409     2632.397        3.000        1.444      176.208       55.962        0.101      338.778       11.660      858.581
04/03/2014  16:18:00     -299.892      -30.859      -17.552      124.108      108.121       55.417    15402.874    11690.215     3071.081        6.067        1.508      301.476       57.567        0.036      338.740       11.595      858.566
04/03/2014  16:19:00     -380.253        0.289      -18.231      196.403      133.279       82.845    38574.324    17763.371     6863.322       10.405        3.160      380.253       93.905        0.061      338.711       11.545      858.553
04/03/2014  16:20:00     -498.036       13.541      -25.532      273.948      144.481       96.101    75047.657    20874.894     9235.418       17.700        5.258      498.220      128.130        0.066      338.497       11.186      858.512
04/03/2014  16:21:00     -670.103     -152.512      -41.419      270.925      184.007      100.115    73400.303    33858.694    10023.016       29.562        5.864      687.239      106.086        0.024      338.368       10.969      858.476
04/03/2014  16:22:00     -545.657      -70.851      -13.865      206.039      127.978       94.348    42451.942    16378.473     8901.474       18.533        3.387      550.238       93.891        0.029      338.424       11.062      858.519
04/03/2014  16:23:00     -449.319      -54.969      -30.447      199.813      163.253       78.612    39925.252    26651.435     6179.894       13.928        3.638      452.669       88.213        0.038      338.512       11.209      858.520
04/03/2014  16:24:00     -547.948     -163.493      -17.429      212.682      173.878       92.423    45233.477    30233.562     8542.101       20.563        4.200      571.819      108.513        0.036      338.440       11.090      858.517
04/03/2014  16:25:00     -406.801      -70.655      -15.491      134.812      143.997       62.526    18174.386    20735.162     3909.529       10.676        2.141      412.891       58.316        0.020      338.552       11.277      858.534
04/03/2014  16:26:00     -530.574      -50.530      -35.229      153.369      180.989       93.383    23522.112    32756.892     8720.320       17.514        3.250      532.975       91.786        0.030      338.475       11.147      858.512
04/03/2014  16:27:00     -528.493       68.634      -34.450      262.832      167.000       92.342    69080.766    27889.136     8527.081       19.533        5.275      532.931      102.475        0.037      338.418       11.053      858.499
04/03/2014  16:28:00     -563.971     -152.160      -54.203      220.642      155.687       81.800    48682.803    24238.432     6691.179       21.187        3.981      584.137       94.208        0.026      338.373       10.977      858.474
04/03/2014  16:29:00     -230.995      -66.416       18.149      151.242      121.153       67.358    22873.997    14678.140     4537.100        5.009        2.104      240.353       67.531        0.079      338.527       11.238      858.454
04/03/2014  16:30:00     -310.909       36.380      -26.926      196.473      108.509       60.699    38601.448    11774.119     3684.369        7.638        2.703      313.030       75.420        0.058      338.503       11.195      858.446
04/03/2014  16:31:00     -367.875     -145.609      -18.142      174.200      126.849       81.365    30345.631    16090.573     6620.309       10.495        2.653      395.644       84.627        0.046      338.564       11.297      858.474
04/03/2014  16:32:00     -291.826     -166.704       -6.090      184.541      170.986       87.383    34055.356    29236.169     7635.811        9.194        3.546      336.084       91.757        0.075      338.525       11.233      858.463
04/03/2014  16:33:00     -475.207     -119.232      -27.005      239.803      159.165       84.546    57505.595    25333.545     7148.071       16.536        4.499      489.936      107.031        0.048      338.433       11.079      858.475
04/03/2014  16:34:00     -438.903      -68.537      -15.623      202.231      145.212       77.703    40897.194    21086.628     6037.684       13.279        3.401      444.222       83.949        0.036      338.460       11.124      858.457
04/03/2014  16:35:00     -279.761     -175.000       10.279      166.217      128.142       84.510    27628.180    16420.285     7141.889        8.008        2.560      329.987       86.471        0.069      338.482       11.160      858.451
04/03/2014  16:36:00     -227.718     -173.642       13.976      199.408      175.391       92.610    39763.379    30762.098     8576.584        8.064        3.955      286.369      104.153        0.132      338.574       11.315      858.444
04/03/2014  16:37:00     -404.480      -92.905      -12.962      166.311      199.316       76.878    27659.437    39727.053     5910.268       12.284        3.665      415.013       74.842        0.033      338.481       11.157      858.446
04/03/2014  16:38:00     -463.064     -194.138      -12.047      171.154      150.441       95.727    29293.560    22632.559     9163.686       15.666        3.054      502.114       96.778        0.037      338.419       11.054      858.449
04/03/2014  16:39:00     -459.953      -70.182      -24.591      303.382      159.132       88.878    92040.879    25323.016     7899.231       17.115        6.263      465.277      121.800        0.069      338.337       10.918      858.444
04/03/2014  16:40:00     -464.539     -182.680       -4.212      220.517      220.068       99.388    48627.887    48429.899     9877.995       17.804        5.347      499.168       89.815        0.032      338.260       10.787      858.430
04/03/2014  16:41:00     -344.363      -37.830      -22.177      211.271      146.411      102.653    44635.618    21436.116    10537.560        9.854        3.830      346.435      116.610        0.113      338.368       10.969      858.419
04/03/2014  16:42:00     -279.899      -53.569       13.234      203.500      143.296       87.596    41412.206    20533.758     7673.132        7.549        3.481      284.979      103.301        0.131      338.396       11.017      858.437
04/03/2014  16:43:00     -276.278     -152.163       -4.029      160.077      146.939       77.420    25624.669    21591.011     5993.818        7.634        2.660      315.410       84.343        0.072      338.389       11.004      858.429
04/03/2014  16:44:00     -382.192     -212.368       -8.246      162.274      157.806       78.457    26332.763    24902.756     6155.429       12.430        2.870      437.231       73.123        0.028      338.302       10.858      858.432
04/03/2014  16:45:00     -311.042     -199.066      -15.352      211.215      156.556       90.571    44611.610    24509.882     8203.036       10.695        3.866      369.289      103.528        0.079      338.407       11.035      858.411
04/03/2014  16:46:00     -401.348     -158.897      -21.470      295.720      163.951      120.887    87450.423    26879.816    14613.778       15.784        6.447      431.658      143.893        0.111      338.340       10.922      858.436
04/03/2014  16:47:00     -352.444      -78.271       -4.862      287.237      147.156      108.175    82505.269    21655.006    11701.738       12.309        5.793      361.031      134.761        0.139      338.362       10.959      858.451
04/03/2014  16:48:00     -455.484     -128.550      -19.813      175.499      195.431       90.754    30799.788    38193.290     8236.330       15.079        3.861      473.277       92.189        0.038      338.350       10.938      858.474
04/03/2014  16:49:00     -388.212      -56.845      -16.729      207.248      134.650       80.918    42951.559    18130.526     6547.748       11.091        3.381      392.352       98.488        0.063      338.388       11.002      858.479
04/03/2014  16:50:00     -295.606     -139.674       -7.250      172.698      178.070       82.184    29824.644    31708.964     6754.136        8.760        3.414      326.943       93.996        0.083      338.392       11.011      858.467
04/03/2014  16:51:00     -265.749      -62.749       -8.189      132.605      107.291       54.856    17584.075    11511.431     3009.176        5.336        1.605      273.057       61.348        0.050      338.427       11.068      858.457
04/03/2014  16:52:00     -467.379     -112.167      -35.714      227.410      141.825       87.418    51715.492    20114.338     7641.948       15.587        3.974      480.650      112.028        0.054      338.355       10.947      858.467
04/03/2014  16:53:00     -381.112      -51.878      -36.250      119.531      119.864       65.981    14287.750    14367.476     4353.515        9.112        1.650      384.627       54.613        0.020      338.397       11.017      858.465
04/03/2014  16:54:00     -227.117      -71.487      -11.074      169.756      135.904       68.900    28817.268    18469.784     4747.177        5.441        2.602      238.102       80.256        0.114      338.441       11.091      858.459
04/03/2014  16:55:00     -235.454      -37.047       11.675      212.317      128.193       66.517    45078.512    16433.452     4424.445        6.143        3.297      238.351       88.009        0.136      338.461       11.126      858.447
04/03/2014  16:56:00     -490.970     -155.730      -25.266      183.592      187.856       89.811    33705.852    35289.790     8065.974       17.149        3.853      515.076       95.037        0.034      338.319       10.886      858.444
04/03/2014  16:57:00     -332.727     -178.618        1.421      217.628      151.636       89.103    47362.100    22993.376     7939.291       11.044        3.915      377.640       89.385        0.056      338.371       10.974      858.427
04/03/2014  16:58:00     -212.150      -57.531        3.407      137.122       96.908       56.812    18802.515     9391.237     3227.598        3.987        1.571      219.812       60.146        0.075      338.453       11.111      858.433
04/03/2014  16:59:00     -281.844       -7.388        2.206      177.030      177.602       83.112    31339.554    31542.467     6907.539        7.463        3.489      281.941       86.436        0.094      338.385       10.998      858.425
04/03/2014  17:00:00     -149.722      -62.481       11.603      166.378      127.286       69.388    27681.577    16201.792     4814.630        3.757        2.435      162.236       80.782        0.248      338.462       11.128      858.402
04/03/2014  17:01:00     -323.967      -48.606      -25.816      159.143      162.714       76.296    25326.550    26475.740     5821.106        8.279        2.881      327.593       80.393        0.060      338.310       10.871      858.407
04/03/2014  17:02:00     -363.459     -116.882       -8.698      157.851      123.889       74.531    24916.895    15348.467     5554.861        9.582        2.291      381.790       76.957        0.041      338.317       10.884      858.394
04/03/2014  17:03:00     -350.890     -105.234       -0.138      182.145      104.046       61.696    33176.924    10825.577     3806.352        9.099        2.390      366.330       73.257        0.040      338.346       10.931      858.378
04/03/2014  17:04:00     -337.603     -126.414       -7.400      145.666      127.728       68.545    21218.451    16314.384     4698.369        8.611        2.112      360.495       75.911        0.044      338.352       10.941      858.364
04/03/2014  17:05:00     -454.346      -56.148      -14.717      215.734      156.047       85.813    46541.249    24350.741     7363.854       14.401        3.913      457.802       91.190        0.040      338.340       10.921      858.364
04/03/2014  17:06:00     -467.541     -127.236      -17.286      176.224      129.264       82.248    31054.949    16709.056     6764.786       14.479        2.726      484.544       90.974        0.035      338.283       10.825      858.331
04/03/2014  17:07:00     -127.009      -64.473       17.272      161.593      122.661       74.985    26112.268    15045.739     5622.804        3.367        2.339      142.436       93.940        0.435      338.473       11.147      858.346
04/03/2014  17:08:00     -388.226      -60.198      -32.995      210.018      144.508       58.969    44107.533    20882.418     3477.295       11.194        3.423      392.865       66.388        0.029      338.410       11.038      858.330
04/03/2014  17:09:00     -465.720     -116.570      -15.070      213.773      143.288       88.158    45698.830    20531.423     7771.919       15.234        3.700      480.087       98.990        0.043      338.332       10.909      858.315
04/03/2014  17:10:00     -439.770     -128.719      -21.892      140.993      108.043       69.403    19878.954    11673.258     4816.818       12.340        1.818      458.221       60.024        0.017      338.310       10.873      858.326
04/03/2014  17:11:00     -357.779      -68.824      -16.324      146.592      175.031       71.034    21489.187    30635.941     5045.804        9.508        2.859      364.338       71.365        0.038      338.430       11.071      858.330
04/03/2014  17:12:00     -311.169      -53.651      -17.374      145.797      131.832       62.772    21256.643    17379.556     3940.284        7.128        2.129      315.761       63.714        0.041      338.424       11.063      858.314
04/03/2014  17:13:00     -301.880     -195.303       11.197      226.530      144.094       89.136    51315.648    20763.008     7945.164       10.470        4.001      359.548       94.453        0.069      338.384       10.996      858.298
04/03/2014  17:14:00     -330.735     -153.361        3.472      171.744      135.480       83.324    29496.131    18354.889     6942.838        9.384        2.740      364.561       92.127        0.064      338.425       11.063      858.303
04/03/2014  17:15:00     -238.209     -171.981       -1.957      204.343      164.117       89.144    41755.891    26934.433     7946.716        8.147        3.832      293.804      111.514        0.144      338.470       11.140      858.294
04/03/2014  17:16:00     -453.550      -75.962      -24.428      187.009      151.413       84.861    34972.268    22925.835     7201.315       13.857        3.255      459.867       98.380        0.046      338.367       10.968      858.286
04/03/2014  17:17:00     -323.415     -185.222        5.547      177.750      147.815       73.972    31595.084    21849.293     5471.841        9.891        2.946      372.699       80.277        0.046      338.385       10.999      858.295
04/03/2014  17:18:00     -309.537      -55.747      -12.130      147.594      120.374       67.309    21784.038    14489.873     4530.463        6.993        2.040      314.517       72.107        0.053      338.424       11.061      858.292
04/03/2014  17:19:00     -351.302      -84.453       -8.122      213.514      150.150       85.777    45588.251    22544.947     7357.725       10.304        3.775      361.311      102.829        0.081      338.408       11.036      858.271
04/03/2014  17:20:00     -196.955      -27.641       12.557      167.808       98.310       69.002    28159.639     9664.808     4761.245        4.114        2.129      198.885       74.263        0.139      338.445       11.099      858.280
04/03/2014  17:21:00     -264.680     -131.610       -6.884      136.347       88.212       71.977    18590.486     7781.353     5180.727        5.948        1.578      295.595       58.658        0.039      338.413       11.043      858.317
04/03/2014  17:22:00     -257.502     -147.898       -9.912      185.283      139.865       74.820    34329.812    19562.182     5598.062        7.387        2.975      296.953       82.772        0.078      338.331       10.908      858.329
04/03/2014  17:23:00     -250.682      -87.260      -13.968      164.259       96.283       60.939    26981.173     9270.453     3713.548        5.530        1.998      265.435       71.778        0.073      338.418       11.054      858.335
04/03/2014  17:24:00     -319.921      -62.077       -4.125      172.662      112.864       72.039    29812.161    12738.311     5189.548        7.697        2.387      325.888       84.116        0.067      338.338       10.920      858.318
04/03/2014  17:25:00     -318.174      -79.189        3.285      117.789       91.574       56.385    13874.337     8385.876     3179.258        6.647        1.272      327.880       58.210        0.032      338.309       10.869      858.318
04/03/2014  17:26:00     -280.673     -114.683       -4.337      146.502      139.077       73.478    21462.731    19342.339     5399.059        6.907        2.310      303.199       67.046        0.049      338.391       11.008      858.295
04/03/2014  17:27:00     -280.858      -87.941        3.955      142.208      125.154       60.785    20223.015    15663.551     3694.768        6.310        1.979      294.304       54.000        0.034      338.425       11.065      858.292
04/03/2014  17:28:00     -124.489      -60.201        7.119      131.220      124.914       49.761    17218.790    15603.478     2476.204        2.723        1.765      138.281       54.267        0.154      338.509       11.207      858.302
04/03/2014  17:29:00     -168.438     -145.958        4.414      147.006       88.394       67.429    21610.723     7813.532     4546.670        4.183        1.699      222.879       72.242        0.105      338.330       10.905      858.295
04/03/2014  17:30:00     -270.810     -123.052      -28.171      194.880      104.488       66.200    37978.053    10917.843     4382.504        7.127        2.664      297.455       88.942        0.089      338.311       10.872      858.286
04/03/2014  17:31:00     -384.272     -234.789      -16.131      201.310      116.841       95.450    40525.894    13651.863     9110.737       13.316        3.164      450.323       98.098        0.047      338.194       10.677      858.263
04/03/2014  17:32:00     -165.720      -56.513        4.697      154.180       89.552       49.774    23771.395     8019.620     2477.498        3.247        1.713      175.091       48.497        0.077      338.321       10.891      858.251
04/03/2014  17:33:00     -234.835      -43.921       -9.727      127.137       88.237       46.514    16163.788     7785.804     2163.551        4.164        1.306      238.907       55.312        0.054      338.314       10.878      858.229
04/03/2014  17:34:00     -139.924      -50.184       11.094      162.124      129.881       74.036    26284.036    16869.023     5481.395        3.542        2.432      148.651       82.141        0.305      338.409       11.040      858.206
04/03/2014  17:35:00     -114.611      -35.401       13.838      113.370       82.352       49.966    12852.804     6781.828     2496.584        1.835        1.107      119.954       49.872        0.173      338.471       11.143      858.196
04/03/2014  17:36:00     -222.910      -80.717        5.626      193.592      111.702       73.640    37477.684    12477.345     5422.885        5.580        2.769      237.074       96.762        0.167      338.371       10.974      858.172
04/03/2014  17:37:00     -393.704      -52.611      -12.014      189.090      113.240       73.371    35755.212    12823.288     5383.371       10.593        2.698      397.204       87.038        0.048      338.301       10.856      858.181
04/03/2014  17:38:00     -283.915      -47.122       -4.989      126.379      113.092       62.851    15971.637    12789.738     3950.255        5.778        1.636      287.799       64.661        0.050      338.352       10.942      858.187
04/03/2014  17:39:00     -329.993     -111.220      -10.813      192.300      150.020       85.139    36979.288    22505.866     7248.624        9.404        3.337      348.232       78.724        0.051      338.288       10.834      858.185
04/03/2014  17:40:00     -338.797      -62.435      -19.408      148.688      142.491       65.073    22108.107    20303.726     4234.446        8.284        2.332      344.502       75.302        0.048      338.331       10.906      858.198
04/03/2014  17:41:00     -336.102     -124.145        0.486      263.409      156.397      105.032    69384.257    24460.111    11031.818       11.661        5.244      358.297      129.802        0.131      338.226       10.732      858.190
04/03/2014  17:42:00     -488.253     -103.212      -23.744      250.553      181.384       96.466    62777.019    32900.116     9305.758       17.727        5.249      499.043      121.213        0.059      338.163       10.625      858.204
04/03/2014  17:43:00     -370.404      -77.748       -7.897      185.747      174.264       79.274    34501.890    30368.056     6284.353       10.722        3.558      378.476       77.539        0.042      338.208       10.701      858.215
04/03/2014  17:44:00     -309.239      -72.275       -8.443      170.704      143.438       80.564    29139.756    20574.434     6490.623        7.855        2.810      317.573       87.487        0.076      338.179       10.651      858.202
04/03/2014  17:45:00     -307.593      -87.756       -3.542      195.937      156.943       74.067    38391.452    24631.083     5485.980        8.540        3.425      319.866       92.799        0.084      338.164       10.627      858.203
04/03/2014  17:46:00     -403.967      -74.581        0.946      187.673      163.350       90.895    35221.111    26683.069     8261.823       11.945        3.508      410.794       96.924        0.056      338.135       10.578      858.164
04/03/2014  17:47:00     -296.044      -73.091       10.599      161.737      147.904       78.740    26158.834    21875.465     6200.039        7.365        2.712      304.934       72.095        0.056      338.217       10.715      858.142
04/03/2014  17:48:00     -346.474      -32.860       -3.644      147.581      138.055       70.280    21780.020    19059.149     4939.227        8.345        2.289      348.029       73.820        0.045      338.187       10.665      858.151
04/03/2014  17:49:00     -312.555       22.493      -14.032      158.852      127.271       76.536    25233.926    16197.825     5857.801        7.283        2.364      313.363       71.500        0.052      338.261       10.789      858.145
04/03/2014  17:50:00     -412.176     -126.770      -17.683      266.858      180.712      107.835    71213.245    32656.887    11628.306       15.086        5.775      431.231      102.593        0.057      338.187       10.665      858.112
04/03/2014  17:51:00     -531.291      -72.801      -11.263      224.283      192.680      107.102    50302.812    37125.409    11470.756       19.328        4.945      536.255      115.287        0.046      338.119       10.551      858.070
04/03/2014  17:52:00     -386.844     -123.388       -6.138      256.260      197.642      105.757    65668.963    39062.525    11184.602       14.039        5.796      406.046      117.245        0.083      338.160       10.620      858.058
04/03/2014  17:53:00     -497.212     -116.566      -26.912      243.780      198.996       85.017    59428.730    39599.576     7227.850       18.387        5.313      510.693       99.522        0.038      338.127       10.563      858.088
04/03/2014  17:54:00     -284.957      -80.451        2.209      240.347      172.117      119.809    57766.627    29624.409    14354.243        9.469        5.087      296.096      131.883        0.198      338.166       10.629      858.083
04/03/2014  17:55:00     -340.608     -264.911        2.095      225.303      198.095      125.760    50761.485    39241.802    15815.510       14.599        5.291      431.499      132.068        0.094      338.086       10.496      858.098
04/03/2014  17:56:00     -472.328     -155.514      -23.947      290.028      201.872       99.848    84116.473    40752.193     9969.649       19.132        6.742      497.271      120.613        0.059      338.123       10.557      858.127
04/03/2014  17:57:00     -520.053     -116.593      -24.111      191.745      183.193       92.359    36766.297    33559.631     8530.173       18.173        3.943      532.963       90.673        0.029      338.085       10.494      858.143
04/03/2014  17:58:00     -448.606      -50.237      -39.314      159.958      166.198       86.839    25586.540    27621.941     7541.052       13.302        3.037      451.410       90.214        0.040      338.104       10.524      858.197
04/03/2014  17:59:00     -521.519     -239.416      -40.253      194.595      146.360       80.655    37867.059    21421.221     6505.213       19.834        3.290      573.849       86.911        0.023      338.022       10.388      858.182
04/03/2014  18:00:00     -276.010      -92.095       -2.609      154.510      146.162       68.866    23873.479    21363.444     4742.519        6.731        2.499      290.969       65.369        0.050      338.088       10.499      858.188
04/03/2014  18:01:00     -255.409     -113.950        8.323      202.406      148.967       76.405    40968.287    22191.282     5837.727        7.363        3.450      279.676       84.772        0.092      338.094       10.509      858.188
04/03/2014  18:02:00     -347.744     -148.706      -10.933      220.080      145.186       77.835    48435.029    21078.873     6058.238       10.935        3.779      378.205       99.567        0.069      338.051       10.437      858.184
04/03/2014  18:03:00     -422.722     -197.639      -19.443      189.374      149.152       87.210    35862.357    22246.356     7605.648       14.191        3.286      466.642       97.428        0.044      338.045       10.426      858.157
04/03/2014  18:04:00     -373.860      -93.756      -19.039      206.218      135.123       79.313    42526.046    18258.177     6290.579       10.799        3.354      385.437       84.119        0.048      338.124       10.560      858.136
04/03/2014  18:05:00     -507.556     -113.210      -24.217      220.661      147.592       87.518    48691.481    21783.370     7659.457       17.456        3.907      520.029      100.989        0.038      338.083       10.491      858.118
04/03/2014  18:06:00     -413.499     -123.339      -15.057      176.242      154.295       71.845    31061.159    23806.986     5161.651       12.321        3.001      431.502       56.507        0.017      338.118       10.550      858.095
04/03/2014  18:07:00     -382.582      -66.602        1.050      215.075      166.858       91.216    46257.448    27841.582     8320.299       11.660        4.121      388.336      112.035        0.083      338.197       10.681      858.078
04/03/2014  18:08:00     -436.602      -96.407      -38.675      174.658      139.376       83.266    30505.438    19425.795     6933.292       12.913        2.843      447.120       92.481        0.043      338.180       10.654      858.075
04/03/2014  18:09:00     -297.509     -222.176      -31.580      143.889      151.635       83.685    20704.029    22993.131     7003.150        9.478        2.535      371.314       79.452        0.046      338.166       10.629      858.071
04/03/2014  18:10:00     -242.449      -49.250       -1.772      134.971       91.098       67.744    18217.195     8298.886     4589.258        4.615        1.555      247.401       69.978        0.080      338.269       10.803      858.067
04/03/2014  18:11:00     -407.215      -29.829      -21.150      207.152      160.260       81.372    42911.888    25683.339     6621.351       12.117        3.761      408.307       89.844        0.048      338.215       10.712      858.074
04/03/2014  18:12:00     -309.278      -89.441       -5.903      209.226      119.703       77.357    43775.327    14328.870     5984.152        8.388        3.204      321.951       92.892        0.083      338.218       10.717      858.094
04/03/2014  18:13:00     -259.746     -170.422        4.577      187.761      178.724      101.048    35254.344    31942.226    10210.714        8.695        3.870      310.663      121.530        0.153      338.199       10.685      858.062
04/03/2014  18:14:00     -392.906     -127.835      -21.892      210.614      166.734       97.813    44358.212    27800.228     9567.334       12.644        4.086      413.179      114.794        0.077      338.180       10.654      858.068
04/03/2014  18:15:00     -308.070     -142.732      -16.037      179.160      148.308       72.726    32098.211    21995.328     5289.133        8.745        2.969      339.528       65.615        0.037      338.202       10.690      858.078
04/03/2014  18:16:00     -518.174     -256.375       -0.341      245.373      155.799       98.921    60207.832    24273.280     9785.283       21.423        4.713      578.129      105.847        0.034      338.062       10.453      858.075
04/03/2014  18:17:00     -382.647     -245.079       -9.479      218.804      151.127       88.160    47875.067    22839.314     7772.148       14.251        3.924      454.404       98.434        0.047      338.052       10.438      858.078
04/03/2014  18:18:00     -296.078      -49.969        1.917      200.061      178.509       78.169    40024.435    31865.290     6110.391        8.407        3.900      300.265       87.702        0.085      338.169       10.633      858.106
04/03/2014  18:19:00     -429.974      -65.756      -24.802      164.072      130.009       83.053    26919.733    16902.305     6897.788       12.026        2.536      434.972       83.020        0.036      338.163       10.623      858.112
04/03/2014  18:20:00     -263.198      -61.419       -7.110      199.120      119.395       71.354    39648.868    14255.150     5091.431        6.603        2.950      270.269       81.002        0.090      338.239       10.753      858.114
04/03/2014  18:21:00     -238.933      -67.493       -0.235      184.882      138.238       71.731    34181.385    19109.732     5145.388        6.003        2.922      248.283       83.153        0.112      338.233       10.742      858.103
04/03/2014  18:22:00     -348.371      -71.628      -13.701      174.794      115.052       68.486    30552.790    13237.049     4690.289        8.757        2.424      355.659       77.354        0.047      338.200       10.688      858.105
04/03/2014  18:23:00     -164.614      -85.513       17.396      201.800      136.799       76.723    40723.203    18713.908     5886.378        5.001        3.266      185.500      100.650        0.294      338.220       10.723      858.085
04/03/2014  18:24:00     -384.675      -78.612      -36.709      173.827      154.181       86.024    30215.709    23771.874     7400.142       10.843        3.069      392.626       75.529        0.037      338.174       10.642      858.097
04/03/2014  18:25:00     -451.162      -45.179      -25.121      181.536      150.519       88.664    32955.154    22655.888     7861.287       13.483        3.174      453.418       95.443        0.044      338.137       10.580      858.066
04/03/2014  18:26:00     -403.723      -96.496       -0.555      189.014      133.984       87.702    35726.383    17951.679     7691.590       11.682        3.068      415.095       84.556        0.041      338.099       10.518      858.056
04/03/2014  18:27:00     -382.093      -70.656      -17.749      122.318      113.415       62.320    14961.572    12862.850     3883.804        9.150        1.585      388.571       54.728        0.020      338.120       10.553      858.059
04/03/2014  18:28:00     -242.519      -88.042        6.251      189.990      144.832       79.120    36096.037    20976.440     6259.979        6.496        3.167      258.006      104.937        0.165      338.197       10.683      858.045
04/03/2014  18:29:00     -214.981     -130.871       -2.636      190.584      125.465       68.762    36322.331    15741.389     4728.210        6.006        2.840      251.682       86.746        0.119      338.161       10.622      858.053
04/03/2014  18:30:00     -160.462      -83.287        3.162      151.069      127.943       72.534    22821.922    16369.319     5261.220        3.856        2.223      180.789       82.882        0.210      338.179       10.653      858.053
04/03/2014  18:31:00     -199.767      -69.353       21.207      235.987      138.567       97.696    55689.845    19200.889     9544.514        6.478        4.222      211.463      131.480        0.387      338.170       10.637      858.032
04/03/2014  18:32:00     -357.515      -97.982       -4.178      178.207      137.854       77.673    31757.891    19003.855     6033.162        9.710        2.840      370.699       78.216        0.045      338.089       10.501      858.043
04/03/2014  18:33:00     -340.154      -80.532       16.403      207.895      169.678       76.073    43220.256    28790.519     5787.041       10.011        3.890      349.557       92.767        0.070      338.034       10.408      858.054
04/03/2014  18:34:00     -215.358      -14.754       10.785      143.663       91.573       62.623    20639.179     8385.683     3921.692        3.982        1.647      215.863       61.867        0.082      338.159       10.620      858.082
04/03/2014  18:35:00     -194.929      -86.855        9.105      185.408      128.911       80.885    34376.279    16617.936     6542.430        5.157        2.877      213.404       90.697        0.181      338.113       10.541      858.085
04/03/2014  18:36:00     -392.129      -62.709      -20.580      194.552      144.512       72.760    37850.299    20883.629     5294.089       11.106        3.201      397.111       74.173        0.035      338.033       10.407      858.103
04/03/2014  18:37:00     -166.464      -28.899       13.755      122.619      102.629       69.778    15035.343    10532.810     4868.937        2.958        1.522      168.954       73.450        0.189      338.147       10.599      858.107
04/03/2014  18:38:00     -417.114       22.488      -26.599      181.375      131.539       71.145    32896.862    17302.584     5061.594       11.522        2.763      417.720       75.405        0.033      338.060       10.451      858.098
04/03/2014  18:39:00     -467.363       -8.868      -20.546      154.704      144.450       72.946    23933.394    20865.680     5321.177       13.451        2.506      467.447       63.518        0.018      337.971       10.302      858.105
04/03/2014  18:40:00     -336.692     -103.132       -4.967      224.191      207.109       98.875    50261.484    42894.327     9776.280       11.346        5.147      352.133      114.353        0.105      337.932       10.237      858.129
04/03/2014  18:41:00     -259.213      -68.114        3.490      138.020      134.029       69.378    19049.575    17963.671     4813.360        5.683        2.091      268.013       61.846        0.053      337.989       10.332      858.125
04/03/2014  18:42:00     -389.837      -25.514      -17.839      164.474      152.314       73.034    27051.602    23199.488     5333.898       10.425        2.779      390.671       74.492        0.036      337.886       10.159      858.131
04/03/2014  18:43:00     -429.348     -130.992      -17.076      164.202      135.814       68.593    26962.230    18445.477     4704.980       12.594        2.506      448.886       76.160        0.029      337.867       10.127      858.127
04/03/2014  18:44:00     -389.729      -87.870      -24.606      209.765      134.617       69.880    44001.492    18121.837     4883.280       11.360        3.350      399.512       80.183        0.040      337.889       10.165      858.140
04/03/2014  18:45:00     -509.268     -109.640      -27.235      158.044      120.385       76.805    24977.964    14492.587     5899.008       15.873        2.268      520.936       74.647        0.021      337.826       10.058      858.162
04/03/2014  18:46:00     -244.217     -194.864        8.192      190.393      170.913       92.867    36249.389    29211.211     8624.326        8.587        3.704      312.433      103.961        0.111      337.830       10.067      858.178
04/03/2014  18:47:00     -222.810     -177.296        5.401      180.446      149.891       89.144    32560.597    22467.199     7946.716        7.203        3.149      284.742       87.037        0.093      337.844       10.091      858.184
04/03/2014  18:48:00     -301.712      -83.374      -10.684      210.800      113.510       82.016    44436.529    12884.455     6726.556        8.106        3.202      313.020       96.332        0.095      337.782        9.987      858.213
04/03/2014  18:49:00     -375.862     -155.372       -8.597      185.801      150.531       83.663    34522.163    22659.529     6999.569       11.482        3.209      406.709       87.775        0.047      337.737        9.910      858.221
04/03/2014  18:50:00     -337.899     -108.119       -2.186      239.164      189.256      107.737    57199.279    35817.721    11607.336       11.523        5.231      354.776      133.466        0.142      337.764        9.954      858.219
04/03/2014  18:51:00     -445.423     -123.070       -6.791      319.965      242.204      105.967   102377.712    58662.826    11228.917       19.290        8.613      462.112      141.631        0.094      337.753        9.937      858.172
04/03/2014  18:52:00     -492.887      -48.331      -19.872      244.855      182.970      101.136    59954.045    33478.190    10228.505       17.464        5.183      495.251      120.802        0.059      337.715        9.874      858.214
04/03/2014  18:53:00     -530.786      -56.019      -27.160      229.386      161.900       93.980    52618.150    26211.742     8832.191       18.662        4.383      533.734       92.990        0.030      337.692        9.835      858.185
04/03/2014  18:54:00     -469.795     -130.379      -14.044      178.640      139.286       85.691    31912.401    19400.660     7342.881       14.827        2.933      487.551       87.422        0.032      337.696        9.840      858.191
04/03/2014  18:55:00     -410.314      -61.680       -1.533      247.981      169.516       93.868    61494.641    28735.625     8811.152       13.558        4.952      414.924      121.660        0.086      337.724        9.888      858.197
04/03/2014  18:56:00     -450.456     -118.373      -12.143      226.701      184.438       97.678    51393.314    34017.380     9541.082       15.599        4.748      465.749       98.073        0.044      337.669        9.797      858.192
04/03/2014  18:57:00     -442.177     -127.049       -4.547      195.235      152.553       80.904    38116.828    23272.557     6545.409       13.980        3.397      460.068       92.331        0.040      337.656        9.775      858.189
04/03/2014  18:58:00     -346.199        2.341       16.059      203.659      158.297       85.954    41476.929    25057.826     7388.039        9.701        3.696      346.207       96.067        0.077      337.730        9.899      858.246
04/03/2014  18:59:00     -400.724      -42.687      -16.234      164.886      117.540       73.085    27187.252    13815.581     5341.407       10.450        2.317      402.991       73.428        0.033      337.663        9.787      858.247
04/03/2014  19:00:00     -263.686      -91.660      -17.254      151.094      140.864       54.803    22829.425    19842.801     3003.360        6.194        2.284      279.163       59.436        0.045      337.723        9.889      858.265
04/03/2014  19:01:00     -431.174        3.741        1.679      191.390      162.954      102.285    36630.220    26553.932    10462.155       12.977        3.682      431.191      103.687        0.058      337.657        9.775      858.246
04/03/2014  19:02:00     -471.026     -114.012      -21.324      264.701      176.562      108.285    70066.559    31174.185    11725.673       17.412        5.648      484.628      123.937        0.065      337.591        9.664      858.244
04/03/2014  19:03:00     -193.485      -25.209        8.230      197.629      106.772       87.466    39057.114    11400.174     7650.324        4.811        2.905      195.120      100.650        0.266      337.670        9.797      858.247
04/03/2014  19:04:00     -246.423      -49.263       10.800      215.612      114.787       96.839    46488.632    13176.106     9377.859        6.614        3.452      251.299      123.805        0.243      337.650        9.766      858.237
04/03/2014  19:05:00     -193.341      -59.395       -0.052      125.979      105.348       59.647    15870.620    11098.255     3557.736        3.571        1.526      202.258       64.101        0.100      337.641        9.749      858.220
04/03/2014  19:06:00     -172.818      -64.994        5.833      197.103      168.653       97.494    38849.547    28443.884     9505.029        5.545        3.840      184.635       94.565        0.262      337.631        9.733      858.218
04/03/2014  19:07:00     -461.535     -252.101      -17.467      208.511      172.934       90.041    43476.999    29906.240     8107.325       17.917        4.075      525.899      105.191        0.040      337.541        9.581      858.236
04/03/2014  19:08:00     -419.833     -175.281      -11.734      214.571      173.295       86.819    46040.627    30031.255     7537.559       14.535        4.180      454.954       97.077        0.046      337.543        9.584      858.249
04/03/2014  19:09:00     -266.314     -111.561       -2.470      142.492      153.888       71.533    20303.955    23681.436     5116.900        6.623        2.455      288.737       63.803        0.049      337.527        9.559      858.274
04/03/2014  19:10:00     -226.335      -32.713       -3.284      128.824      127.998       69.940    16595.726    16383.591     4891.589        4.508        1.894      228.687       71.119        0.097      337.596        9.674      858.283
04/03/2014  19:11:00     -267.953       30.784       -6.855      188.922       98.798       66.020    35691.599     9761.093     4358.624        6.129        2.491      269.716       78.057        0.084      337.577        9.642      858.280
04/03/2014  19:12:00     -381.026      -14.124      -21.877      143.866      148.051       61.552    20697.287    21918.991     3788.677        9.612        2.320      381.288       63.385        0.028      337.562        9.617      858.241
04/03/2014  19:13:00     -182.492     -156.896        4.760      122.733       96.692       53.919    15063.347     9349.362     2907.227        4.263        1.366      240.665       56.821        0.056      337.521        9.547      858.250
04/03/2014  19:14:00     -179.360      -41.234       -7.905      102.003       63.017       45.245    10404.625     3971.098     2047.076        2.517        0.821      184.038       43.770        0.057      337.644        9.754      858.225
04/03/2014  19:15:00     -259.205     -152.003       -0.297      153.066      140.413       81.213    23429.318    19715.880     6595.542        7.001        2.487      300.486       94.540        0.099      337.531        9.566      858.208
04/03/2014  19:16:00     -262.305      -94.336       12.324      178.335      120.212       70.675    31803.495    14450.843     4994.983        6.454        2.562      278.753       83.360        0.089      337.524        9.553      858.213
04/03/2014  19:17:00     -231.728     -131.953       -6.011      161.747      129.779       69.276    26162.058    16842.641     4799.188        5.947        2.390      266.664       78.052        0.086      337.516        9.539      858.213
04/03/2014  19:18:00     -365.773     -214.435      -21.163      172.120      164.248       73.953    29625.348    26977.383     5468.973       12.113        3.104      423.996       81.220        0.037      337.489        9.494      858.205
04/03/2014  19:19:00     -349.346     -235.297      -12.196      204.889      134.424       89.840    41979.681    18069.733     8071.255       12.282        3.406      421.198      111.762        0.070      337.428        9.394      858.205
04/03/2014  19:20:00     -227.013     -177.415        1.410      163.016      117.840       80.108    26574.054    13886.153     6417.215        6.494        2.344      288.116       82.607        0.082      337.455        9.437      858.200
04/03/2014  19:21:00     -229.687      -66.516        2.993      179.483      147.296       75.895    32214.247    21696.195     5759.996        5.842        2.984      239.125       61.619        0.066      337.492        9.499      858.216
04/03/2014  19:22:00     -363.813     -147.570       -7.391      254.132      172.805       76.923    64582.846    29861.627     5917.132       12.726        5.018      392.602       97.228        0.061      337.389        9.326      858.195
04/03/2014  19:23:00     -204.180      -47.024       -2.024      146.734      123.718       79.811    21530.929    15306.152     6369.778        4.355        2.160      209.525       80.871        0.149      337.483        9.483      858.188
04/03/2014  19:24:00      -88.645      -75.776       38.468      150.909      117.052       68.602    22773.623    13701.283     4706.232        2.812        2.059      116.619       85.383        0.536      337.486        9.490      858.209
04/03/2014  19:25:00     -214.541      -46.220       20.300      187.917      182.142       83.999    35312.870    33175.720     7055.916        6.205        3.777      219.463       95.319        0.189      337.421        9.381      858.195
04/03/2014  19:26:00     -462.041     -124.649      -20.462      185.491      161.657       87.970    34406.768    26133.142     7738.731       14.884        3.414      478.560       85.806        0.032      337.385        9.320      858.208
04/03/2014  19:27:00     -494.750     -131.154      -27.367      229.958      177.089      100.811    52880.759    31360.455    10162.839       17.855        4.720      511.839      110.903        0.047      337.356        9.271      858.187
04/03/2014  19:28:00     -348.215     -109.549       -4.322      129.304      119.493       76.565    16719.538    14278.638     5862.221        8.506        1.843      365.040       66.020        0.033      337.354        9.268      858.225
04/03/2014  19:29:00     -322.703      -73.811      -14.206      153.354      106.370       70.119    23517.600    11314.648     4916.641        7.476        1.987      331.037       75.979        0.053      337.379        9.311      858.238
04/03/2014  19:30:00     -304.333      -68.308       -2.640      115.904      118.772       67.790    13433.663    14106.709     4595.522        6.471        1.607      311.905       64.278        0.042      337.353        9.266      858.234
04/03/2014  19:31:00     -342.444     -121.067      -24.570      156.027      137.834       77.163    24344.349    18998.086     5954.062        9.090        2.465      363.215       71.776        0.039      337.357        9.273      858.224
04/03/2014  19:32:00     -241.292     -193.380        1.734      194.558      134.409       89.440    37852.734    18065.894     7999.495        7.976        3.196      309.222      109.684        0.126      337.369        9.294      858.205
04/03/2014  19:33:00     -206.956     -111.028       -0.729      177.272      117.481       65.930    31425.333    13801.900     4346.827        5.236        2.479      234.857       80.881        0.119      337.361        9.280      858.197
04/03/2014  19:34:00     -245.161       -0.998       -1.078      210.178      105.257       89.704    44174.932    11079.036     8046.777        6.169        3.165      245.163       87.216        0.127      337.364        9.285      858.193
04/03/2014  19:35:00     -342.763      -55.062      -28.035      190.677      133.111       81.543    36357.804    17718.498     6649.210        9.100        3.036      347.157       87.047        0.063      337.353        9.265      858.182
04/03/2014  19:36:00     -344.464     -126.009        1.995      250.852      183.921      108.900    62926.918    33827.027    11859.244       12.155        5.431      366.788      120.969        0.109      337.324        9.218      858.194
04/03/2014  19:37:00     -283.878     -112.166       10.765      218.449      170.458       88.930    47720.171    29056.054     7908.477        8.897        4.234      305.234      101.400        0.110      337.393        9.333      858.232
04/03/2014  19:38:00     -397.406      -83.463      -24.867      213.640      117.074       81.445    45641.965    13706.306     6633.310       11.574        3.299      406.076      105.597        0.068      337.325        9.219      858.282
04/03/2014  19:39:00     -261.460      -85.486       -1.974      141.813       98.384       64.459    20110.969     9679.328     4154.987        5.480        1.697      275.081       67.044        0.059      337.325        9.219      858.298
04/03/2014  19:40:00     -308.321     -157.502       -0.788      236.674      155.606       89.343    56014.502    24213.315     7982.111       10.402        4.410      346.220      127.921        0.137      337.294        9.168      858.306
04/03/2014  19:41:00     -323.919      -37.509       -6.603      193.670      129.100       74.430    37508.096    16666.747     5539.869        8.303        2.986      326.083       89.548        0.075      337.283        9.151      858.317
04/03/2014  19:42:00     -351.762      -90.238       -5.663      244.104      157.876       88.905    59586.981    24924.920     7904.110       11.215        4.621      363.152      111.904        0.095      337.308        9.192      858.340
04/03/2014  19:43:00     -256.195     -119.065      -11.286      135.143      102.041       69.706    18263.605    10412.455     4858.938        5.673        1.677      282.511       63.757        0.051      337.254        9.102      858.375
04/03/2014  19:44:00     -323.761     -200.244        6.913      191.989      164.319       94.006    36859.659    27000.794     8837.140       10.882        3.635      380.682      108.129        0.081      337.248        9.092      858.368
04/03/2014  19:45:00     -195.725     -140.395        7.416      212.611      136.944       83.224    45203.245    18753.528     6926.286        6.446        3.544      240.871      106.985        0.197      337.260        9.112      858.371
04/03/2014  19:46:00     -314.890     -190.168      -10.917      190.870      138.769       77.664    36431.394    19256.846     6031.745        9.857        3.086      367.858       87.933        0.057      337.222        9.047      858.378
04/03/2014  19:47:00     -367.344     -234.381      -18.890      228.331      176.483      104.846    52134.854    31146.225    10992.675       14.223        4.714      435.747      120.699        0.077      337.204        9.019      858.367
04/03/2014  19:48:00     -349.830     -164.086      -13.861      267.038      165.118       78.973    71309.295    27263.817     6236.793       12.713        5.240      386.400      109.393        0.080      337.200        9.011      858.362
04/03/2014  19:49:00     -390.029      -18.434       -7.865      262.227      120.596       87.730    68762.846    14543.504     7696.599       12.175        4.550      390.465      113.778        0.085      337.232        9.064      858.378
04/03/2014  19:50:00     -254.979     -124.088        0.991      142.323      167.833       75.333    20255.851    28168.043     5675.129        6.725        2.705      283.571       79.729        0.079      337.210        9.026      858.382
04/03/2014  19:51:00     -254.091     -166.510        1.007      205.776      161.624       94.691    42343.659    26122.413     8966.459        8.485        3.872      303.789      105.126        0.120      337.187        8.989      858.362
04/03/2014  19:52:00     -426.058     -177.340       -8.556      223.997      183.468      100.737    50174.482    33660.513    10147.891       15.350        4.699      461.492      102.430        0.049      337.158        8.941      858.373
04/03/2014  19:53:00     -533.198     -211.478      -25.768      248.677      185.971       91.672    61840.458    34585.196     8403.740       21.724        5.241      573.605      107.338        0.035      337.118        8.874      858.405
04/03/2014  19:54:00     -450.718     -173.389      -15.461      256.527      159.733       81.941    65805.900    25514.777     6714.249       16.572        4.902      482.919       91.110        0.036      337.131        8.896      858.435
04/03/2014  19:55:00     -588.107     -217.707      -25.926      184.318      164.297       84.557    33973.251    26993.570     7149.948       23.101        3.406      627.109       95.936        0.023      337.076        8.802      858.444
04/03/2014  19:56:00     -160.388      -20.446       21.337      171.314      132.570       70.776    29348.377    17574.805     5009.176        3.925        2.597      161.686       67.177        0.173      337.199        9.010      858.459
04/03/2014  19:57:00     -161.954     -101.786       18.975      181.831      159.247       93.471    33062.401    25359.501     8736.848        5.204        3.358      191.284      108.788        0.323      337.142        8.913      858.482
04/03/2014  19:58:00     -142.000     -100.944       11.203      182.745      153.672       90.390    33395.614    23615.083     8170.345        4.782        3.259      174.222       83.158        0.228      337.141        8.913      858.508
04/03/2014  19:59:00     -217.502      -95.208        4.255      165.553      120.826       62.487    27407.795    14598.930     3904.611        5.114        2.296      237.428       71.706        0.091      337.074        8.799      858.494
04/03/2014  20:00:00     -165.243      -43.228        8.206      103.195       76.902       46.439    10649.233     5913.948     2156.594        2.398        0.936      170.803       48.336        0.080      337.083        8.814      858.459
04/03/2014  20:01:00     -297.338     -107.065       -5.455      228.251      133.727       74.312    52098.414    17882.864     5522.293        8.769        3.775      316.027       99.821        0.100      337.104        8.850      858.478
04/03/2014  20:02:00     -350.168     -152.869        1.431      212.315      184.833       90.266    45077.550    34163.229     8147.905       11.667        4.369      382.082      107.991        0.080      337.079        8.806      858.475
04/03/2014  20:03:00     -417.494     -167.983       -9.448      296.056      170.090      109.922    87649.338    28930.533    12082.808       16.561        6.433      450.022      129.305        0.083      337.058        8.773      858.456
04/03/2014  20:04:00     -356.420     -285.468       10.701      279.910      212.664      127.470    78349.396    45225.851    16248.511       17.421        6.991      456.648      129.041        0.080      337.043        8.747      858.463
04/03/2014  20:05:00     -336.427     -108.282      -13.843      257.733      143.929      105.844    66426.229    20715.467    11202.998       11.170        4.917      353.424      100.897        0.082      337.054        8.766      858.484
04/03/2014  20:06:00     -252.717      -92.535        4.154      170.130      113.443       83.982    28944.111    12869.313     7053.051        6.065        2.443      269.125       87.494        0.106      337.070        8.792      858.531
04/03/2014  20:07:00     -549.290      -78.640      -38.619      224.432      146.735       89.123    50369.782    21531.156     7942.833       19.460        3.992      554.890      105.026        0.036      337.009        8.691      858.549
04/03/2014  20:08:00     -371.094     -129.171       -0.088      189.013      153.836       94.965    35726.060    23665.483     9018.415       11.139        3.420      392.933       87.867        0.050      336.990        8.660      858.549
04/03/2014  20:09:00     -471.588     -107.657      -32.237      210.293      139.013       83.177    44223.221    19324.728     6918.357       15.273        3.523      483.721       94.152        0.038      337.011        8.693      858.572
04/03/2014  20:10:00     -565.144     -100.048      -39.245      155.860      184.941       80.797    24292.296    34203.304     6528.224       19.797        3.251      573.931       77.917        0.018      336.978        8.639      858.566
04/03/2014  20:11:00     -312.931     -104.913       -6.449      145.163      130.849       59.261    21072.271    17121.463     3511.884        7.533        2.085      330.049       60.806        0.034      337.026        8.717      858.557
04/03/2014  20:12:00     -233.215     -123.934        2.940      153.012      132.173       75.124    23412.647    17469.590     5643.648        5.813        2.326      264.100       75.341        0.081      337.031        8.726      858.586
04/03/2014  20:13:00     -237.606       -6.411      -16.368      147.617      112.934       58.938    21790.732    12753.979     3473.637        4.738        1.901      237.693       67.626        0.081      337.074        8.799      858.619
04/03/2014  20:14:00     -212.865        0.703        3.365      128.486       84.712       56.031    16508.631     7176.151     3139.494        3.607        1.341      212.866       55.935        0.069      337.089        8.825      858.611
04/03/2014  20:15:00     -377.626      -32.941      -23.542      142.027      105.543       71.881    20171.738    11139.285     5166.905        9.035        1.824      379.060       80.474        0.045      336.959        8.608      858.593
04/03/2014  20:16:00     -375.303        9.905      -11.172      202.394       98.943       68.262    40963.307     9789.799     4659.753        9.823        2.771      375.433       84.458        0.051      336.956        8.604      858.603
04/03/2014  20:17:00     -539.665     -116.539      -15.940      254.037      185.670      102.828    64534.790    34473.337    10573.514       20.731        5.479      552.105      111.329        0.041      336.838        8.404      858.600
04/03/2014  20:18:00     -502.805      -32.288      -38.172      257.264      186.747       99.497    66184.656    34874.326     9899.571       18.311        5.548      503.841      113.555        0.051      336.777        8.304      858.597
04/03/2014  20:19:00     -379.288     -122.644       -9.605      193.917      140.018       82.587    37603.844    19604.932     6820.605       11.150        3.201      398.624       93.872        0.055      336.812        8.362      858.615
04/03/2014  20:20:00     -296.935      -45.996      -18.558      225.832      132.188       81.039    51000.121    17473.685     6567.352        8.282        3.752      300.477       95.227        0.100      336.798        8.338      858.606
04/03/2014  20:21:00     -390.327      -73.407      -12.380      199.137      160.919       82.339    39655.739    25894.805     6779.761       11.510        3.617      397.169       77.441        0.038      336.733        8.231      858.567
04/03/2014  20:22:00     -520.154      -75.880      -24.110      194.057      175.431      101.905    37658.069    30776.106    10384.575       17.784        3.941      525.660      105.574        0.040      336.696        8.169      858.560
04/03/2014  20:23:00     -425.154     -101.391        6.066      198.037      141.477       88.578    39218.710    20015.722     7846.028       12.906        3.354      437.077      106.534        0.059      336.702        8.178      858.548
04/03/2014  20:24:00     -328.872     -175.095      -32.968      160.404      107.118       66.722    25729.303    11474.217     4451.793        9.077        2.083      372.579       58.864        0.025      336.719        8.208      858.587
04/03/2014  20:25:00     -430.090     -108.206      -31.522      142.393      132.922       68.979    20275.882    17668.354     4758.140       12.018        2.135      443.493       73.150        0.027      336.669        8.124      858.554
04/03/2014  20:26:00     -480.221     -140.110       -2.780      304.239      193.096      109.368    92561.339    37286.253    11961.455       19.600        7.090      500.243      121.293        0.059      336.667        8.120      858.540
04/03/2014  20:27:00     -326.246     -126.498       -7.980      223.252      167.421       93.959    49841.585    28029.696     8828.276       10.458        4.335      349.912      103.544        0.088      336.687        8.155      858.531
04/03/2014  20:28:00     -513.787     -111.126      -22.705      218.148      173.242      100.606    47588.342    30012.739    10121.546       18.226        4.386      525.667      106.517        0.041      336.594        8.000      858.558
04/03/2014  20:29:00     -232.688      -81.464       -3.022      190.907      141.575       77.950    36445.330    20043.558     6076.167        6.166        3.128      246.536       79.525        0.104      336.672        8.129      858.598
04/03/2014  20:30:00     -394.705        7.560      -17.087      281.776      153.085       95.475    79397.465    23434.870     9115.512       13.402        5.597      394.778      132.775        0.113      336.632        8.061      858.620
04/03/2014  20:31:00     -517.844      -97.019      -33.983      160.739      133.467       69.719    25837.000    17813.321     4860.801       16.361        2.426      526.854       69.901        0.018      336.537        7.904      858.591
04/03/2014  20:32:00     -328.074      -85.218       10.330      247.201      172.123      101.340    61108.228    29626.481    10269.872       10.798        5.050      338.961      120.994        0.127      336.590        7.992      858.590
04/03/2014  20:33:00     -303.132      -27.429        9.112      204.660      162.865      106.039    41885.681    26525.026    11244.355        8.617        3.983      304.370      113.165        0.138      336.598        8.005      858.618
04/03/2014  20:34:00     -293.134     -108.599       -0.626      206.592      188.487      106.452    42680.120    35527.259    11332.029        9.361        4.477      312.604      115.778        0.137      336.558        7.940      858.667
04/03/2014  20:35:00     -283.715        0.287       -0.079      205.391      113.928       68.074    42185.312    12979.543     4634.022        7.013        2.990      283.715       73.736        0.068      336.645        8.084      858.676
04/03/2014  20:36:00     -426.360     -146.152      -15.966      287.825      207.919      113.464    82843.418    43230.313    12873.986       17.115        6.947      450.714      146.395        0.105      336.541        7.910      858.668
04/03/2014  20:37:00     -474.323     -169.142       13.368      251.163      162.458       93.054    63082.911    26392.714     8659.012       17.593        4.907      503.579      117.109        0.054      336.464        7.779      858.716
04/03/2014  20:38:00     -458.148      -66.116      -20.102      234.431      142.270       95.446    54957.980    20240.823     9109.969       14.948        4.215      462.894      117.505        0.064      336.471        7.790      858.731
04/03/2014  20:39:00     -343.299     -128.855      -14.452      181.765      140.918       77.301    33038.605    19857.969     5975.473        9.676        2.944      366.685       71.634        0.038      336.461        7.774      858.726
04/03/2014  20:40:00     -514.091      -96.601      -31.070      226.279      156.349       86.268    51202.143    24444.893     7442.109       17.882        4.154      523.089       96.345        0.034      336.441        7.740      858.707
04/03/2014  20:41:00     -467.789      -93.447      -27.347      203.386      161.464       87.355    41365.867    26070.664     7630.936       15.167        3.753      477.031      102.236        0.046      336.429        7.720      858.731
04/03/2014  20:42:00     -492.113     -118.675      -27.083      260.286      193.203      104.954    67748.659    37327.460    11015.292       18.652        5.805      506.221      130.491        0.066      336.424        7.711      858.711
04/03/2014  20:43:00     -305.800     -121.467        6.315      192.002      125.016       82.509    36864.610    15629.001     6807.682        8.379        2.965      329.041       78.024        0.056      336.458        7.768      858.723
04/03/2014  20:44:00     -384.433      -42.578       -4.007      252.333      161.883       94.007    63671.957    26205.969     8837.229       12.415        4.936      386.784      123.990        0.103      336.450        7.755      858.742
04/03/2014  20:45:00     -485.173     -136.482      -20.613      185.318      139.342       83.455    34342.746    19416.253     6964.689       15.757        3.036      504.004       98.585        0.038      336.369        7.620      858.753
04/03/2014  20:46:00     -331.199      -56.075       -9.036      186.577      115.936       77.545    34810.952    13441.162     6013.284        8.358        2.713      335.913       89.569        0.071      336.428        7.718      858.762
04/03/2014  20:47:00     -378.375      -95.259      -21.762      149.488      126.545       75.560    22346.725    16013.698     5709.254        9.838        2.203      390.182       72.212        0.034      336.391        7.657      858.751
04/03/2014  20:48:00     -291.123       21.802      -14.289      240.083      113.223       78.127    57639.990    12819.478     6103.898        8.098        3.828      291.938       89.875        0.095      336.423        7.712      858.768
04/03/2014  20:49:00     -503.324      -69.284      -31.768      211.792      177.335       91.520    44855.663    31447.704     8375.933       17.189        4.234      508.070      102.416        0.041      336.379        7.637      858.758
04/03/2014  20:50:00     -328.771      -72.645       -1.325      205.031      136.507       68.906    42037.886    18634.156     4748.036        8.938        3.271      336.701       80.659        0.057      336.392        7.659      858.748
04/03/2014  20:51:00     -406.051       -1.932      -33.947      171.574      113.474       82.135    29437.614    12876.458     6746.234       10.754        2.453      406.055       85.503        0.044      336.408        7.688      858.751
04/03/2014  20:52:00     -357.590      -45.408      -22.185      166.301      120.229       73.406    27655.953    14454.899     5388.477        8.895        2.375      360.461       81.349        0.051      336.438        7.736      858.762
04/03/2014  20:53:00     -469.657     -113.378      -11.576      161.219      141.931       78.164    25991.464    20144.343     6109.633       14.290        2.612      483.148       79.884        0.027      336.353        7.592      858.764
04/03/2014  20:54:00     -487.481     -184.140      -24.937      187.533      151.536       96.829    35168.812    22963.266     9375.904       16.982        3.375      521.100      104.109        0.040      336.372        7.624      858.769
04/03/2014  20:55:00     -330.146      -82.240      -22.042      178.924      111.706       85.820    32013.638    12478.250     7365.039        8.404        2.593      340.234       86.555        0.065      336.420        7.706      858.760
04/03/2014  20:56:00     -343.118     -100.894      -23.460      158.270      175.751       71.496    25049.369    30888.506     5111.711        9.474        3.052      357.645       69.907        0.038      336.447        7.751      858.772
04/03/2014  20:57:00     -268.635      -94.810        1.706      162.996      145.484       71.003    26567.778    21165.699     5041.406        6.696        2.639      284.875       88.426        0.096      336.477        7.801      858.790
04/03/2014  20:58:00     -267.781     -106.717       -6.221      208.008      128.192       72.959    43267.504    16433.146     5323.044        7.407        3.251      288.263       98.360        0.116      336.464        7.780      858.785
04/03/2014  20:59:00     -233.830      -46.145      -12.204      197.157      101.430       72.541    38870.855    10288.069     5262.154        5.568        2.721      238.340      100.344        0.177      336.531        7.892      858.800
04/03/2014  21:00:00     -341.332      -96.765      -11.212      138.794      106.907       69.265    19263.645    11429.093     4797.581        8.074        1.775      354.783       57.714        0.026      336.476        7.799      858.798
04/03/2014  21:01:00     -273.349     -210.278       -5.079      165.851      151.844       93.893    27506.515    23056.543     8815.974        8.916        2.969      344.872       87.475        0.064      336.527        7.885      858.773
04/03/2014  21:02:00     -272.402      -81.324      -10.068      103.429      138.612       63.559    10697.617    19213.174     4039.759        5.743        1.698      284.282       51.838        0.033      336.569        7.956      858.797
04/03/2014  21:03:00     -193.208      -84.696       18.483      169.826      147.650       79.781    28840.878    21800.465     6365.057        5.091        2.850      210.957       92.430        0.192      336.581        7.977      858.812
04/03/2014  21:04:00     -314.189      -36.043      -14.534      164.756      150.478       71.699    27144.530    22643.688     5140.693        7.757        2.746      316.249       78.423        0.061      336.619        8.040      858.804
04/03/2014  21:05:00     -267.707      -62.712        7.039      167.298      125.729       70.877    27988.596    15807.770     5023.524        6.222        2.441      274.955       73.948        0.072      336.593        7.996      858.817
04/03/2014  21:06:00     -223.194      -30.616       14.799      187.871      127.219       69.702    35295.571    16184.601     4858.431        5.364        2.817      225.284       84.234        0.140      336.622        8.047      858.828
04/03/2014  21:07:00     -236.675      -26.579       -6.710      151.814      109.176       59.753    23047.566    11919.455     3570.406        4.764        1.927      238.163       64.842        0.074      336.636        8.070      858.856
04/03/2014  21:08:00     -227.389      -64.659       13.379      150.332      133.081       57.109    22599.817    17710.473     3261.430        4.981        2.179      236.403       50.908        0.046      336.639        8.075      858.876
04/03/2014  21:09:00     -296.818     -151.365      -19.444      158.780      116.706       76.620    25211.054    13620.379     5870.622        7.804        2.235      333.185       73.642        0.049      336.568        7.955      858.899
04/03/2014  21:10:00     -334.300     -131.401       -4.083      187.102      153.190       73.642    35007.222    23467.154     5423.144        9.646        3.195      359.197       74.515        0.043      336.545        7.917      858.881
04/03/2014  21:11:00     -298.501      -31.758       -0.569      172.432      118.812       69.261    29732.923    14116.200     4797.075        6.937        2.432      300.186       79.438        0.070      336.605        8.016      858.881
04/03/2014  21:12:00     -249.318     -182.368      -12.724      120.655      109.301       59.157    14557.528    11946.670     3499.510        6.279        1.500      308.897       62.459        0.041      336.515        7.864      858.870
04/03/2014  21:13:00     -120.640      -31.578        9.792      111.012       96.012       63.723    12323.560     9218.277     4060.680        2.062        1.280      124.704       53.154        0.182      336.575        7.970      858.872
04/03/2014  21:14:00     -166.967      -98.827       -2.338      161.802      140.729       57.635    26179.861    19804.571     3321.759        4.347        2.465      194.022       69.170        0.127      336.605        8.018      858.881
04/03/2014  21:15:00     -263.104      -91.672       -1.759      162.379       93.709       56.628    26367.024     8781.348     3206.752        5.799        1.918      278.617       54.402        0.038      336.519        7.874      858.889
04/03/2014  21:16:00     -263.383     -163.356       -9.580      134.158      118.636       65.479    17998.348    14074.398     4287.462        6.625        1.818      309.929       72.844        0.055      336.494        7.830      858.880
04/03/2014  21:17:00     -148.801     -101.001        2.609      155.092      111.515       65.260    24053.582    12435.519     4258.850        3.654        2.037      179.841       66.569        0.137      336.508        7.856      858.889
04/03/2014  21:18:00     -166.824      -22.428       11.099      121.573      111.985       62.428    14779.958    12540.610     3897.317        2.983        1.561      168.325       58.091        0.119      336.579        7.974      858.900
04/03/2014  21:19:00     -175.035       -3.831      -13.236      105.052       64.693       45.906    11035.926     4185.147     2107.385        2.407        0.866      175.077       45.498        0.068      336.626        8.053      858.936
04/03/2014  21:20:00     -178.951      -36.401      -12.397       63.792       69.122       38.279     4069.469     4777.893     1465.247        2.191        0.516      182.616       29.660        0.026      336.634        8.067      858.935
04/03/2014  21:21:00     -237.622      -43.339      -29.326      145.549       78.176       58.691    21184.440     6111.548     3444.671        4.497        1.537      241.542       59.117        0.060      336.509        7.855      858.932
04/03/2014  21:22:00      -80.506      -10.573       25.465       72.814       62.680       41.878     5301.904     3928.826     1753.751        0.911        0.549       81.197       42.374        0.272      336.572        7.964      858.934
04/03/2014  21:23:00     -120.887      -40.379        4.388       92.156       90.805       43.592     8492.803     8245.571     1900.228        1.745        0.932      127.452       44.641        0.123      336.616        8.038      858.934
04/03/2014  21:24:00     -154.419      -82.276        8.575      201.199      118.972       57.896    40481.111    14154.346     3351.987        4.433        2.899      174.970       73.481        0.176      336.607        8.021      858.934
04/03/2014  21:25:00     -169.523      -47.919        7.573      147.711       70.794       59.879    21818.518     5011.848     3585.540        3.075        1.521      176.165       66.828        0.144      336.555        7.935      858.961
04/03/2014  21:26:00     -102.357      -28.628       18.536       86.868       93.726       48.867     7546.013     8784.626     2387.950        1.518        0.936      106.285       43.927        0.171      336.652        8.097      858.969
04/03/2014  21:27:00     -178.723      -44.481      -12.806       94.847       74.484       53.684     8995.940     5547.811     2882.014        2.575        0.871      184.175       56.355        0.094      336.608        8.023      858.983
04/03/2014  21:28:00     -196.597      -68.200       -9.226       96.147       75.411       41.327     9244.271     5686.787     1707.924        3.001        0.832      208.091       46.822        0.051      336.614        8.033      859.004
04/03/2014  21:29:00     -163.189       -7.810        4.149       51.976       64.964       31.960     2701.488     4220.378     1021.430        1.732        0.397      163.375       25.528        0.024      336.571        7.962      858.998
04/03/2014  21:30:00     -151.727      -66.954        5.725       75.293       63.577       33.823     5669.074     4042.057     1143.968        1.919        0.543      165.843       38.600        0.054      336.603        8.016      859.001
04/03/2014  21:31:00     -146.568      -94.570        3.831      102.677       91.561       49.385    10542.567     8383.496     2438.899        2.590        1.068      174.430       52.692        0.091      336.617        8.036      858.994
04/03/2014  21:32:00     -145.598       -5.052       -7.325       84.362       58.522       37.172     7117.017     3424.803     1381.749        1.660        0.596      145.685       35.038        0.058      336.721        8.212      858.992
04/03/2014  21:33:00     -148.229       10.657        6.373       77.604       65.502       35.211     6022.408     4290.575     1239.845        1.684        0.578      148.612       28.886        0.038      336.726        8.220      858.988
04/03/2014  21:34:00     -189.230      -83.622       -6.348       78.842       61.596       37.207     6216.026     3794.098     1384.363        2.712        0.570      206.883       32.248        0.024      336.644        8.083      858.991
04/03/2014  21:35:00     -188.910       -4.084       -5.684       60.806       59.880       34.904     3697.350     3585.557     1218.309        2.212        0.425      188.954       30.671        0.026      336.660        8.108      859.000
04/03/2014  21:36:00     -301.606     -130.002      -17.344      152.220      109.471       48.921    23170.824    11984.005     2393.275        7.285        1.877      328.431       46.042        0.020      336.621        8.043      859.005
04/03/2014  21:37:00     -174.640      -70.235       -7.703       94.223       78.726       37.968     8878.050     6197.705     1441.548        2.600        0.826      188.234       35.984        0.037      336.665        8.118      859.006
04/03/2014  21:38:00     -112.215      -19.400       11.823       76.793       64.207       39.614     5897.112     4122.593     1569.268        1.235        0.579      113.880       40.329        0.125      336.729        8.226      859.013
04/03/2014  21:39:00     -119.701      -84.854       -9.280      100.452       47.734       34.970    10090.598     2278.563     1222.867        1.760        0.680      146.726       16.201        0.012      336.685        8.152      859.014
04/03/2014  21:40:00     -229.172     -101.411      -15.433      118.112       75.641       43.686    13950.343     5721.588     1908.457        4.231        1.079      250.607       55.293        0.049      336.651        8.093      859.006
04/03/2014  21:41:00     -187.069      -70.975       -3.201      107.523       77.007       47.629    11561.272     5930.035     2268.539        2.990        0.988      200.081       32.024        0.026      336.588        7.990      858.993
04/03/2014  21:42:00      -99.803     -102.917        9.027       65.266       66.295       36.561     4259.666     4394.970     1336.677        1.531        0.500      143.361       36.419        0.065      336.627        8.056      859.000
04/03/2014  21:43:00     -107.051      -66.897       15.307       86.359       80.790       41.763     7457.946     6526.962     1744.186        1.595        0.786      126.234       51.343        0.165      336.620        8.044      858.995
04/03/2014  21:44:00      -52.221      -74.841       14.464       81.976       68.010       33.640     6720.017     4625.427     1131.643        1.050        0.624       91.259       34.563        0.143      336.677        8.140      858.986
04/03/2014  21:45:00      -45.475     -135.424        0.396       53.431       60.920       35.449     2854.872     3711.228     1256.631        1.411        0.391      142.856       24.930        0.030      336.636        8.071      858.983
04/03/2014  21:46:00     -130.822     -112.801        6.230       99.328       79.517       46.101     9865.969     6322.933     2125.278        2.409        0.916      172.738       44.801        0.067      336.622        8.046      858.983
04/03/2014  21:47:00      -40.638      -42.916       13.410       58.996       64.014       40.733     3480.526     4097.772     1659.153        0.645        0.462       59.104       37.559        0.404      336.629        8.060      858.995
04/03/2014  21:48:00      -97.125     -115.373        3.103       93.516       58.427       34.111     8745.222     3413.737     1163.585        1.804        0.666      150.812       35.980        0.057      336.628        8.058      858.990
04/03/2014  21:49:00     -187.938     -108.179        0.531       88.819       54.240       37.545     7888.878     2941.989     1409.604        2.963        0.612      216.849       35.729        0.027      336.588        7.988      858.991
04/03/2014  21:50:00     -208.417     -156.819        4.961      135.128      101.854       57.696    18259.475    10374.267     3328.845        5.000        1.598      260.826       68.586        0.069      336.586        7.987      859.001
04/03/2014  21:51:00     -225.755      -97.144       -6.649       97.582       74.435       49.503     9522.160     5540.605     2450.578        3.898        0.876      245.769       44.376        0.033      336.576        7.968      859.008
04/03/2014  21:52:00     -100.530      -13.275        8.955       68.915       68.714       42.029     4749.254     4721.629     1766.446        1.080        0.562      101.402       32.588        0.103      336.700        8.180      858.996
04/03/2014  21:53:00      -34.537      -61.257        7.824       46.008       61.464       30.740     2116.769     3777.804      944.941        0.592        0.342       70.322       26.058        0.137      336.713        8.201      858.999
04/03/2014  21:54:00     -118.365      -79.606       -9.223       60.559       54.680       30.437     3667.437     2989.905      926.414        1.401        0.379      142.645       28.028        0.039      336.659        8.109      859.009
04/03/2014  21:55:00     -130.348     -114.746        0.851      104.445       61.018       37.578    10908.726     3723.214     1412.134        2.310        0.802      173.659       44.457        0.066      336.606        8.021      859.014
04/03/2014  21:56:00     -296.441      -64.354      -20.849      143.425       95.604       55.208    20570.702     9140.139     3047.888        6.260        1.638      303.346       62.646        0.043      336.605        8.016      859.019
04/03/2014  21:57:00     -255.919      -35.423      -12.646       94.008      119.616       61.540     8837.539    14308.079     3787.167        4.692        1.347      258.359       56.698        0.048      336.640        8.076      859.008
04/03/2014  21:58:00     -140.572      -62.969        8.877      148.174       73.571       58.867    21955.639     5412.715     3465.351        2.731        1.542      154.031       72.403        0.221      336.653        8.099      858.999
04/03/2014  21:59:00     -216.911      -83.307        5.724      141.579      118.919       69.347    20044.641    14141.814     4809.019        4.650        1.950      232.359       71.313        0.094      336.626        8.053      858.995
04/03/2014  22:00:00     -192.845      -91.820        0.445      143.863      124.614       62.564    20696.658    15528.700     3914.217        4.287        2.007      213.589       62.734        0.086      336.608        8.023      858.977
04/03/2014  22:01:00      -27.050       -1.680       42.899      126.041       55.500       50.016    15886.460     3080.260     2501.578        1.202        1.073       27.102       64.153        5.603      336.680        8.144      858.980
04/03/2014  22:02:00      -90.629     -104.312       26.543      125.787      113.631       83.765    15822.442    12911.896     7016.603        2.777        1.788      138.183       84.123        0.371      336.600        8.009      858.991
04/03/2014  22:03:00     -137.110      -50.402        1.366       89.687       78.776       45.401     8043.834     6205.606     2061.249        1.882        0.816      146.081       42.412        0.084      336.670        8.127      858.998
04/03/2014  22:04:00     -127.800      -36.911        2.593       79.854       72.585       45.359     6376.622     5268.564     2057.463        1.570        0.685      133.024       44.409        0.111      336.644        8.084      859.003
04/03/2014  22:05:00     -294.786      -99.345        8.521      186.676      132.921       78.035    34847.908    17668.049     6089.526        7.771        2.930      311.076       89.355        0.083      336.633        8.065      858.976
04/03/2014  22:06:00     -276.598      -67.943        5.539      134.730      100.923       65.755    18152.205    10185.457     4323.741        5.690        1.633      284.821       69.191        0.059      336.593        7.997      858.993
04/03/2014  22:07:00     -226.871      -36.543        9.943      147.662      100.593       71.434    21803.964    10118.923     5102.823        4.496        1.851      229.795       79.019        0.118      336.610        8.026      858.987
04/03/2014  22:08:00     -237.082      -77.313        6.937      187.456      120.759       67.688    35139.648    14582.788     4581.708        5.826        2.715      249.369       86.823        0.121      336.599        8.008      858.983
04/03/2014  22:09:00     -253.685     -111.792       -5.686      137.177      116.378       59.584    18817.410    13543.872     3550.261        5.639        1.796      277.225       58.855        0.045      336.643        8.078      858.985
04/03/2014  22:10:00      -79.256      -49.629       14.571       66.997       65.741       42.536     4488.539     4321.838     1809.336        0.979        0.531       93.512       32.527        0.121      336.671        8.129      858.972
04/03/2014  22:11:00     -132.290       -5.979       -4.513       91.003       49.441       39.584     8281.616     2444.364     1566.858        1.492        0.615      132.425       41.414        0.098      336.617        8.037      858.970
04/03/2014  22:12:00     -109.869      -17.512       -3.553       72.008       27.445       23.823     5185.083      753.216      567.514        0.945        0.325      111.255       31.178        0.079      336.597        8.006      858.966
04/03/2014  22:13:00      -95.388      -57.412        8.715       55.275       45.953       27.723     3055.367     2111.650      768.576        0.920        0.297      111.332       22.369        0.040      336.618        8.043      858.960
04/03/2014  22:14:00     -125.319      -55.025        7.520       99.051       81.849       50.783     9811.099     6699.207     2578.875        1.894        0.954      136.868       53.896        0.155      336.644        8.083      858.955
04/03/2014  22:15:00     -113.579      -56.661        5.914      111.637       83.569       56.138    12462.869     6983.771     3151.504        1.937        1.130      126.927       57.064        0.202      336.627        8.055      858.958
04/03/2014  22:16:00     -247.792     -173.923        1.259      128.077      108.935       56.967    16403.634    11866.876     3245.288        6.158        1.576      302.738       56.226        0.034      336.573        7.964      858.953
04/03/2014  22:17:00     -361.123       -4.790      -24.122      183.062       85.737       71.510    33511.626     7350.757     5113.678        8.849        2.299      361.155       88.778        0.060      336.643        8.081      858.961
04/03/2014  22:18:00     -311.101        4.224      -11.485      149.749       83.986       54.147    22424.803     7053.700     2931.861        6.467        1.621      311.130       68.454        0.048      336.626        8.052      858.965
04/03/2014  22:19:00     -176.562     -110.633        2.069      116.789       93.617       53.797    13639.679     8764.171     2894.152        3.435        1.265      208.360       50.409        0.059      336.617        8.038      858.975
04/03/2014  22:20:00     -169.926     -161.392        4.247      140.418      120.689       60.867    19717.300    14565.933     3704.767        4.646        1.899      234.355       70.596        0.091      336.598        8.007      858.972
04/03/2014  22:21:00     -351.670     -292.370      -10.147      157.745      123.523       89.158    24883.531    15257.995     7949.229       12.866        2.405      457.331       88.787        0.038      336.604        8.015      858.972
04/03/2014  22:22:00     -343.951     -152.649      -19.790      100.285      107.207       59.690    10057.150    11493.381     3562.887        8.355        1.256      376.303       56.318        0.022      336.604        8.014      858.992
04/03/2014  22:23:00     -106.260        7.938      -27.300       60.450       53.845       32.509     3654.215     2899.237     1056.844        0.985        0.381      106.556       21.763        0.042      336.708        8.190      858.998
04/03/2014  22:24:00      -29.238      -49.640        1.579       41.768       22.011       19.534     1744.543      484.468      381.566        0.297        0.131       57.611       14.315        0.062      336.697        8.174      858.998
04/03/2014  22:25:00     -153.613     -112.453      -12.097       89.559      102.525       33.913     8020.751    10511.400     1150.060        2.803        0.984      190.375       32.451        0.029      336.619        8.042      859.005
04/03/2014  22:26:00     -147.029     -123.103       -1.617       90.681       80.711       57.130     8223.040     6514.314     3263.780        2.738        0.900      191.760       54.100        0.080      336.581        7.978      859.001
04/03/2014  22:27:00     -211.385      -96.681       -8.747       69.141       52.161       32.962     4780.509     2720.729     1086.492        3.135        0.429      232.446       29.007        0.016      336.544        7.915      859.001
04/03/2014  22:28:00     -124.122     -106.810       -0.598       45.026       49.995       30.878     2027.367     2499.486      953.476        1.615        0.274      163.752       27.514        0.028      336.537        7.905      859.011
04/03/2014  22:29:00     -195.625     -122.571       -6.777       92.855       74.271       40.495     8622.096     5516.156     1639.880        3.456        0.789      230.853       32.487        0.020      336.541        7.910      858.996
04/03/2014  22:30:00     -144.444      -98.220       15.024      132.281       76.559       49.424    17498.176     5861.210     2442.772        2.826        1.290      174.675       63.527        0.132      336.532        7.896      858.985
04/03/2014  22:31:00     -206.976      -95.575      -10.065      100.462       62.257       44.449    10092.634     3875.992     1975.730        3.401        0.797      227.977       54.150        0.056      336.503        7.848      858.973
04/03/2014  22:32:00     -147.771      -72.658       -8.521       92.553       58.623       48.162     8565.990     3436.633     2319.607        2.075        0.716      164.668       49.394        0.090      336.505        7.851      858.965
04/03/2014  22:33:00     -114.298      -42.282       -4.997       78.716       50.752       35.677     6196.216     2575.796     1272.861        1.246        0.502      121.868       42.184        0.120      336.554        7.936      858.966
04/03/2014  22:34:00     -126.634     -120.800        5.559       84.506       75.140       48.123     7141.322     5646.044     2315.797        2.288        0.755      175.011       49.792        0.081      336.601        8.011      858.965
04/03/2014  22:35:00     -127.245      -50.245        5.824       70.696       41.618       36.835     4997.883     1732.053     1356.847        1.342        0.404      136.806       39.070        0.082      336.574        7.970      858.973
04/03/2014  22:36:00      -86.180      -42.910        4.876       34.529       25.136       18.693     1192.271      631.831      349.442        0.573        0.109       96.272       16.563        0.030      336.557        7.940      858.977
04/03/2014  22:37:00      -80.768      -34.615       -3.096       20.600       15.198       14.667      424.357      230.989      215.130        0.430        0.044       87.873       11.684        0.018      336.554        7.935      858.976
04/03/2014  22:38:00      -71.165      -33.213       -1.431       28.942       20.440       10.076      837.615      417.777      101.523        0.376        0.068       78.534        8.273        0.011      336.587        7.989      858.980
04/03/2014  22:39:00      -83.910      -34.952       -0.403       30.974       22.375       18.903      959.371      500.642      357.333        0.504        0.091       90.899       18.399        0.041      336.620        8.046      858.981
04/03/2014  22:40:00      -36.603      -48.848        0.822       27.796       19.165       16.756      772.616      367.309      280.767        0.257        0.071       61.041       13.504        0.049      336.632        8.065      858.975
04/03/2014  22:41:00      -12.439      -13.070        6.023       17.854       17.229        9.375      318.754      296.830       87.891        0.053        0.035       18.043        7.186        0.159      336.638        8.074      858.974
04/03/2014  22:42:00      -29.695      -39.938       -3.063       29.437       21.381       14.229      866.516      457.150      202.453        0.201        0.076       49.768       13.152        0.070      336.663        8.117      858.984
04/03/2014  22:43:00      -70.308      -62.894       -5.804       38.775       26.838       20.703     1503.511      720.303      428.632        0.579        0.133       94.334       17.422        0.034      336.660        8.111      858.986
04/03/2014  22:44:00     -119.948      -75.438      -11.652       52.092       50.612       29.845     2713.533     2561.598      890.711        1.319        0.308      141.699       13.965        0.010      336.586        7.986      858.991
04/03/2014  22:45:00     -107.740      -30.820       -1.007       44.643       67.610       30.985     1993.023     4571.144      960.064        1.004        0.376      112.062       29.856        0.071      336.513        7.867      858.986
04/03/2014  22:46:00      -55.910       -9.983        5.627       45.851       24.543       19.855     2102.298      602.352      394.216        0.318        0.155       56.794       14.885        0.069      336.505        7.851      858.977
04/03/2014  22:47:00     -134.086      -38.836       -9.318       33.281       31.841       20.166     1107.630     1013.829      406.665        1.105        0.126      139.597       17.891        0.016      336.497        7.838      858.983
04/03/2014  22:48:00      -91.234      -21.432        0.117       52.769       35.744       22.959     2784.561     1277.622      527.131        0.669        0.229       93.718       24.468        0.068      336.486        7.820      858.986
04/03/2014  22:49:00     -112.767      -36.679        2.763       73.076       50.230       38.302     5340.146     2523.009     1467.045        1.170        0.467      118.582       36.325        0.094      336.520        7.878      858.985
04/03/2014  22:50:00     -173.071      -97.819       -1.921       77.448       49.668       33.883     5998.264     2466.906     1148.072        2.457        0.481      198.801       32.866        0.027      336.546        7.920      858.996
04/03/2014  22:51:00      -55.913      -74.007        9.125       74.619       42.692       32.896     5567.976     1822.634     1082.172        0.858        0.424       92.754       34.566        0.139      336.582        7.981      859.016
04/03/2014  22:52:00      -77.947      -91.656      -11.951       35.213       28.305       20.291     1239.940      801.158      411.720        0.854        0.123      120.318       14.360        0.014      336.572        7.964      859.019
04/03/2014  22:53:00     -105.183     -103.652      -10.332       63.533       53.462       30.499     4036.463     2858.181      930.183        1.487        0.391      147.673       29.219        0.039      336.590        7.995      859.014
04/03/2014  22:54:00      -76.287      -40.154       17.408       63.661       55.632       38.980     4052.706     3094.943     1519.436        0.820        0.433       86.209       35.750        0.172      336.551        7.931      859.020
04/03/2014  22:55:00     -124.194      -95.294        4.129       64.105       58.201       33.084     4109.457     3387.323     1094.520        1.656        0.430      156.541       32.354        0.043      336.497        7.836      859.007
04/03/2014  22:56:00      -88.677      -80.331        1.144       60.530       53.122       26.846     3663.918     2821.928      720.734        1.076        0.360      119.652       17.868        0.022      336.510        7.860      859.004
04/03/2014  22:57:00      -27.716      -43.304       14.360       58.052       50.131       31.558     3370.045     2513.096      995.894        0.486        0.344       51.414       35.776        0.484      336.584        7.984      859.009
04/03/2014  22:58:00      -80.222      -87.853        9.514       94.020       83.456       53.138     8839.845     6964.907     2823.682        1.643        0.931      118.970       56.076        0.222      336.508        7.856      859.001
04/03/2014  22:59:00     -118.438      -96.305       10.685      103.792       57.812       58.831    10772.687     3342.179     3461.105        2.049        0.879      152.651       62.706        0.169      336.471        7.794      858.997
04/03/2014  23:00:00     -162.757      -93.210      -13.163       67.440       49.905       46.711     4548.219     2490.482     2181.889        2.228        0.461      187.558       39.029        0.043      336.459        7.771      858.996
04/03/2014  23:01:00      -28.428      -45.076       12.593       70.829       62.030       27.252     5016.703     3847.710      742.685        0.630        0.480       53.292       36.718        0.475      336.472        7.796      858.995
04/03/2014  23:02:00     -130.485      -88.822       -6.437       69.099       53.614       37.522     4774.664     2874.412     1407.937        1.701        0.453      157.847       36.629        0.054      336.474        7.797      858.995
04/03/2014  23:03:00     -166.562      -19.168       -4.032       49.561       43.389       26.241     2456.274     1882.607      688.578        1.658        0.251      167.662       23.327        0.019      336.419        7.704      858.984
04/03/2014  23:04:00     -162.510      -20.999      -11.277       43.623       44.181       34.215     1902.966     1951.943     1170.657        1.600        0.251      163.861       28.657        0.031      336.430        7.727      858.980
04/03/2014  23:05:00      -57.397      -39.635        8.804       34.502       31.959       20.489     1190.408     1021.350      419.813        0.379        0.132       69.752       21.920        0.099      336.480        7.811      858.975
04/03/2014  23:06:00      -88.034      -38.862       -0.697       34.011       48.761       21.971     1156.776     2377.681      482.713        0.664        0.201       96.230       19.118        0.039      336.485        7.817      858.967
04/03/2014  23:07:00     -117.320      -63.806       -2.955       41.372       46.383       25.227     1711.676     2151.342      636.395        1.117        0.225      133.548       19.435        0.021      336.464        7.782      858.959
04/03/2014  23:08:00      -84.142      -93.222       -1.904       51.942       44.198       28.965     2697.979     1953.505      838.961        1.063        0.275      125.580       26.944        0.046      336.474        7.800      858.941
04/03/2014  23:09:00      -56.854      -56.228       -1.724       43.587       33.293       23.974     1899.866     1108.401      574.770        0.499        0.179       79.963       25.051        0.098      336.508        7.857      858.933
04/03/2014  23:10:00      -74.549      -73.968        0.572       50.362       41.141       29.007     2536.298     1692.566      841.398        0.805        0.254      105.019       25.974        0.061      336.523        7.882      858.928
04/03/2014  23:11:00     -117.156      -23.568        2.839       58.991       37.414       31.700     3479.920     1399.822     1004.895        1.009        0.294      119.503       34.008        0.081      336.510        7.861      858.931
04/03/2014  23:12:00     -118.049      -16.474        1.479       50.656       31.217       25.714     2566.045      974.518      661.194        0.920        0.210      119.193       28.209        0.056      336.578        7.975      858.925
04/03/2014  23:13:00      -83.674      -18.309       -2.549       42.204       35.893       20.420     1781.209     1288.331      416.985        0.541        0.174       85.653       17.645        0.042      336.591        7.997      858.922
04/03/2014  23:14:00      -93.936      -52.198       -5.471       58.247       49.316       30.459     3392.760     2432.089      927.728        0.916        0.338      107.464       19.410        0.033      336.519        7.875      858.919
04/03/2014  23:15:00      -45.143      -26.224        1.954       34.405       24.401       19.184     1183.701      595.427      368.043        0.244        0.107       52.208       17.486        0.112      336.480        7.810      858.921
04/03/2014  23:16:00      -57.180      -29.898       -1.174       17.822       18.437       13.367      317.618      339.911      178.690        0.250        0.042       64.525        7.338        0.013      336.499        7.843      858.913
04/03/2014  23:17:00      -64.245      -15.278       -7.078       25.107       28.656       19.422      630.355      821.139      377.219        0.312        0.091       66.036       12.227        0.034      336.475        7.801      858.915
04/03/2014  23:18:00      -84.757      -23.079       -1.329       57.098       19.311       15.790     3260.189      372.909      249.327        0.580        0.194       87.843        9.882        0.013      336.459        7.775      858.911
04/03/2014  23:19:00     -107.477      -38.519       -5.795       20.696       25.522       12.705      428.333      651.397      161.407        0.715        0.062      114.171        7.945        0.005      336.409        7.691      858.916
04/03/2014  23:20:00      -48.044      -38.914       -9.536       22.636       15.883       12.187      512.375      252.275      148.532        0.241        0.046       61.827        5.430        0.008      336.418        7.707      858.916
04/03/2014  23:21:00       15.872      -67.596        1.714       25.688       33.394       23.779      659.874     1115.171      565.434        0.358        0.117       69.435       20.646        0.088      336.603        8.017      858.911
04/03/2014  23:22:00      -26.424      -12.246       -1.866       31.126       17.546       13.320      968.809      307.856      177.434        0.115        0.073       29.123       13.680        0.221      336.557        7.938      858.909
04/03/2014  23:23:00      -34.631      -23.251        6.607       35.107       20.773       12.651     1232.467      431.500      160.036        0.180        0.091       41.713       18.650        0.200      336.558        7.941      858.908
04/03/2014  23:24:00      -14.042        4.671       -7.137       19.572       13.272        8.935      383.082      176.156       79.827        0.045        0.032       14.799        9.016        0.371      336.477        7.806      858.901
04/03/2014  23:25:00      -55.884      -10.369       -6.154       20.224       20.357       14.210      409.008      414.408      201.910        0.215        0.051       56.837       12.298        0.047      336.444        7.749      858.892
04/03/2014  23:26:00      -56.189      -12.102      -14.167       18.981       13.484       14.613      360.274      181.821      213.533        0.213        0.038       57.477       11.509        0.040      336.458        7.772      858.886
04/03/2014  23:27:00      -47.588        9.158       -5.982       13.686       16.612       10.924      187.311      275.955      119.341        0.148        0.029       48.461        9.554        0.039      336.480        7.806      858.892
04/03/2014  23:28:00      -58.520      -12.107       -5.740       10.438       18.656        8.615      108.944      348.038       74.211        0.207        0.027       59.759        5.986        0.010      336.514        7.869      858.897
04/03/2014  23:29:00      -23.890      -12.383        1.338       20.888       12.732       10.760      436.311      162.108      115.783        0.072        0.036       26.908       10.377        0.149      336.500        7.844      858.901
04/03/2014  23:30:00      -54.050        2.652       -1.436       15.536       14.900       10.395      241.360      222.020      108.065        0.175        0.029       54.115        7.308        0.018      336.462        7.778      858.901
04/03/2014  23:31:00      -30.061      -34.516       -4.173       22.833       17.405        9.553      521.323      302.932       91.252        0.151        0.046       45.772        4.586        0.010      336.535        7.903      858.909
04/03/2014  23:32:00      -18.031      -16.291       -2.159       16.862        9.716       12.649      284.332       94.400      159.985        0.057        0.027       24.301       12.064        0.246      336.511        7.863      858.916
04/03/2014  23:33:00       -5.129       -7.267        2.762       16.820       10.874       10.949      282.898      118.248      119.872        0.030        0.026        8.895        8.002        0.809      336.482        7.812      858.919
04/03/2014  23:34:00      -10.032      -19.402        2.034        8.942        7.782        8.743       79.966       60.558       76.443        0.035        0.011       21.842        2.962        0.018      336.498        7.839      858.916
04/03/2014  23:35:00       -8.391       28.017        6.403       11.264        8.469       13.178      126.882       71.720      173.648        0.063        0.019       29.247        5.783        0.039      336.390        7.658      858.907
04/03/2014  23:36:00       -3.981        7.476        4.558       24.088       11.773       12.819      580.248      138.597      164.336        0.049        0.044        8.470       14.720        3.021      336.377        7.637      858.903
04/03/2014  23:37:00      -26.324       -5.100       -1.704       12.694       10.094       14.252      161.130      101.891      203.119        0.059        0.023       26.813        9.100        0.115      336.367        7.621      858.890
04/03/2014  23:38:00      -14.299      -21.462        3.740       22.360       18.578       11.133      499.970      345.153      123.941        0.082        0.048       25.789       11.086        0.185      336.471        7.795      858.874
04/03/2014  23:39:00      -56.687      -23.638        0.143       33.358       18.056       11.326     1112.765      326.015      128.267        0.267        0.078       61.418        8.704        0.020      336.461        7.778      858.866
04/03/2014  23:40:00     -110.299      -51.824       -0.412       24.309       21.639       13.169      590.927      468.244      173.424        0.804        0.062      121.868       11.732        0.009      336.410        7.693      858.858
04/03/2014  23:41:00      -90.550      -29.199       -6.124       26.325       18.232       11.377      693.017      332.388      129.445        0.512        0.058       95.141        7.979        0.007      336.422        7.714      858.855
04/03/2014  23:42:00      -90.306      -57.396        1.692       38.359       38.578       16.538     1471.377     1488.273      273.508        0.734        0.162      107.002       14.511        0.018      336.438        7.740      858.853
04/03/2014  23:43:00      -91.391      -38.608       -8.907       15.732       22.821       13.814      247.494      520.775      190.840        0.544        0.048       99.211        8.249        0.007      336.421        7.709      858.858
04/03/2014  23:44:00      -42.605       -5.746       -2.906       24.773       13.950        9.739      613.699      194.606       94.858        0.138        0.045       42.991       10.384        0.058      336.414        7.699      858.847
04/03/2014  23:45:00     -145.874      -38.903      -12.009       37.260       29.385       23.881     1388.325      863.487      570.279        1.288        0.141      150.972       10.993        0.005      336.400        7.677      858.846
04/03/2014  23:46:00     -126.988      -65.499        2.637       50.060       38.818       25.864     2506.032     1506.804      668.940        1.255        0.234      142.885       20.255        0.020      336.373        7.631      858.831
04/03/2014  23:47:00     -155.127      -65.793        4.281       55.441       36.875       28.322     3073.745     1359.786      802.149        1.682        0.262      168.502       27.643        0.027      336.346        7.584      858.829
04/03/2014  23:48:00     -108.063      -12.794       -7.965       49.405       30.905       23.240     2440.893      955.127      540.116        0.792        0.197      108.818       25.192        0.054      336.323        7.547      858.823
04/03/2014  23:49:00     -129.021      -49.432       -6.879       42.791       41.788       19.719     1831.035     1746.250      388.823        1.155        0.198      138.166       16.602        0.014      336.371        7.627      858.833
04/03/2014  23:50:00      -40.775      -16.045       10.479       56.782       46.795       28.801     3224.154     2189.782      829.474        0.414        0.312       43.819       33.443        0.582      336.400        7.676      858.839
04/03/2014  23:51:00     -115.835        2.742      -12.811       55.429       37.315       19.888     3072.424     1392.443      395.548        0.922        0.243      115.867       21.142        0.033      336.402        7.678      858.842
04/03/2014  23:52:00     -127.375      -72.386        1.231       74.970       45.976       34.467     5620.466     2113.769     1188.003        1.519        0.446      146.507       33.296        0.052      336.388        7.654      858.846
04/03/2014  23:53:00     -135.710      -51.862       -8.666       35.187       36.078       24.009     1238.139     1301.591      576.417        1.215        0.156      145.282       15.769        0.012      336.358        7.605      858.849
04/03/2014  23:54:00      -76.138      -35.432       -9.722       38.058       23.154       16.127     1448.381      536.114      260.091        0.470        0.112       83.979       10.993        0.017      336.352        7.595      858.847
04/03/2014  23:55:00     -129.620      -57.019      -14.668       22.163       25.992       12.809      491.183      675.570      164.058        1.080        0.067      141.607        8.851        0.004      336.331        7.561      858.841
04/03/2014  23:56:00     -140.686      -13.372        1.407       58.073       43.246       29.321     3372.516     1870.176      859.697        1.304        0.305      141.320       32.830        0.054      336.292        7.496      858.832
04/03/2014  23:57:00     -103.997      -27.979      -10.487       43.417       39.707       19.163     1884.996     1576.672      367.210        0.777        0.191      107.695       15.894        0.022      336.313        7.530      858.823
04/03/2014  23:58:00      -87.103      -36.355       -0.793       31.512       24.798       14.138      993.025      614.949      199.882        0.536        0.090       94.386       11.350        0.014      336.363        7.615      858.816
04/03/2014  23:59:00      -29.150      -29.379       -7.469       32.012       29.184       15.455     1024.757      851.680      238.856        0.194        0.106       41.387       14.547        0.124      336.394        7.666      858.799
